[[{"header":{"parameterUnit":"m.s-1","parameterCategory":1,"la1":31.0,"la2":29.5877,"lo1":-88.7671,"lo2":-86.6584,"dy":0.0162,"dx":0.0185,"nx":115,"ny":88,"refTime":"2024-03-31T12:00:00:Z","depth":0,"parameterNumber":2,"parameterNumberName":"U-component_of_WINDS"},"data":[0.0,0.0,0.0,0.0,0.0,0.0,0.0,0.0,0.0,0.0,0.0,0.0,0.0,0.0,0.0,0.0,0.0,0.0,0.0,0.0,0.0,0.0,0.0,0.0,0.0,0.0,0.0,0.0,0.0,0.0,0.0,0.0,0.0,0.0,0.0,0.0,0.0,0.0,0.0,0.0,0.0,0.0,0.0,0.0,0.0,0.0,0.0,0.0,0.0,0.0,0.0,0.0,0.0,0.0,0.0,0.0,0.0,0.0,0.0,0.0,0.0,0.0,0.0,0.0,0.0,0.0,0.0,0.0,0.0,0.0,0.0,0.0,0.0,0.0,0.0,0.0,0.0,0.0,0.0,0.0,0.0,0.0,0.0,0.0,0.0,0.0,0.0,0.0,0.0,0.0,0.0,0.0,0.0,0.0,0.0,0.0,0.0,0.0,0.0,0.0,0.0,0.0,0.0,0.0,0.0,0.0,0.0,0.0,0.0,0.0,0.0,0.0,0.0,0.0,0.0,0.0,0.0,0.0,0.0,0.0,0.0,0.0,0.0,0.0,0.0,0.0,0.0,0.0,0.0,0.0,0.0,0.0,0.0,0.0,0.0,0.0,0.0,0.0,0.0,0.0,0.0,0.0,0.0,0.0,0.0,0.0,0.0,0.0,0.0,0.0,0.0,0.0,0.0,0.0,0.0,0.0,0.0,0.0,0.0,0.0,0.0,0.0,0.0,0.0,0.0,0.0,0.0,0.0,0.0,0.0,0.0,0.0,0.0,0.0,0.0,0.0,0.0,0.0,0.0,0.0,0.0,0.0,0.0,0.0,0.0,0.0,0.0,0.0,0.0,0.0,0.0,0.0,0.0,0.0,0.0,0.0,0.0,0.0,0.0,0.0,0.0,0.0,0.0,0.0,0.0,0.0,0.0,0.0,0.0,0.0,0.0,0.0,0.0,0.0,0.0,0.0,0.0,0.0,0.0,0.0,0.0,0.0,0.0,0.0,0.0,0.0,0.0,0.0,0.0,0.0,0.0,0.0,0.0,0.0,0.0,0.0,0.0,0.0,0.0,0.0,0.0,0.0,0.0,0.0,0.0,0.0,0.0,0.0,0.0,0.0,0.0,0.0,0.0,0.0,0.0,0.0,0.0,0.0,0.0,0.0,0.0,0.0,0.0,0.0,0.0,0.0,0.0,0.0,0.0,0.0,0.0,0.0,0.0,0.0,0.0,0.0,0.0,0.0,0.0,0.0,0.0,0.0,0.0,0.0,0.0,0.0,0.0,0.0,0.0,0.0,0.0,0.0,0.0,0.0,0.0,0.0,0.0,0.0,0.0,0.0,0.0,0.0,0.0,0.0,0.0,0.0,0.0,0.0,0.0,0.0,0.0,0.0,0.0,0.0,0.0,0.0,0.0,0.0,0.0,0.0,0.0,0.0,0.0,0.0,0.0,0.0,0.0,0.0,0.0,0.0,0.0,0.0,0.0,0.0,0.0,0.0,0.0,0.0,0.0,0.0,0.0,0.0,0.0,0.0,0.0,0.0,0.0,0.0,0.0,0.0,0.0,0.0,0.0,0.0,0.0,0.0,0.0,0.0,0.0,0.0,0.0,0.0,0.0,0.0,0.0,0.0,0.0,0.0,0.0,0.0,0.0,0.0,0.0,0.0,0.0,0.0,0.0,0.0,0.0,0.0,0.0,0.0,0.0,0.0,0.0,0.0,0.0,0.0,0.0,0.0,0.0,0.0,0.0,0.0,0.0,0.0,0.0,0.0,0.0,0.0,0.0,0.0,0.0,0.0,0.0,0.0,0.0,0.0,0.0,0.0,0.0,0.0,0.0,0.0,0.0,0.0,0.0,0.0,0.0,0.0,0.0,0.0,0.0,0.0,0.0,0.0,0.0,0.0,0.0,0.0,0.0,0.0,0.0,0.0,0.0,0.0,0.0,0.0,0.0,0.0,0.0,0.0,0.0,0.0,0.0,0.0,0.0,0.0,0.0,0.0,0.0,0.0,0.0,0.0,0.0,0.0,0.0,0.0,0.0,0.0,0.0,0.0,0.0,0.0,0.0,0.0,0.0,0.0,0.0,0.0,0.0,0.0,0.0,0.0,0.0,0.0,0.0,0.0,0.0,0.0,0.0,0.0,0.0,0.0,0.0,0.0,0.0,0.0,0.0,0.0,0.0,0.0,0.0,0.0,0.0,0.0,0.0,0.0,0.0,0.0,0.0,0.0,0.0,0.0,0.0,0.0,0.0,0.0,0.0,0.0,0.0,0.0,0.0,0.0,0.0,0.0,0.0,0.0,0.0,0.0,0.0,0.0,0.0,0.0,0.0,0.0,0.0,0.0,0.0,0.0,0.0,0.0,0.0,0.0,0.0,0.0,0.0,0.0,0.0,0.0,0.0,0.0,0.0,0.0,0.0,0.0,0.0,0.0,0.0,0.0,0.0,0.0,0.0,0.0,0.0,0.0,0.0,0.0,0.0,0.0,0.0,0.0,0.0,0.0,0.0,0.0,0.0,0.0,0.0,0.0,0.0,0.0,0.0,0.0,0.0,0.0,0.0,0.0,0.0,0.0,0.0,0.0,0.0,0.0,0.0,0.0,0.0,0.0,0.0,0.0,0.0,0.0,0.0,0.0,0.0,0.0,0.0,0.0,0.0,0.0,0.0,0.0,0.0,0.0,0.0,0.0,0.0,0.0,0.0,0.0,0.0,0.0,0.0,0.0,0.0,0.0,0.0,0.0,0.0,0.0,0.0,0.0,0.0,0.0,0.0,0.0,0.0,0.0,0.0,0.0,0.0,0.0,0.0,0.0,0.0,0.0,0.0,0.0,0.0,0.0,0.0,0.0,0.0,0.0,0.0,0.0,0.0,0.0,0.0,0.0,0.0,0.0,0.0,0.0,0.0,0.0,0.0,0.0,0.0,0.0,0.0,0.0,0.0,0.0,0.0,0.0,0.0,0.0,0.0,0.0,0.0,0.0,0.0,0.0,0.0,0.0,0.0,0.0,0.0,0.0,0.0,0.0,0.0,0.0,0.0,0.0,0.0,0.0,0.0,0.0,0.0,0.0,0.0,0.0,0.0,0.0,0.0,0.0,0.0,0.0,0.0,0.0,0.0,0.0,0.0,0.0,0.0,0.0,0.0,0.0,0.0,0.0,0.0,0.0,0.0,0.0,0.0,0.0,0.0,0.0,0.0,0.0,0.0,0.0,0.0,0.0,0.0,0.0,0.0,0.0,0.0,0.0,0.0,0.0,0.0,0.0,0.0,0.0,0.0,0.0,0.0,0.0,0.0,0.0,0.0,0.0,0.0,0.0,0.0,0.0,0.0,0.0,0.0,0.0,0.0,0.0,0.0,0.0,0.0,0.0,0.0,0.0,0.0,0.0,0.0,0.0,0.0,0.0,0.0,0.0,0.0,0.0,0.0,0.0,0.0,0.0,0.0,0.0,0.0,0.0,0.0,0.0,0.0,0.0,0.0,0.0,0.0,0.0,0.0,0.0,0.0,0.0,0.0,0.0,0.0,0.0,0.0,0.0,0.0,0.0,0.0,0.0,0.0,0.0,0.0,0.0,0.0,0.0,0.0,0.0,0.0,0.0,0.0,0.0,0.0,0.0,0.0,0.0,0.0,0.0,0.0,0.0,0.0,0.0,0.0,0.0,0.0,0.0,0.0,0.0,0.0,0.0,0.0,0.0,0.0,0.0,0.0,0.0,0.0,0.0,0.0,0.0,0.0,0.0,0.0,0.0,0.0,0.0,0.0,0.0,0.0,0.0,0.0,0.0,0.0,0.0,0.0,0.0,0.0,0.0,0.0,0.0,0.0,0.0,0.0,0.0,0.0,0.0,0.0,0.0,0.0,0.0,0.0,0.0,0.0,0.0,0.0,0.0,0.0,0.0,0.0,0.0,0.0,0.0,0.0,0.0,0.0,0.0,0.0,0.0,0.0,0.0,0.0,0.0,0.0,0.0,0.0,0.0,0.0,0.0,0.0,0.0,0.0,0.0,0.0,0.0,0.0,0.0,0.0,0.0,0.0,0.0,0.0,0.0,0.0,0.0,0.0,0.0,0.0,0.0,0.0,0.0,0.0,0.0,0.0,0.0,0.0,0.0,0.0,0.0,0.0,0.0,0.0,0.0,0.0,0.0,0.0,0.0,0.0,0.0,0.0,0.0,0.0,0.0,0.0,0.0,0.0,0.0,0.0,0.0,0.0,0.0,0.0,0.0,0.0,0.0,0.0,0.0,0.0,0.0,0.0,0.0,0.0,0.0,0.0,0.0,2.4574,0.0,0.0,0.0,0.0,0.0,0.0,0.0,0.0,0.0,0.0,0.0,0.0,0.0,0.0,0.0,0.0,0.0,0.0,0.0,0.0,0.0,0.0,0.0,0.0,0.0,0.0,0.0,0.0,0.0,0.0,0.0,0.0,0.0,0.0,0.0,0.0,0.0,0.0,0.0,0.0,0.0,0.0,0.0,0.0,0.0,0.0,0.0,0.0,0.0,0.0,0.0,0.0,0.0,0.0,0.0,0.0,0.0,0.0,0.0,0.0,0.0,0.0,0.0,0.0,0.0,0.0,0.0,0.0,0.0,0.0,0.0,0.0,0.0,0.0,0.0,0.0,0.0,0.0,0.0,0.0,0.0,0.0,0.0,0.0,0.0,0.0,0.0,0.0,0.0,0.0,0.0,0.0,0.0,0.0,0.0,0.0,0.0,0.0,0.0,0.0,0.0,0.0,0.0,0.0,0.0,0.0,0.0,0.0,0.0,0.0,2.4895,2.4966,2.4966,2.5005,2.4966,0.0,0.0,0.0,0.0,0.0,0.0,0.0,0.0,0.0,0.0,0.0,0.0,0.0,0.0,0.0,0.0,0.0,0.0,0.0,0.0,0.0,0.0,0.0,0.0,0.0,0.0,0.0,0.0,0.0,0.0,0.0,0.0,0.0,0.0,0.0,0.0,0.0,0.0,0.0,0.0,0.0,0.0,0.0,0.0,0.0,0.0,0.0,0.0,0.0,0.0,0.0,0.0,0.0,0.0,0.0,0.0,0.0,0.0,0.0,0.0,0.0,0.0,0.0,0.0,0.0,0.0,0.0,0.0,0.0,0.0,0.0,0.0,0.0,0.0,0.0,0.0,0.0,0.0,0.0,0.0,0.0,0.0,0.0,0.0,0.0,0.0,0.0,0.0,0.0,0.0,0.0,0.0,0.0,0.0,0.0,0.0,0.0,0.0,0.0,0.0,0.0,0.0,0.0,0.0,0.0,0.0,0.0,0.0,0.0,0.0,0.0,0.0,2.5278,2.5278,2.5278,0.0,0.0,0.0,0.0,0.0,0.0,0.0,0.0,0.0,0.0,0.0,0.0,0.0,0.0,0.0,0.0,0.0,0.0,0.0,0.0,0.0,0.0,0.0,0.0,0.0,0.0,0.0,0.0,0.0,0.0,0.0,0.0,0.0,0.0,0.0,0.0,0.0,0.0,0.0,0.0,0.0,0.0,0.0,0.0,0.0,0.0,0.0,0.0,0.0,0.0,0.0,0.0,0.0,0.0,0.0,0.0,0.0,0.0,0.0,0.0,0.0,0.0,0.0,0.0,0.0,0.0,0.0,0.0,0.0,0.0,0.0,0.0,0.0,0.0,0.0,0.0,0.0,0.0,0.0,0.0,0.0,0.0,0.0,0.0,0.0,0.0,0.0,0.0,0.0,0.0,0.0,0.0,0.0,0.0,0.0,0.0,0.0,0.0,0.0,0.0,0.0,0.0,0.0,0.0,0.0,0.0,0.0,0.0,0.0,0.0,2.5278,2.5278,2.5278,0.0,2.5278,0.0,0.0,0.0,0.0,0.0,0.0,0.0,0.0,0.0,0.0,0.0,0.0,0.0,0.0,0.0,0.0,0.0,0.0,0.0,0.0,0.0,0.0,0.0,0.0,0.0,0.0,0.0,0.0,0.0,0.0,0.0,0.0,0.0,0.0,0.0,0.0,0.0,0.0,0.0,0.0,0.0,0.0,0.0,0.0,0.0,0.0,0.0,0.0,0.0,0.0,0.0,0.0,0.0,0.0,0.0,0.0,0.0,0.0,0.0,0.0,0.0,0.0,0.0,0.0,0.0,0.0,0.0,0.0,0.0,0.0,0.0,0.0,0.0,0.0,0.0,0.0,0.0,0.0,0.0,0.0,0.0,0.0,0.0,0.0,0.0,0.0,0.0,0.0,0.0,0.0,0.0,0.0,0.0,0.0,0.0,0.0,0.0,0.0,0.0,0.0,0.0,0.0,0.0,0.0,0.0,0.0,0.0,0.0,0.0,0.0,2.5584,2.5659,2.5659,2.5659,0.0,0.0,0.0,0.0,0.0,0.0,0.0,0.0,0.0,0.0,0.0,0.0,0.0,0.0,0.0,0.0,0.0,0.0,0.0,0.0,0.0,0.0,0.0,0.0,0.0,0.0,0.0,0.0,0.0,0.0,0.0,0.0,0.0,0.0,0.0,0.0,0.0,0.0,0.0,0.0,0.0,0.0,0.0,0.0,0.0,0.0,0.0,0.0,0.0,0.0,0.0,0.0,0.0,0.0,0.0,0.0,0.0,0.0,0.0,0.0,0.0,0.0,0.0,0.0,0.0,0.0,0.0,0.0,0.0,0.0,0.0,0.0,0.0,0.0,0.0,0.0,0.0,0.0,0.0,0.0,0.0,0.0,0.0,0.0,0.0,0.0,0.0,0.0,0.0,0.0,0.0,0.0,0.0,0.0,0.0,0.0,0.0,0.0,0.0,0.0,0.0,0.0,0.0,0.0,0.0,0.0,0.0,0.0,0.0,0.0,2.5933,2.6101,2.6176,2.5979,2.5917,2.5914,0.0,0.0,0.0,0.0,0.0,0.0,0.0,0.0,0.0,0.0,0.0,0.0,0.0,0.0,0.0,0.0,0.0,0.0,0.0,0.0,0.0,0.0,0.0,0.0,0.0,0.0,0.0,0.0,0.0,0.0,0.0,0.0,0.0,0.0,0.0,0.0,0.0,0.0,0.0,0.0,0.0,0.0,0.0,0.0,0.0,0.0,0.0,0.0,0.0,0.0,0.0,0.0,0.0,0.0,0.0,0.0,0.0,0.0,0.0,0.0,0.0,0.0,0.0,0.0,0.0,0.0,0.0,0.0,0.0,0.0,0.0,0.0,0.0,0.0,0.0,0.0,0.0,0.0,0.0,0.0,0.0,0.0,0.0,0.0,0.0,0.0,0.0,0.0,0.0,0.0,0.0,0.0,0.0,0.0,0.0,0.0,0.0,0.0,0.0,0.0,0.0,0.0,0.0,0.0,0.0,0.0,0.0,0.0,2.5946,2.6602,2.6929,2.6967,2.6274,2.595,0.0,0.0,0.0,0.0,0.0,0.0,0.0,0.0,0.0,0.0,0.0,0.0,0.0,0.0,0.0,0.0,0.0,0.0,0.0,0.0,0.0,0.0,0.0,0.0,0.0,0.0,0.0,0.0,0.0,0.0,0.0,0.0,0.0,0.0,0.0,0.0,0.0,0.0,0.0,0.0,0.0,0.0,0.0,0.0,0.0,0.0,0.0,0.0,0.0,0.0,0.0,0.0,0.0,0.0,0.0,0.0,0.0,0.0,0.0,0.0,0.0,0.0,0.0,0.0,0.0,0.0,0.0,0.0,0.0,0.0,0.0,0.0,0.0,0.0,0.0,0.0,0.0,0.0,0.0,0.0,0.0,0.0,0.0,0.0,0.0,0.0,0.0,0.0,0.0,0.0,0.0,0.0,0.0,0.0,0.0,0.0,0.0,0.0,0.0,0.0,0.0,0.0,0.0,0.0,0.0,0.0,0.0,0.0,0.0,2.7486,2.7783,2.7916,2.7916,2.7651,2.7519,0.0,0.0,0.0,0.0,0.0,0.0,0.0,0.0,0.0,0.0,0.0,0.0,0.0,0.0,0.0,0.0,0.0,0.0,0.0,0.0,0.0,0.0,0.0,0.0,0.0,0.0,0.0,0.0,0.0,0.0,0.0,0.0,0.0,0.0,0.0,0.0,0.0,0.0,0.0,0.0,0.0,0.0,0.0,0.0,0.0,0.0,0.0,0.0,0.0,0.0,0.0,0.0,0.0,0.0,0.0,0.0,0.0,0.0,0.0,0.0,0.0,0.0,0.0,0.0,0.0,0.0,0.0,0.0,0.0,0.0,0.0,0.0,0.0,0.0,0.0,0.0,0.0,0.0,0.0,0.0,0.0,0.0,0.0,0.0,0.0,0.0,0.0,0.0,0.0,0.0,0.0,0.0,0.0,0.0,0.0,0.0,0.0,0.0,0.0,0.0,0.0,0.0,0.0,0.0,0.0,0.0,0.0,0.0,0.0,2.9098,0.0,2.8938,2.917,2.8971,2.8738,0.0,0.0,0.0,0.0,0.0,0.0,0.0,0.0,0.0,0.0,0.0,0.0,0.0,0.0,0.0,0.0,0.0,0.0,0.0,0.0,0.0,0.0,0.0,0.0,0.0,0.0,0.0,0.0,0.0,0.0,0.0,0.0,0.0,0.0,0.0,0.0,0.0,0.0,0.0,0.0,0.0,0.0,0.0,0.0,0.0,0.0,0.0,0.0,0.0,0.0,0.0,0.0,0.0,0.0,0.0,0.0,0.0,0.0,0.0,0.0,0.0,0.0,0.0,0.0,0.0,0.0,0.0,0.0,0.0,0.0,0.0,0.0,0.0,0.0,0.0,0.0,0.0,0.0,0.0,0.0,0.0,0.0,0.0,0.0,0.0,0.0,0.0,0.0,0.0,0.0,0.0,0.0,0.0,0.0,0.0,0.0,0.0,0.0,0.0,0.0,0.0,0.0,0.0,0.0,0.0,0.0,0.0,0.0,2.9264,3.0642,3.0162,3.0241,3.0878,3.0275,2.946,0.0,0.0,0.0,0.0,0.0,0.0,0.0,0.0,0.0,0.0,0.0,0.0,0.0,0.0,0.0,0.0,0.0,0.0,0.0,0.0,0.0,0.0,0.0,0.0,0.0,0.0,0.0,0.0,0.0,0.0,0.0,0.0,0.0,0.0,0.0,0.0,0.0,0.0,0.0,0.0,0.0,0.0,0.0,0.0,0.0,0.0,0.0,0.0,0.0,0.0,0.0,0.0,0.0,0.0,0.0,0.0,0.0,0.0,0.0,0.0,0.0,0.0,0.0,0.0,0.0,0.0,0.0,0.0,0.0,0.0,0.0,0.0,0.0,0.0,0.0,0.0,0.0,0.0,0.0,0.0,0.0,0.0,0.0,0.0,0.0,0.0,0.0,0.0,0.0,0.0,0.0,0.0,0.0,0.0,0.0,0.0,0.0,0.0,0.0,0.0,0.0,0.0,0.0,0.0,0.0,0.0,0.0,0.0,0.0,3.3071,3.2412,3.242,3.3125,3.2454,3.1708,0.0,0.0,0.0,0.0,0.0,0.0,0.0,0.0,0.0,0.0,0.0,0.0,0.0,0.0,0.0,0.0,0.0,0.0,0.0,0.0,0.0,0.0,0.0,0.0,0.0,0.0,0.0,0.0,0.0,0.0,0.0,0.0,0.0,0.0,0.0,0.0,0.0,0.0,0.0,0.0,0.0,0.0,0.0,0.0,0.0,0.0,0.0,0.0,0.0,0.0,0.0,0.0,0.0,0.0,0.0,0.0,0.0,0.0,0.0,0.0,0.0,0.0,0.0,0.0,0.0,0.0,0.0,0.0,0.0,0.0,0.0,0.0,0.0,0.0,0.0,0.0,0.0,0.0,0.0,0.0,0.0,0.0,0.0,0.0,0.0,0.0,0.0,0.0,0.0,0.0,0.0,0.0,0.0,0.0,0.0,0.0,0.0,0.0,0.0,0.0,0.0,0.0,0.0,0.0,0.0,0.0,0.0,0.0,0.0,3.5946,3.5004,3.4701,3.5172,3.4465,3.3681,3.2899,0.0,0.0,0.0,0.0,0.0,0.0,0.0,0.0,0.0,0.0,0.0,0.0,0.0,0.0,0.0,0.0,0.0,0.0,0.0,0.0,0.0,0.0,0.0,0.0,0.0,0.0,0.0,0.0,0.0,0.0,0.0,0.0,0.0,0.0,0.0,0.0,0.0,0.0,0.0,0.0,0.0,0.0,0.0,0.0,0.0,0.0,0.0,0.0,0.0,0.0,0.0,0.0,0.0,0.0,0.0,0.0,0.0,0.0,0.0,0.0,0.0,0.0,0.0,0.0,0.0,0.0,0.0,0.0,0.0,0.0,0.0,0.0,0.0,0.0,0.0,0.0,0.0,0.0,0.0,0.0,0.0,0.0,0.0,0.0,0.0,0.0,0.0,0.0,0.0,0.0,0.0,0.0,0.0,0.0,0.0,0.0,0.0,0.0,0.0,0.0,0.0,0.0,0.0,0.0,0.0,0.0,0.0,0.0,3.9039,3.7719,3.6975,3.6874,3.6129,3.5341,0.0,0.0,0.0,0.0,0.0,0.0,0.0,0.0,0.0,0.0,0.0,0.0,0.0,0.0,0.0,0.0,0.0,0.0,0.0,0.0,0.0,0.0,0.0,0.0,0.0,0.0,0.0,0.0,0.0,0.0,0.0,0.0,0.0,0.0,0.0,0.0,0.0,0.0,0.0,0.0,0.0,0.0,0.0,0.0,0.0,0.0,0.0,0.0,0.0,0.0,0.0,0.0,0.0,0.0,0.0,0.0,0.0,0.0,0.0,0.0,0.0,0.0,0.0,0.0,0.0,0.0,0.0,0.0,0.0,0.0,0.0,0.0,0.0,0.0,0.0,0.0,0.0,0.0,0.0,0.0,0.0,0.0,0.0,0.0,0.0,0.0,0.0,0.0,0.0,0.0,0.0,0.0,0.0,0.0,0.0,0.0,0.0,0.0,0.0,0.0,0.0,0.0,0.0,0.0,0.0,0.0,0.0,0.0,0.0,3.9749,3.9952,3.9512,3.8464,3.7686,3.6624,0.0,0.0,0.0,0.0,0.0,0.0,0.0,0.0,0.0,0.0,0.0,0.0,0.0,0.0,0.0,0.0,0.0,0.0,0.0,0.0,0.0,0.0,0.0,0.0,0.0,0.0,0.0,0.0,0.0,0.0,0.0,0.0,0.0,0.0,0.0,0.0,0.0,0.0,0.0,0.0,0.0,0.0,0.0,0.0,0.0,0.0,0.0,0.0,0.0,0.0,0.0,0.0,0.0,0.0,0.0,0.0,0.0,0.0,0.0,0.0,0.0,0.0,0.0,0.0,0.0,0.0,0.0,0.0,0.0,0.0,0.0,0.0,0.0,0.0,0.0,0.0,0.0,0.0,0.0,0.0,0.0,0.0,0.0,0.0,0.0,0.0,0.0,0.0,0.0,0.0,0.0,0.0,0.0,0.0,0.0,0.0,0.0,0.0,0.0,0.0,0.0,0.0,0.0,0.0,0.0,0.0,0.0,0.0,3.9817,4.0561,4.1271,4.1238,4.0392,3.9377,3.8261,0.0,0.0,0.0,0.0,0.0,0.0,0.0,0.0,0.0,0.0,0.0,0.0,0.0,0.0,0.0,0.0,0.0,0.0,0.0,0.0,0.0,0.0,0.0,0.0,0.0,0.0,0.0,0.0,0.0,0.0,0.0,0.0,0.0,0.0,0.0,0.0,0.0,0.0,0.0,0.0,0.0,0.0,0.0,0.0,0.0,0.0,0.0,0.0,0.0,0.0,0.0,0.0,0.0,0.0,0.0,0.0,0.0,0.0,0.0,0.0,0.0,0.0,0.0,0.0,0.0,0.0,0.0,0.0,0.0,0.0,0.0,0.0,0.0,0.0,0.0,0.0,0.0,0.0,0.0,0.0,0.0,0.0,0.0,0.0,0.0,0.0,0.0,0.0,0.0,0.0,0.0,0.0,0.0,0.0,0.0,0.0,0.0,0.0,0.0,0.0,0.0,0.0,0.0,0.0,0.0,0.0,0.0,0.0,4.0595,4.1441,4.2083,4.2388,4.2354,4.1001,3.9884,0.0,0.0,0.0,0.0,0.0,0.0,0.0,0.0,0.0,0.0,0.0,0.0,0.0,0.0,0.0,0.0,0.0,0.0,0.0,0.0,0.0,0.0,0.0,0.0,0.0,0.0,0.0,0.0,0.0,0.0,0.0,0.0,0.0,0.0,0.0,0.0,0.0,0.0,0.0,0.0,0.0,0.0,0.0,0.0,0.0,0.0,0.0,0.0,0.0,0.0,0.0,0.0,0.0,0.0,0.0,0.0,0.0,0.0,0.0,0.0,0.0,0.0,0.0,0.0,0.0,0.0,0.0,0.0,0.0,0.0,0.0,0.0,0.0,0.0,0.0,0.0,0.0,0.0,0.0,0.0,0.0,0.0,0.0,0.0,0.0,0.0,0.0,0.0,0.0,0.0,0.0,0.0,0.0,0.0,0.0,0.0,0.0,0.0,0.0,0.0,0.0,0.0,0.0,0.0,0.0,0.0,0.0,0.0,4.161,4.2895,4.3098,4.3166,4.3166,4.1745,4.0629,0.0,0.0,0.0,0.0,0.0,0.0,0.0,0.0,0.0,0.0,0.0,0.0,0.0,0.0,0.0,0.0,0.0,0.0,0.0,0.0,0.0,0.0,0.0,0.0,0.0,0.0,0.0,0.0,0.0,0.0,0.0,0.0,0.0,0.0,0.0,0.0,0.0,0.0,0.0,0.0,0.0,0.0,0.0,0.0,0.0,0.0,0.0,0.0,3.5696,0.0,0.0,0.0,0.0,0.0,0.0,0.0,0.0,0.0,0.0,0.0,0.0,0.0,0.0,0.0,0.0,0.0,0.0,0.0,0.0,0.0,0.0,0.0,0.0,0.0,0.0,0.0,0.0,0.0,0.0,0.0,0.0,0.0,0.0,0.0,0.0,0.0,0.0,0.0,0.0,0.0,0.0,0.0,0.0,0.0,0.0,0.0,0.0,0.0,0.0,0.0,0.0,0.0,0.0,0.0,0.0,0.0,0.0,0.0,4.2625,4.3403,4.3775,4.3978,4.391,4.2861,4.1711,0.0,0.0,0.0,0.0,0.0,0.0,0.0,0.0,0.0,0.0,0.0,0.0,0.0,0.0,0.0,0.0,0.0,0.0,0.0,0.0,0.0,0.0,0.0,0.0,0.0,0.0,0.0,0.0,0.0,0.0,0.0,0.0,0.0,0.0,0.0,0.0,0.0,0.0,0.0,0.0,0.0,0.0,0.0,0.0,0.0,0.0,0.0,0.0,0.0,0.0,0.0,0.0,0.0,0.0,0.0,0.0,0.0,0.0,0.0,0.0,0.0,0.0,0.0,0.0,0.0,0.0,0.0,0.0,0.0,0.0,0.0,0.0,0.0,0.0,0.0,0.0,0.0,0.0,0.0,0.0,0.0,0.0,0.0,0.0,0.0,0.0,0.0,0.0,0.0,0.0,0.0,0.0,0.0,0.0,0.0,0.0,0.0,0.0,0.0,0.0,0.0,0.0,0.0,0.0,0.0,0.0,0.0,4.2422,4.347,4.3606,4.4248,4.4553,4.4553,4.3842,4.2794,4.1407,0.0,0.0,0.0,0.0,0.0,0.0,0.0,0.0,0.0,0.0,0.0,0.0,0.0,0.0,0.0,0.0,0.0,0.0,0.0,0.0,0.0,0.0,0.0,0.0,0.0,0.0,0.0,0.0,0.0,0.0,0.0,0.0,0.0,0.0,0.0,0.0,0.0,0.0,3.211,3.4136,0.0,0.0,0.0,0.0,0.0,0.0,0.0,0.0,4.0326,0.0,0.0,0.0,0.0,0.0,0.0,0.0,0.0,0.0,0.0,0.0,0.0,0.0,0.0,0.0,0.0,0.0,0.0,0.0,0.0,0.0,0.0,0.0,0.0,0.0,0.0,0.0,0.0,0.0,0.0,0.0,0.0,0.0,0.0,0.0,0.0,0.0,0.0,0.0,0.0,0.0,0.0,0.0,0.0,0.0,0.0,0.0,0.0,0.0,0.0,0.0,0.0,0.0,0.0,0.0,0.0,4.1914,4.2929,4.3741,4.435,4.4519,4.4553,4.4553,4.3809,4.2997,4.2117,0.0,0.0,0.0,0.0,0.0,0.0,0.0,0.0,0.0,0.0,0.0,0.0,0.0,0.0,0.0,0.0,0.0,0.0,0.0,0.0,0.0,0.0,0.0,0.0,0.0,0.0,0.0,0.0,0.0,0.0,0.0,0.0,0.0,0.0,0.0,0.0,0.0,0.0,0.0,3.563,3.665,0.0,0.0,0.0,0.0,0.0,0.0,0.0,0.0,4.0974,0.0,0.0,0.0,0.0,0.0,0.0,0.0,0.0,0.0,0.0,0.0,0.0,0.0,0.0,0.0,0.0,0.0,0.0,0.0,0.0,0.0,0.0,0.0,0.0,0.0,0.0,0.0,0.0,0.0,0.0,0.0,0.0,0.0,0.0,0.0,0.0,0.0,0.0,0.0,0.0,0.0,0.0,0.0,0.0,0.0,0.0,0.0,0.0,0.0,0.0,0.0,0.0,0.0,0.0,0.0,4.232,4.3809,4.4587,4.4587,4.4959,4.4993,4.4587,4.4215,4.3728,0.0,0.0,0.0,0.0,0.0,0.0,0.0,0.0,0.0,0.0,0.0,0.0,0.0,0.0,0.0,0.0,0.0,0.0,0.0,0.0,0.0,0.0,0.0,0.0,0.0,0.0,0.0,0.0,0.0,0.0,0.0,0.0,0.0,0.0,0.0,0.0,0.0,0.0,0.0,0.0,3.7318,3.8484,3.885,0.0,0.0,0.0,0.0,0.0,0.0,4.3065,4.2551,0.0,0.0,0.0,0.0,0.0,0.0,0.0,0.0,0.0,0.0,0.0,0.0,0.0,0.0,0.0,0.0,0.0,0.0,0.0,0.0,0.0,0.0,0.0,0.0,0.0,0.0,0.0,0.0,0.0,0.0,0.0,0.0,0.0,0.0,0.0,0.0,0.0,0.0,0.0,0.0,0.0,0.0,0.0,0.0,0.0,0.0,0.0,0.0,0.0,0.0,0.0,0.0,0.0,0.0,0.0,4.2557,4.4485,4.5196,4.4621,4.5162,4.5196,4.4587,4.4609,4.4326,0.0,0.0,0.0,0.0,0.0,0.0,0.0,0.0,0.0,0.0,0.0,0.0,0.0,0.0,0.0,0.0,0.0,0.0,0.0,0.0,0.0,0.0,0.0,0.0,0.0,0.0,0.0,0.0,0.0,0.0,0.0,0.0,0.0,0.0,0.0,0.0,0.0,0.0,0.0,0.0,0.0,4.0165,4.0769,4.1104,0.0,0.0,0.0,0.0,4.5085,4.4566,0.0,0.0,0.0,0.0,0.0,0.0,0.0,0.0,0.0,0.0,0.0,0.0,0.0,0.0,0.0,0.0,0.0,0.0,0.0,0.0,0.0,0.0,0.0,0.0,0.0,0.0,0.0,0.0,0.0,0.0,0.0,0.0,0.0,0.0,0.0,0.0,0.0,0.0,0.0,0.0,0.0,0.0,0.0,0.0,0.0,0.0,0.0,0.0,0.0,0.0,0.0,0.0,0.0,0.0,0.0,0.0,4.3301,4.4248,4.4654,4.4587,4.4688,4.4688,4.4587,4.472,4.4436,0.0,0.0,0.0,0.0,0.0,0.0,0.0,0.0,0.0,0.0,0.0,0.0,0.0,0.0,0.0,0.0,0.0,0.0,0.0,0.0,0.0,0.0,0.0,0.0,0.0,0.0,0.0,0.0,0.0,0.0,0.0,0.0,0.0,0.0,0.0,0.0,0.0,0.0,0.0,0.0,0.0,4.0894,4.0961,4.2105,4.2959,0.0,0.0,4.4461,4.551,4.5003,0.0,0.0,0.0,0.0,0.0,0.0,0.0,0.0,0.0,0.0,0.0,0.0,0.0,0.0,0.0,0.0,0.0,0.0,0.0,0.0,0.0,0.0,0.0,0.0,0.0,0.0,0.0,0.0,0.0,0.0,0.0,0.0,0.0,0.0,0.0,0.0,0.0,0.0,0.0,0.0,0.0,0.0,0.0,0.0,0.0,0.0,0.0,0.0,0.0,0.0,0.0,0.0,0.0,0.0,0.0,4.2895,4.4079,4.5229,4.5805,4.5838,4.6244,4.6302,4.5953,4.609,4.5883,0.0,0.0,0.0,0.0,0.0,0.0,0.0,0.0,0.0,0.0,0.0,0.0,0.0,0.0,0.0,0.0,0.0,0.0,0.0,0.0,0.0,0.0,0.0,0.0,0.0,0.0,0.0,0.0,0.0,0.0,0.0,0.0,0.0,0.0,0.0,0.0,0.0,0.0,0.0,0.0,0.0,0.0,4.2213,4.2922,0.0,0.0,0.0,4.5409,4.621,0.0,0.0,0.0,0.0,0.0,0.0,0.0,0.0,0.0,0.0,0.0,0.0,0.0,0.0,0.0,0.0,0.0,0.0,0.0,0.0,0.0,0.0,0.0,0.0,0.0,0.0,0.0,0.0,0.0,0.0,0.0,0.0,0.0,0.0,0.0,0.0,0.0,0.0,0.0,0.0,0.0,0.0,0.0,0.0,0.0,0.0,0.0,0.0,0.0,0.0,0.0,0.0,0.0,0.0,0.0,0.0,0.0,4.4857,4.6143,4.6786,4.6819,4.742,4.748,4.7077,4.7273,0.0,0.0,0.0,0.0,0.0,0.0,0.0,0.0,0.0,0.0,0.0,0.0,0.0,0.0,0.0,0.0,0.0,0.0,0.0,0.0,0.0,0.0,0.0,0.0,0.0,0.0,0.0,3.6831,0.0,0.0,0.0,0.0,0.0,0.0,0.0,0.0,0.0,0.0,0.0,0.0,0.0,0.0,4.2151,4.3267,4.3572,4.391,0.0,0.0,4.5669,4.6413,4.5906,4.5669,0.0,0.0,0.0,0.0,0.0,0.0,0.0,0.0,0.0,0.0,0.0,0.0,0.0,0.0,0.0,0.0,0.0,0.0,0.0,0.0,0.0,0.0,0.0,0.0,0.0,0.0,0.0,0.0,0.0,0.0,0.0,0.0,0.0,0.0,0.0,0.0,0.0,0.0,0.0,0.0,0.0,0.0,0.0,0.0,0.0,0.0,0.0,0.0,0.0,0.0,0.0,0.0,0.0,0.0,0.0,4.5602,4.6413,4.6786,4.6786,4.6937,4.7111,4.7182,4.7498,4.7375,0.0,0.0,0.0,0.0,0.0,0.0,0.0,0.0,0.0,0.0,0.0,0.0,0.0,0.0,0.0,0.0,0.0,0.0,0.0,0.0,0.0,0.0,0.0,0.0,0.0,0.0,0.0,0.0,0.0,0.0,0.0,0.0,0.0,0.0,0.0,0.0,0.0,0.0,0.0,0.0,0.0,4.3301,4.3403,4.4045,4.4519,0.0,0.0,4.4925,4.5669,4.5162,4.4891,4.5669,0.0,0.0,0.0,0.0,0.0,0.0,0.0,0.0,0.0,0.0,0.0,0.0,0.0,0.0,0.0,0.0,0.0,0.0,0.0,0.0,0.0,0.0,0.0,0.0,0.0,0.0,0.0,0.0,0.0,0.0,0.0,0.0,0.0,0.0,0.0,0.0,0.0,0.0,0.0,0.0,0.0,0.0,0.0,0.0,0.0,0.0,0.0,0.0,0.0,0.0,0.0,0.0,0.0,4.5082,4.6462,4.7208,4.7785,4.8226,4.8439,4.8675,4.8873,4.9158,4.909,0.0,0.0,0.0,0.0,0.0,0.0,0.0,0.0,0.0,0.0,0.0,0.0,0.0,0.0,0.0,0.0,0.0,0.0,0.0,0.0,0.0,0.0,0.0,0.0,0.0,0.0,0.0,0.0,4.1789,4.1856,4.1115,0.0,0.0,0.0,0.0,0.0,0.0,0.0,0.0,0.0,0.0,4.3572,4.4079,4.4384,0.0,0.0,4.5331,4.6041,4.6312,4.6143,4.6041,4.6346,4.5128,0.0,0.0,0.0,0.0,0.0,0.0,0.0,0.0,0.0,0.0,0.0,0.0,0.0,0.0,0.0,0.0,0.0,0.0,0.0,0.0,0.0,0.0,0.0,0.0,0.0,0.0,0.0,0.0,0.0,0.0,0.0,0.0,0.0,0.0,0.0,0.0,0.0,0.0,0.0,0.0,0.0,0.0,0.0,0.0,0.0,0.0,0.0,0.0,0.0,0.0,0.0,0.0,4.5973,4.7216,4.8172,4.8865,4.9411,4.959,4.9825,5.0057,5.0341,5.029,0.0,0.0,0.0,0.0,0.0,0.0,0.0,0.0,0.0,0.0,0.0,0.0,0.0,0.0,0.0,0.0,0.0,0.0,0.0,0.0,0.0,0.0,0.0,0.0,0.0,0.0,0.0,0.0,4.2625,4.232,4.161,0.0,0.0,0.0,0.0,0.0,0.0,0.0,0.0,0.0,0.0,4.4316,4.4823,4.5094,4.5263,4.5229,4.6109,4.6786,4.6786,4.6786,4.6786,4.6786,0.0,0.0,0.0,0.0,0.0,0.0,0.0,0.0,0.0,0.0,0.0,0.0,0.0,0.0,0.0,0.0,0.0,0.0,0.0,0.0,0.0,0.0,0.0,0.0,0.0,0.0,0.0,0.0,0.0,0.0,3.7265,0.0,0.0,0.0,0.0,0.0,0.0,0.0,0.0,0.0,0.0,0.0,0.0,0.0,0.0,0.0,0.0,0.0,0.0,0.0,0.0,0.0,0.0,0.0,4.77,4.9148,4.9849,4.9849,5.0057,5.0263,5.0397,5.064,5.0559,5.0095,0.0,0.0,0.0,0.0,0.0,0.0,0.0,0.0,0.0,0.0,0.0,0.0,0.0,0.0,0.0,0.0,0.0,0.0,0.0,0.0,0.0,0.0,0.0,0.0,0.0,0.0,4.3403,4.3403,4.3064,0.0,0.0,0.0,0.0,0.0,0.0,0.0,0.0,0.0,0.0,4.4722,4.5669,4.5703,4.6278,4.6684,4.6718,4.6752,4.6786,4.6819,4.6819,4.6819,0.0,0.0,0.0,0.0,0.0,0.0,0.0,0.0,0.0,0.0,0.0,0.0,0.0,0.0,0.0,0.0,0.0,0.0,0.0,0.0,0.0,0.0,0.0,0.0,0.0,0.0,0.0,4.1815,4.1779,0.0,0.0,0.0,0.0,0.0,0.0,0.0,0.0,0.0,0.0,0.0,4.696,4.6873,0.0,0.0,0.0,0.0,0.0,0.0,0.0,0.0,0.0,0.0,0.0,0.0,4.783,4.8592,4.9652,5.0228,5.0228,5.0474,5.0675,5.0873,5.1034,5.0925,5.0495,0.0,0.0,0.0,0.0,0.0,0.0,0.0,0.0,0.0,0.0,0.0,0.0,0.0,0.0,0.0,0.0,0.0,0.0,0.0,0.0,0.0,0.0,0.0,0.0,0.0,4.3639,0.0,0.0,0.0,0.0,0.0,0.0,0.0,0.0,0.0,0.0,0.0,4.3809,4.4823,4.5365,4.5872,4.638,4.6616,4.6786,0.0,0.0,0.0,0.0,0.0,0.0,0.0,0.0,0.0,0.0,0.0,0.0,0.0,0.0,4.4767,4.3137,4.336,4.3811,4.4169,0.0,0.0,0.0,0.0,0.0,0.0,0.0,0.0,0.0,0.0,0.0,0.0,0.0,0.0,0.0,0.0,4.4306,0.0,0.0,0.0,0.0,0.0,0.0,0.0,0.0,4.8627,4.9153,4.9153,4.9073,4.9028,0.0,4.8353,4.7384,0.0,0.0,0.0,0.0,0.0,0.0,0.0,0.0,4.8977,4.9485,5.0363,5.0838,5.0838,5.1017,5.1158,5.1298,5.1505,5.1472,5.1263,5.1106,5.0207,0.0,0.0,0.0,0.0,0.0,0.0,0.0,0.0,0.0,0.0,0.0,0.0,0.0,0.0,0.0,0.0,0.0,0.0,0.0,0.0,0.0,0.0,0.0,4.4012,0.0,0.0,0.0,0.0,0.0,0.0,0.0,0.0,0.0,4.4215,4.4215,4.4688,4.5906,4.6312,4.665,4.7124,0.0,0.0,0.0,0.0,0.0,0.0,0.0,4.9052,4.9052,4.8646,4.824,4.797,4.7936,4.7834,4.7597,0.0,0.0,4.4959,4.4993,4.55,4.5857,4.6178,4.6455,4.6274,4.6386,4.6591,0.0,0.0,0.0,0.0,0.0,0.0,0.0,0.0,4.5736,4.6104,0.0,4.6104,0.0,0.0,0.0,0.0,0.0,0.0,0.0,0.0,5.001,5.0294,5.0206,5.0073,4.9992,4.9992,4.9856,4.9765,4.9657,4.79,0.0,0.0,0.0,0.0,0.0,0.0,5.0297,5.0368,5.1215,5.1708,5.1708,5.1708,5.1708,5.1708,5.1956,5.215,5.2257,5.1535,5.1148,5.1076,4.8812,0.0,0.0,0.0,0.0,0.0,0.0,0.0,0.0,0.0,0.0,0.0,0.0,0.0,0.0,0.0,0.0,0.0,0.0,0.0,0.0,4.4292,0.0,0.0,0.0,0.0,0.0,0.0,0.0,0.0,0.0,0.0,4.5771,4.5737,4.6007,4.6718,0.0,0.0,0.0,0.0,4.9323,4.9999,5.0135,5.0371,5.1082,5.1183,5.1183,5.1183,0.0,0.0,5.0236,5.0101,4.9864,4.9221,4.9086,4.8612,4.7225,4.6921,4.6955,4.6955,4.6903,4.6683,4.6716,4.7334,4.7843,4.8012,0.0,0.0,0.0,0.0,4.6948,4.7609,4.8196,4.904,4.9407,4.9407,4.9407,0.0,0.0,0.0,0.0,0.0,0.0,5.0853,5.1067,5.1784,5.2025,5.2025,5.1891,5.181,5.181,5.171,5.17,5.17,5.1045,5.0221,4.9267,0.0,0.0,0.0,0.0,5.0731,5.1265,5.1651,5.1858,5.1858,5.1956,5.2005,5.2005,5.215,5.2246,5.2329,5.217,5.1818,5.1276,5.0498,0.0,0.0,0.0,0.0,0.0,0.0,0.0,0.0,0.0,0.0,0.0,0.0,0.0,0.0,0.0,0.0,0.0,0.0,0.0,4.5307,4.5343,4.5162,0.0,0.0,0.0,0.0,0.0,0.0,0.0,0.0,0.0,4.7124,4.6819,4.6752,0.0,0.0,4.8883,4.939,5.0101,5.0676,5.0845,0.0,0.0,0.0,5.1217,5.1217,5.1217,5.1217,5.115,5.0947,5.0913,5.0845,5.0642,5.0574,5.0439,5.0067,4.9492,4.9187,4.9187,4.9497,4.9805,4.9776,4.988,4.9984,5.1169,4.9444,4.8306,4.8122,4.86,4.9077,4.9554,5.0031,5.0582,5.0802,5.0802,5.0802,5.0508,5.0031,5.0068,0.0,0.0,0.0,5.2035,5.2285,5.2674,5.285,5.2806,5.268,5.2717,5.268,5.2663,5.2618,5.2618,5.2526,5.1927,5.0895,0.0,0.0,5.1251,5.1239,5.1454,5.1956,5.2377,5.2618,5.2618,5.299,5.3039,5.2714,5.281,5.2665,5.2423,5.2434,5.2263,5.1792,5.1384,5.0507,0.0,0.0,0.0,0.0,0.0,0.0,0.0,0.0,0.0,0.0,0.0,4.3953,0.0,0.0,0.0,0.0,4.7108,4.69,4.6476,4.6282,0.0,0.0,0.0,0.0,0.0,0.0,0.0,4.6109,4.665,4.7327,4.824,4.8477,4.8612,4.8781,4.9424,5.0033,5.0473,0.0,5.1758,5.2063,5.2367,5.2672,5.2942,5.301,5.301,5.301,5.301,5.301,5.301,5.301,5.301,5.301,5.301,5.301,5.301,5.2604,5.186,5.0811,5.0879,5.122,5.1459,5.1796,5.2,5.4252,5.3445,5.194,5.1206,5.1096,5.1096,5.1096,5.1169,5.1206,5.1169,5.1169,5.1169,5.1169,5.1169,5.1169,0.0,0.0,5.227,5.2632,5.3207,5.3207,5.3156,5.2988,5.2988,5.2988,5.3024,5.2988,5.2988,5.3024,5.3024,5.2943,5.2772,5.2485,5.2294,5.2222,5.2354,5.2437,5.2546,5.3374,5.3784,5.382,5.4508,5.4544,5.382,5.3784,5.3458,5.2733,5.2697,5.2661,5.2552,5.1864,5.143,5.1249,0.0,0.0,0.0,0.0,0.0,0.0,0.0,0.0,0.0,0.0,0.0,0.0,0.0,0.0,0.0,4.824,0.0,4.7398,4.7169,0.0,0.0,0.0,4.6786,4.6786,4.6786,4.6853,4.6955,0.0,0.0,4.9187,0.0,5.1048,5.0439,5.0947,5.1386,5.142,5.2097,5.2841,5.3585,5.4228,5.4905,5.531,5.5446,5.5412,5.5412,5.5716,5.5547,5.5547,5.5547,5.5649,5.5513,5.5683,5.5615,5.5683,5.548,5.4871,5.2131,5.1691,5.186,5.257,5.3213,5.3856,5.7042,5.6748,5.5794,5.4656,5.3555,5.3555,5.3885,5.4436,5.4436,5.4436,5.4436,5.4436,5.4436,5.4436,5.4436,5.4546,5.473,5.473,5.484,5.4943,5.4979,5.4979,5.4899,5.481,5.4765,5.4765,5.4675,5.4629,5.4629,5.4629,5.4629,5.4583,5.4397,5.3965,5.3327,5.3374,5.3664,5.4279,5.4544,5.4617,5.4617,5.4798,5.4834,5.4617,5.4617,5.4508,5.4327,5.4327,5.4037,5.3458,5.3241,5.2552,5.1357,5.0741,0.0,0.0,0.0,0.0,0.0,0.0,0.0,0.0,0.0,4.7546,4.8872,0.0,5.0044,0.0,4.9978,4.9542,4.8506,4.822,0.0,0.0,4.6844,4.6786,4.6786,4.6786,4.7225,4.8342,4.8781,4.9424,5.0541,5.1488,5.2232,5.2604,5.2841,5.2942,5.2976,5.4093,5.4972,5.5141,5.5344,5.5513,5.5716,5.5716,5.575,5.5716,5.5716,5.5716,5.5716,5.5716,5.5716,5.5716,5.5716,5.5716,5.575,5.5716,5.5547,5.4803,5.4634,5.4702,5.4871,5.504,5.5243,5.9061,5.9024,5.8584,5.7886,5.6969,5.5537,5.517,5.5574,5.5611,5.5611,5.5611,5.5611,5.5611,5.5611,5.5611,5.5611,5.5611,5.5611,5.5611,5.5611,5.5611,5.5611,5.5611,5.553,5.5485,5.5485,5.5395,5.5395,5.5395,5.5395,5.535,5.5304,5.5212,5.5083,5.4821,5.4447,5.4472,5.4907,5.5233,5.5558,5.5921,5.5921,5.574,5.5414,5.5377,5.5233,5.4907,5.4907,5.4689,5.4255,5.3892,5.3313,5.2408,5.1683,5.0923,0.0,0.0,0.0,0.0,0.0,0.0,0.0,0.0,0.0,0.0,0.0,5.1275,0.0,5.077,5.0355,4.9526,4.9206,4.8744,4.8039,4.8252,4.8395,4.8274,4.8578,4.9086,4.9898,5.027,5.0913,5.2097,5.2875,5.3619,5.4397,5.4769,5.4871,5.4634,5.548,5.619,5.619,5.6494,5.6697,5.6664,5.6697,5.6697,5.6664,5.6697,5.6664,5.6697,5.6697,5.6697,5.6697,5.6697,5.6697,5.6697,5.6664,5.6697,5.6697,5.6697,5.6562,5.6292,5.6224,5.6258,6.0761,6.0761,6.0651,6.0566,6.0346,5.7446,5.6198,5.6198,5.6198,5.6198,5.6198,5.6198,5.6198,5.6198,5.6088,5.6051,5.6051,5.5941,5.5904,5.5904,5.5904,5.5904,5.5904,5.6014,5.6051,5.6051,5.6161,5.6198,5.6198,5.6198,5.6153,5.6063,5.6017,5.6254,5.6637,5.5958,5.5462,5.5233,5.5921,5.6645,5.7333,5.7442,5.7152,5.65,5.6464,5.6102,5.5377,5.5341,5.5269,5.5051,5.4363,5.3929,5.382,5.2516,5.1719,0.0,5.0923,0.0,0.0,0.0,0.0,0.0,0.0,0.0,0.0,5.1896,5.2054,5.1556,5.1176,5.0869,5.0459,5.0299,5.0042,4.9657,5.0175,5.0521,5.0299,5.0811,5.1251,5.1352,5.1995,5.2773,5.3518,5.4262,5.5006,5.5716,5.6258,5.6427,5.6156,5.6528,5.6934,5.6934,5.7476,5.7712,5.7746,5.7814,5.778,5.7814,5.778,5.7881,5.7814,5.7814,5.7848,5.7814,5.778,5.7814,5.7881,5.7848,5.7848,5.778,5.7746,5.7577,5.7103,5.6934,5.7137,6.2656,6.262,6.1824,6.1518,6.1408,6.0063,5.9501,5.9501,5.9501,5.9501,5.9501,5.9501,5.9501,5.9465,5.8804,5.8547,5.851,5.785,5.7556,5.7556,5.7556,5.7556,5.7556,5.8217,5.851,5.8584,5.9171,5.9501,5.9501,5.9501,5.9501,5.9454,5.9322,5.9383,5.9445,0.0,0.0,0.0,5.7514,5.8021,5.8202,5.8818,5.9072,5.8927,5.8927,0.0,5.7804,5.7732,5.7116,5.5884,5.5631,0.0,0.0,0.0,0.0,0.0,0.0,0.0,0.0,0.0,0.0,0.0,5.3856,5.3628,5.2361,5.2173,5.2005,5.1708,5.1934,5.1915,5.1507,5.1813,5.1924,5.1649,5.1542,5.1458,5.1269,5.1342,5.1613,5.2029,5.2807,5.3551,5.4329,5.504,5.5784,5.6461,5.6731,5.7002,5.7408,5.7543,5.7679,5.7679,5.778,5.7881,5.7881,5.7881,5.7881,5.7881,5.7881,5.7881,5.7881,5.7881,5.7881,5.7881,5.7881,5.7881,5.7881,5.7881,5.7915,5.7881,5.7915,5.7848,5.7712,5.7679,5.7712,6.3336,0.0,6.2798,6.2604,0.0,6.1971,6.1691,6.1617,6.0798,6.0419,6.0419,6.0419,6.0419,6.0382,5.9979,5.9795,5.9795,5.9355,5.9171,5.9208,5.9171,5.9171,5.9208,5.9612,5.9795,5.9832,6.0199,6.0419,6.0419,6.0419,6.0419,6.0419,6.0334,6.0237,6.0188,6.009,5.9539,5.8587,5.8936,5.9103,5.9103,5.945,5.9615,5.9615,0.0,0.0,0.0,0.0,0.0,0.0,0.0,0.0,0.0,0.0,0.0,5.4327,5.4291,5.411,5.3748,5.4074,5.4291,5.4327,5.4689,5.4544,5.3748,5.3448,5.3253,5.2952,5.3051,5.2944,5.2537,5.2602,5.2636,5.2399,5.2502,5.2495,5.234,5.2827,5.3241,5.3516,5.4161,5.4871,5.5581,5.5987,5.6528,5.7205,5.734,5.7476,5.7814,5.7881,5.7881,5.7881,5.7881,5.7881,5.7881,5.7881,5.7881,5.7881,5.7881,5.7881,5.7881,5.7881,5.7881,5.7881,5.7881,5.7881,5.7915,5.8152,5.8457,5.849,5.8727,5.8964,5.893,5.8423,5.7881,6.3519,6.3647,6.3474,6.3465,6.3419,6.3194,6.3051,6.2892,0.0,0.0,0.0,6.0823,6.0823,6.0823,6.0676,6.0603,6.0603,6.0456,6.0419,6.0419,6.0419,6.0419,6.0419,6.0529,6.0603,6.0639,6.075,6.0823,6.0823,6.0823,6.0823,6.0823,6.0823,6.0774,6.0677,6.0578,6.0528,6.0441,6.0194,6.0056,6.0056,6.0098,6.0066,6.0066,6.0066,5.9994,5.9885,5.9832,5.9434,5.8673,5.7985,5.7333,5.6645,5.6066,5.5667,5.5558,5.5522,5.545,5.5305,5.5305,5.5305,5.5305,5.5305,5.5196,5.4943,5.4809,5.4575,5.4287,5.4135,5.3921,5.3535,5.3449,5.3288,5.3053,5.3567,5.3804,5.3714,5.449,5.5076,5.5145,5.5586,5.6193,5.6735,5.6972,5.7205,5.7712,5.7814,5.7881,5.7881,5.7881,5.7881,5.7881,5.7881,5.7881,5.7881,5.7881,5.7881,5.7881,5.7881,5.7881,5.7881,5.7983,5.8084,5.8152,5.8152,5.8321,5.8321,5.8829,5.9201,5.9201,5.9674,6.008,5.9979,5.9133,5.8389,6.383,6.383,6.378,6.3691,6.3557,6.3382,6.3194,6.2965,6.2598,6.2475,6.2475,6.2475,6.2475,6.2438,6.1741,6.141,6.1374,6.0713,6.0419,0.0,6.0419,6.0419,6.0456,6.1117,6.1447,6.1484,6.2108,6.2475,6.2475,6.2475,6.2475,6.2475,6.2475,6.2438,6.2425,6.2425,6.2425,6.2425,6.1478,6.0996,6.0996,6.1652,6.2016,6.2016,6.1822,6.1478,6.084,6.0682,6.0267,5.947,5.9325,5.9216,5.9108,5.8927,5.8637,5.7985,5.7913,5.7623,5.6935,5.6862,5.6862,5.6899,5.6899,5.6319,5.5051,5.4809,5.4625,5.4511,5.4864,5.4919,5.4792,5.5001,5.5133,5.5108,5.5497,5.5702,5.5479,5.6046,5.6466,5.6267,5.6816,5.7121,5.7151,5.7627,5.7929,5.792,5.7954,5.7954,5.7954,5.7881,5.7881,5.7881,5.7881,5.7881,5.7881,5.7881,5.7915,5.7881,5.7949,5.7983,5.8084,5.849,5.8829,5.8863,5.9268,5.9607,5.9674,5.9844,5.9945,5.9979,6.0148,6.025,6.0283,5.9979,5.9776,6.4206,6.4247,6.4166,6.4079,6.3953,6.3647,6.3373,6.3099,6.2953,6.2855,6.2805,6.2805,6.2805,6.2805,6.2438,6.2254,6.2254,6.1887,6.1704,6.1704,6.1704,6.1741,6.1741,6.2108,6.2254,6.2291,6.2622,6.2805,6.2805,6.2805,6.2805,6.2805,6.2805,6.2805,6.2805,6.2805,6.2805,6.2805,6.2237,6.1953,6.1953,6.2214,6.2433,6.2433,6.2291,6.2146,6.1782,6.1693,6.1277,6.0372,6.0336,6.0155,5.9651,5.9615,5.9434,5.9072,5.9035,5.8891,5.8528,5.8492,5.8492,5.8492,5.8492,5.8202,5.7514,5.6595,5.5988,5.5923,5.64,5.6653,5.6545,5.6887,5.7152,5.7152,5.7113,5.7017,5.7025,5.73,5.7524,5.7527,5.7912,5.8152,5.8013,5.8251,5.8385,5.8243,5.8171,5.8277,5.8171,5.8205,5.8133,5.7954,5.7881,5.7881,5.7881,5.7881,5.8051,5.8423,5.849,5.866,5.8964,5.9438,5.9573,5.9607,5.9911,6.0047,6.0114,6.0486,6.0689,6.0791,6.1129,6.1264,6.1332,6.1332,6.1197,6.4596,6.4671,6.4521,6.4366,6.4244,6.3823,6.3511,6.3326,6.3331,6.3309,6.3162,6.2965,6.2805,6.2805,6.2805,6.2805,6.2805,6.2805,6.2805,6.2805,6.2805,6.2805,6.2842,6.2989,6.3099,6.3135,6.3282,6.3356,6.3356,6.3392,6.3356,6.3392,6.3356,6.3392,6.3392,6.3356,6.3392,6.3356,6.3108,6.2837,6.2654,6.2552,6.25,6.2449,6.2485,6.2449,6.2485,6.2397,6.2053,6.1365,6.124,6.0933,6.0247,6.0158,6.0086,5.9905,5.9868,5.9796,5.9615,5.9615,5.9615,5.9615,5.9615,5.9615,5.9506,5.8492,5.7681,5.765,5.7962,5.8251,5.8178,5.8366,5.8588,5.853,5.8355,5.8219,5.8229,5.8485,5.8681,5.872,5.9004,5.9114,5.8909,5.8841,5.8806,5.8667,5.8631,5.8631,5.8631,5.8734,5.8658,5.8443,5.8298,5.8259,5.8152,5.8355,5.866,5.9201,5.9268,5.9471,5.9911,6.0182,6.0351,6.0385,6.0554,6.0723,6.0723,6.1095,6.1467,6.1569,6.1907,6.2279,6.2245,6.2279,6.2212,6.4853,6.4853,6.4743,6.4521,6.4322,6.3947,6.3854,6.384,6.4253,6.4446,6.4325,6.3284,6.2879,6.2805,6.2879,6.2915,6.2879,6.2842,6.2879,6.2879,6.2805,6.2805,6.2989,6.3613,6.398,6.4053,6.464,6.4934,6.4934,6.5007,6.5044,6.5081,6.5081,6.5007,6.5044,6.5044,6.5044,6.5081,6.4347,6.3613,6.2828,6.2755,6.2755,6.2755,6.2654,6.2603,6.2603,6.2449,6.2397,6.2271,6.2129,6.204,6.1914,6.1806,6.1462,6.0774,6.0701,6.0412,5.9724,5.9615,5.9687,5.9615,5.9687,5.9687,5.9687,5.9506,5.9398,5.9345,5.9311,5.9294,5.924,5.9166,5.9051,5.9009,5.9277,5.9455,5.937,5.9726,6.0093,6.0093,5.9873,5.9683,5.9516,5.9317,5.9183,5.915,5.9082,5.9151,5.9254,5.9598,5.9801,5.9624,5.9443,5.9152,5.9072,5.9505,5.9817,6.002,6.0013,6.0148,6.0385,6.0825,6.1197,6.1231,6.1637,6.1941,6.2009,6.2279,6.2212,6.2144,6.2279,6.2415,6.2415,6.2415,6.2313,6.5783,6.5745,6.5217,6.5118,6.5237,6.5482,6.5534,6.5447,6.5485,6.5543,6.5459,6.4879,6.4525,6.4375,6.4375,6.4324,6.4273,6.4273,6.431,6.431,6.431,6.431,6.4347,6.464,6.4787,6.4824,6.5154,6.5338,6.5338,6.5338,6.5338,6.5338,6.5338,6.5338,6.5338,6.5338,6.5338,6.5301,6.4971,6.464,6.42,6.3319,6.2805,6.2805,6.2755,6.2705,6.2705,6.2654,6.2603,6.25,6.2449,6.2344,6.2185,6.2168,6.1915,6.1571,6.1498,6.139,6.1064,6.1027,6.1027,6.1027,6.1027,6.1027,6.1027,6.1027,6.1027,6.0991,6.0539,6.0196,6.0268,6.0466,6.0588,6.0567,6.0626,6.0594,6.0535,6.0665,6.0793,6.0757,6.0574,6.0352,6.01,5.9814,5.9826,6.0006,6.0113,6.0149,6.06,6.0947,6.1016,6.098,6.1114,6.0895,6.0364,6.0285,6.0693,6.1034,6.1019,6.1087,6.152,6.1714,6.1941,6.1941,6.2178,6.2381,6.2313,6.2415,6.2415,6.2448,6.2415,6.2415,6.2415,6.2415,6.2516,6.6788,6.6712,6.6146,6.6087,6.6369,6.6745,6.6886,6.68,6.6737,6.6717,6.671,6.6705,6.6531,6.6247,6.5778,6.5455,6.5301,6.5338,6.5338,6.5338,6.5338,6.5301,6.5338,6.5558,6.5632,6.5668,6.5888,6.5999,6.5962,6.5962,6.5962,6.5962,6.5962,6.5962,6.5962,6.5962,6.5962,6.5962,6.5778,6.5632,6.5448,6.4237,6.3503,6.3503,6.3503,6.3503,6.3503,6.3503,6.3452,6.335,6.3262,6.3158,6.3036,6.2893,6.2713,6.2367,6.2331,6.2223,6.2041,6.2041,6.2041,6.2041,6.2041,6.2041,6.2041,6.2041,6.2041,6.1933,6.1462,6.1136,6.1208,6.157,6.184,6.1784,6.1559,6.1444,6.135,6.127,6.1211,6.1211,6.0998,6.0985,6.098,6.0741,6.0768,6.1436,6.1481,6.1488,6.2051,6.2296,6.2334,6.2196,6.2683,6.2502,6.1517,6.1581,6.1855,6.209,6.218,6.2199,6.2668,6.2581,6.2459,6.2256,6.2347,6.2415,6.2415,6.2415,6.2696,6.2719,6.2821,6.299,6.3193,6.3057,6.326,6.7821,6.7789,6.7626,6.7486,6.742,6.7316,6.7241,6.7354,6.7758,6.7973,6.7996,6.8376,6.8426,6.7975,6.6395,6.5492,6.5375,6.5448,6.5448,6.5485,6.5411,6.5338,6.5375,6.6072,6.6439,6.6512,6.7063,6.743,6.7467,6.7504,6.7577,6.7504,6.743,6.7504,6.743,6.7393,6.754,6.732,6.6769,6.6439,6.6366,6.5632,6.5191,6.5191,6.5154,6.5081,6.5118,6.5154,6.5154,6.5154,6.4924,6.4908,6.4855,6.4603,6.3984,6.3292,6.3164,6.2838,6.2223,6.215,6.215,6.2114,6.2223,6.2078,6.2259,6.2259,6.2259,6.2078,6.2078,6.1969,6.1969,6.1914,6.1932,6.184,6.1784,6.1708,6.1595,6.1595,6.1559,6.1631,6.1566,6.1735,6.2164,6.2078,6.2249,6.2817,6.2939,6.2952,6.31,6.3361,6.3477,6.3585,6.3799,6.369,6.271,6.2668,6.3186,6.3285,6.3142,6.3124,6.2966,6.2847,6.2615,6.2527,6.2629,6.2629,6.2448,6.2662,6.3035,6.3374,6.395,6.4187,6.4017,6.4343,6.4478,6.8394,6.7935,6.8341,6.8502,6.8507,6.8825,6.8981,6.8981,6.9094,6.9048,6.9001,6.9053,6.8855,6.848,6.7679,6.7119,6.6806,6.6843,6.6843,6.6806,6.6806,6.6843,6.688,6.7136,6.7247,6.732,6.754,6.7687,6.7687,6.7687,6.7687,6.7687,6.7687,6.7687,6.7687,6.7687,6.7687,6.765,6.7357,6.7247,6.721,6.699,6.6843,6.6769,6.5815,6.5338,6.5338,6.5338,6.5338,6.5338,6.5249,6.5197,6.5091,6.4785,6.4475,6.4165,6.4017,6.3852,6.3563,6.3526,6.3526,6.3526,6.3526,6.349,6.3526,6.3526,6.3526,6.3454,6.3019,6.2802,6.2657,6.2331,6.195,6.195,6.1932,6.1932,6.184,6.1876,6.2021,6.2526,6.2882,6.3213,6.3239,6.3167,6.3428,6.4046,6.41,6.4251,6.465,6.4847,6.4721,6.4791,6.487,6.4773,6.4594,6.4043,6.3965,6.3858,6.3785,6.3639,6.3452,6.3247,6.3051,6.3528,6.3485,6.3577,6.3757,6.4142,6.4381,6.463,6.521,6.5209,6.4822,6.5162,6.5217,6.9234,6.8814,6.9246,6.9442,6.9518,6.988,7.0111,7.0076,6.9891,6.9738,6.9579,6.9374,6.9072,6.8707,6.842,6.8121,6.7794,6.7704,6.7687,6.7687,6.7687,6.7687,6.7687,6.7687,6.7687,6.7687,6.7687,6.7687,6.7687,6.7687,6.7687,6.7687,6.7687,6.7687,6.7687,6.7687,6.7687,6.7687,6.7687,6.7687,6.7687,6.7687,6.7687,6.754,6.6623,6.6072,6.6072,6.6072,6.6072,6.6072,6.6072,6.6019,6.586,6.5606,6.5294,6.502,6.4871,6.4649,6.4432,6.4396,6.4359,6.4396,6.4396,6.4396,6.4396,6.4396,6.4396,6.4251,6.3961,6.3563,6.349,6.3092,6.2693,6.2476,6.2404,6.2512,6.273,6.2802,6.3056,6.3526,6.3884,6.4166,6.4433,6.4291,6.4591,6.5212,6.5197,6.5421,6.5788,6.5768,6.564,6.564,6.551,6.5622,6.5693,6.5505,6.5021,6.4882,6.4811,6.4491,6.42,6.3933,6.3981,6.4461,6.4727,6.4855,6.5241,6.5661,6.5877,6.6067,6.6244,6.6382,6.6097,6.5914,6.6038,7.0381,7.0266,7.0419,7.031,7.0271,7.0281,7.0286,7.0251,7.0076,6.9891,6.9661,6.9498,6.916,6.8744,6.842,6.8208,6.7952,6.7794,6.7687,6.7687,6.7687,6.7687,6.7687,6.7687,6.7687,6.7687,6.7687,6.7687,6.7687,6.7687,6.7687,6.7687,6.7687,6.7687,6.7687,6.7687,6.7687,6.7687,6.7687,6.7687,6.7687,6.776,6.7871,6.7871,6.7724,6.7724,6.7687,6.7614,6.7467,6.7504,6.754,6.7596,6.7341,6.714,6.6717,6.5985,6.5706,6.5229,6.4613,6.4577,6.4685,6.4685,6.4541,6.4685,6.4722,6.4649,6.4649,6.4685,6.4504,6.4396,6.4396,6.4251,6.3889,6.3345,6.32,6.349,6.4033,6.4359,6.4396,6.4432,6.4613,6.4794,6.5316,6.5416,6.5586,6.6091,6.6247,6.6161,6.6269,6.6146,6.6021,6.6093,6.6145,6.6332,6.6589,6.6874,6.6316,6.5906,6.5931,6.5759,6.5543,6.5283,6.5365,6.5738,6.6117,6.6324,6.6658,6.7045,6.7142,6.7281,6.7532,6.7581,6.7329,6.7113,6.7031,7.0419,7.0419,7.0419,7.0419,7.0419,7.0386,7.0386,7.0353,7.022,7.0003,6.9778,6.9579,6.9284,6.8884,6.865,6.8371,6.8055,6.7899,6.7794,6.7741,6.7687,6.7687,6.7687,6.7687,6.7687,6.7687,6.7687,6.7687,6.7687,6.7687,6.7687,6.7687,6.7687,6.7687,6.776,6.7687,6.7687,6.7687,6.7687,6.7944,6.8458,6.8531,6.8788,6.9265,6.9339,6.9339,6.9302,6.8311,6.7724,6.7724,6.7687,6.7687,6.767,6.747,6.7305,6.6974,6.6713,6.6525,6.6271,6.612,6.6062,6.6062,6.6062,6.6062,6.6062,6.6062,6.6062,6.5989,6.5591,6.5229,6.5156,6.4685,6.4359,6.407,6.4033,6.4106,6.4504,6.4939,6.5192,6.5301,6.57,6.6134,6.6315,6.6329,6.6342,6.6632,6.6704,6.6644,6.668,6.6632,6.6679,6.6978,6.706,6.7258,6.786,6.8155,6.7912,6.7504,6.7327,6.7023,6.6848,6.677,6.6825,6.7064,6.7481,6.784,6.8169,6.8348,6.8413,6.8478,6.8613,6.86,6.844,6.831,6.8211,7.0419,7.0419,7.0419,7.0419,7.0419,7.0419,7.0419,7.0386,7.0255,7.0039,6.9816,6.9659,6.9369,6.8975,6.88,6.8565,6.8222,6.807,6.7967,6.781,6.7741,6.7687,6.7687,6.7687,6.7687,6.7687,6.7687,6.7687,6.7687,6.7687,6.7834,6.8091,6.8128,6.8348,6.8531,6.8568,6.8568,6.8568,6.8605,6.8862,6.9229,6.9339,6.9559,7.0,7.011,7.011,7.0036,6.9082,6.8568,6.8568,6.8568,6.8568,6.8568,6.8495,6.8384,6.8328,6.8122,6.8007,6.7913,6.7833,6.7774,6.7715,6.7751,6.7692,6.7692,6.7692,6.7619,6.7221,6.6822,6.6351,6.6025,6.5627,6.5301,6.5265,6.5011,6.5011,6.5265,6.5736,6.5989,6.6134,6.646,6.675,6.6822,6.6822,6.6967,6.7112,6.7257,6.7438,6.7547,6.7572,6.7897,6.8053,6.8136,6.8569,6.9245,6.9498,6.9507,6.9153,6.8863,6.8457,6.8044,6.808,6.8176,6.8498,6.8887,6.9067,6.9389,6.953,6.96,6.967,6.9774,6.9516,6.9398,6.9304,6.9246,7.0419,7.0419,7.0419,7.0419,7.0419,7.0419,7.0419,7.0386,7.0289,7.0076,6.9816,6.9699,6.9374,6.9072,6.89,6.8717,6.8554,6.8556,6.8407,6.8291,6.8157,6.8035,6.7724,6.7687,6.7687,6.7687,6.7687,6.7687,6.7687,6.7834,6.8128,6.8752,6.8898,6.9302,6.9743,7.0036,6.9889,6.9853,6.9926,6.9963,7.011,7.0146,7.0257,7.0367,7.0403,7.044,7.044,7.0293,7.0146,7.0073,6.9889,6.9853,7.0,6.9961,6.9758,6.9721,6.9697,6.9529,6.9508,6.9209,6.9127,6.9127,6.9067,6.9237,6.8984,6.8911,6.8621,6.7945,6.78,6.7547,6.6895,6.6641,6.6605,6.6641,6.6025,6.5989,6.6641,6.6714,6.6714,6.6822,6.6895,6.6931,6.7112,6.7148,6.7474,6.7836,6.809,6.8343,6.8633,6.8742,6.9068,6.9213,6.9188,6.9586,7.0165,7.0346,7.0392,7.0301,7.0015,6.968,6.9237,6.9282,6.9318,6.9672,7.0168,7.0378,7.0624,7.0802,7.0839,7.0912,7.0842,7.0522,7.0482,7.0578,7.0412,7.0483,7.0419,7.0419,7.0419,7.0419,7.0419,7.0419,7.0386,7.0286,7.0147,6.9966,6.9891,6.9655,6.9289,6.916,6.8945,6.8987,6.9293,6.9311,6.9221,6.9621,6.8894,6.7924,6.7687,6.7687,6.7687,6.7724,6.7687,6.776,6.8311,6.8715,6.8935,6.9559,6.9889,7.0073,7.0183,7.011,7.011,7.011,7.0477,7.0917,7.0991,7.1321,7.1835,7.1835,7.1798,7.1872,7.1872,7.1248,7.0183,7.011,7.011,7.0183,7.0127,7.0201,7.0144,7.0014,6.9864,6.9864,6.9748,6.9559,6.9522,6.9646,6.9441,6.9358,6.9358,6.8899,6.8259,6.7981,6.7728,6.704,6.6895,6.6858,6.6786,6.6677,6.6641,6.6786,6.6822,6.7003,6.7547,6.7692,6.7909,6.8271,6.8416,6.8525,6.8778,6.8887,6.8995,6.9394,6.9466,6.9611,6.9973,7.0154,7.0553,7.0915,7.1096,7.1178,7.1214,7.0995,7.08,7.0463,7.0232,7.0303,7.0443,7.1121,7.1577,7.1928,7.2211,7.2215,7.2111,7.2221,7.2049,7.2157,7.2192,7.19,7.093,7.0451,7.0451,7.0451,7.0419,7.0419,7.0419,7.0386,7.0319,7.0217,7.0152,7.0384,7.0345,7.0067,7.0324,7.0347,7.0203,7.0517,7.0517,7.04,7.0472,6.9679,6.8492,6.7907,6.7687,6.7724,6.8054,6.8201,6.8348,6.9009,6.9522,7.0,7.0367,7.077,7.1174,7.1101,7.1101,7.1138,7.1101,7.1358,7.1762,7.1835,7.2018,7.2459,7.2532,7.2532,7.2496,7.2496,7.2018,7.1321,7.1138,7.1101,7.1101,7.1101,7.1101,7.1101,7.1044,7.1024,7.093,7.0814,7.0756,7.0756,7.0661,7.0543,7.0556,7.0483,7.0132,6.9418,6.9153,6.8717,6.81,6.786,6.78,6.7873,6.78,6.7655,6.7366,6.7329,6.7692,6.8235,6.8525,6.8633,6.914,6.9176,6.9358,6.9575,6.9684,6.9901,7.0191,7.0118,7.0263,7.0734,7.1205,7.1639,7.1965,7.2183,7.2327,7.23,7.2191,7.1896,7.1627,7.1426,7.1498,7.1745,7.2315,7.2741,7.3055,7.3266,7.3164,7.3168,7.342,7.35,7.3506,7.351,7.319,7.1636,7.0891,7.0891,7.0821,7.0795,7.0686,7.0877,7.0692,7.0773,7.0671,7.068,7.1178,7.1333,7.114,7.1668,7.2037,7.1864,7.1808,7.1816,7.1573,7.1231,7.0286,6.9357,6.8568,6.8128,6.8091,6.8641,6.8972,6.9229,6.9816,7.055,7.0991,7.1284,7.1762,7.2092,7.2349,7.2459,7.2312,7.2239,7.2239,7.2349,7.2349,7.2422,7.2459,7.2532,7.2532,7.2532,7.2532,7.2422,7.2496,7.2532,7.2349,7.2386,7.2459,7.2422,7.2349,7.2239,7.2312,7.2422,7.216,7.2212,7.208,7.1961,7.2048,7.1842,7.1732,7.1404,7.0506,7.0665,6.9963,6.9285,6.9189,6.902,6.8887,6.8995,6.8778,6.8416,6.8199,6.8452,6.9176,6.9321,6.9321,6.9394,6.9466,6.9684,7.0408,7.0553,7.077,7.1132,7.1313,7.1531,7.1893,7.2327,7.2762,7.3052,7.3342,7.345,7.3523,7.3378,7.3175,7.2936,7.2803,7.2911,7.3194,7.3411,7.3658,7.3971,7.4043,7.4152,7.4332,7.4524,7.46,7.464,7.4542,7.4403,7.2878,7.2632,7.2569,7.2537,7.2505,7.2477,7.2406,7.2367,7.2406,7.2185,7.2269,7.2424,7.2429,7.2319,7.2472,7.2394,7.25,7.2746,7.3004,7.2994,7.2072,7.1447,7.0772,6.9945,6.9229,6.9009,6.9449,6.9816,7.0036,7.0624,7.1138,7.1358,7.1908,7.2312,7.2459,7.2532,7.2532,7.2532,7.2532,7.2532,7.2532,7.2532,7.2532,7.2532,7.2532,7.2532,7.2532,7.2532,7.2532,7.2532,7.2532,7.2532,7.2532,7.2532,7.2532,7.2532,7.2532,7.2532,7.2532,7.2475,7.2438,7.2438,7.238,7.2321,7.224,7.2204,7.1779,7.1062,7.0725,7.041,6.9708,6.9334,6.9382,6.9394,6.9358,6.9466,6.9647,6.9285,6.9321,6.9865,7.0118,7.0335,7.0842,7.0842,7.0987,7.1241,7.1422,7.1639,7.2001,7.24,7.2617,7.2834,7.3305,7.3667,7.3812,7.4138,7.4392,7.45,7.4428,7.4392,7.4152,7.3977,7.4049,7.4224,7.4398,7.4645,7.4863,7.5261,7.5412,7.5556,7.5593,7.5706,7.5747,7.5682,7.5724,7.3667,7.3261,7.32,7.3169,7.3137,7.3144,7.3079,7.3046,7.3046,7.3012,7.2987,7.3254,7.3413,7.3379,7.3685,7.3764,7.3646,7.3699,7.3709,7.3442,7.2763,7.2113,7.1674,7.1287,7.066,6.9779,7.0293,7.0624,7.0881,7.1394,7.1872,7.1872,7.2312,7.2459,7.2532,7.2532,7.2532,7.2532,7.2532,7.2532,7.2532,7.2532,7.2532,7.2532,7.2532,7.2532,7.2532,7.2532,7.2532,7.2532,7.2532,7.2532,7.2532,7.2532,7.2532,7.2532,7.2532,7.2532,7.2532,7.2532,7.2496,7.2532,7.2532,7.2438,7.2416,7.2416,7.2175,7.175,7.1487,7.1245,7.0641,7.0484,7.0386,7.0263,7.0263,7.048,7.0698,7.0227,7.0046,7.0661,7.0915,7.106,7.135,7.1639,7.1893,7.1965,7.211,7.2364,7.2943,7.3305,7.3378,7.3631,7.4138,7.4464,7.4573,7.4863,7.5261,7.537,7.5406,7.5442,7.5375,7.5195,7.5116,7.5189,7.5261,7.5515,7.5768,7.6203,7.6384,7.6239,7.6275,7.6637,7.6963,7.7008,7.7086,7.4447,7.3706,7.3706,7.3676,7.3615,7.3622,7.3667,7.3565,7.3488,7.3653,7.3548,7.4159,7.4358,7.444,7.49,7.5132,7.4821,7.4406,7.3981,7.354,7.3156,7.2519,7.1987,7.1965,7.1725,7.0624,7.1138,7.1468,7.1688,7.2092,7.2349,7.2459,7.2496,7.2532,7.2532,7.2532,7.2532,7.2532,7.2532,7.2532,7.2532,7.2532,7.2532,7.2532,7.2532,7.2532,7.2532,7.2532,7.2532,7.2532,7.2532,7.2532,7.2532,7.2532,7.2532,7.2532,7.2532,7.2532,7.2532,7.2532,7.2532,7.2532,7.2532,7.2532,7.2532,7.2532,7.2401,7.2401,7.2212,7.2034,7.1903,7.1623,7.1598,7.1511,7.1521,7.163,7.163,7.1195,7.1231,7.1277,7.1567,7.182,7.1929,7.211,7.24,7.269,7.2834,7.316,7.374,7.4175,7.4247,7.4537,7.508,7.5261,7.537,7.537,7.5768,7.5877,7.6022,7.6094,7.6167,7.5949,7.5732,7.5949,7.6094,7.6239,7.642,7.6674,7.6746,7.6674,7.7,7.7543,7.7941,7.8303,7.8273,7.5707,7.5524,7.5503,7.5472,7.5403,7.5302,7.5194,7.5271,7.5156,7.5206,7.5107,7.5298,7.5264,7.531,7.5241,7.5095,7.4774,7.4342,7.3971,7.3578,7.3231,7.2778,7.2502,7.2406,7.2275,7.2239,7.2202,7.2202,7.2239,7.2459,7.2496,7.2532,7.2532,7.2532,7.2532,7.2532,7.2532,7.2532,7.2532,7.2532,7.2532,7.2532,7.2532,7.2532,7.2532,7.2532,7.2532,7.2532,7.2532,7.2532,7.2532,7.2532,7.2532,7.2532,7.2532,7.2532,7.2532,7.2532,7.2532,7.2532,7.2532,7.2532,7.2532,7.2532,7.2532,7.2532,7.2532,7.2438,7.238,7.2299,7.224,7.2084,7.1964,7.1927,7.1903,7.2023,7.2434,7.2444,7.2055,7.1847,7.2146,7.2545,7.2617,7.2798,7.3197,7.3523,7.3667,7.4102,7.4718,7.5008,7.5152,7.5551,7.6022,7.6094,7.613,7.6058,7.6167,7.6094,7.6203,7.6311,7.6348,7.6275,7.6311,7.671,7.6746,7.671,7.6891,7.7217,7.747,7.7688,7.8086,7.8484,7.8702,7.8955,7.8886,7.5976,7.5976,7.5985,7.5955,7.5955,7.5887,7.5826,7.5794,7.5794,7.5763,7.5666,7.5633,7.5566,7.5497,7.5392,7.5018,7.4606,7.4289,7.3826,7.3424,7.3162,7.289,7.261,7.2496,7.2496,7.2496,7.2496,7.2532,7.2496,7.2496,7.2532,7.2532,7.2532,7.2532,7.2532,7.2532,7.2532,7.2532,7.2532,7.2532,7.2532,7.2532,7.2532,7.2532,7.2532,7.2532,7.2532,7.2532,7.2532,7.2532,7.2532,7.2532,7.2532,7.2532,7.2532,7.2532,7.2532,7.2532,7.2532,7.2532,7.2532,7.2532,7.2532,7.2532,7.2532,7.2532,7.2532,7.2496,7.2438,7.238,7.2263,7.2204,7.2144,7.2048,7.1988,7.2206,7.2485,7.2824,7.2626,7.2418,7.2971,7.3305,7.3378,7.3631,7.403,7.4319,7.45,7.4971,7.5551,7.5696,7.5768,7.5949,7.6275,7.6275,7.6275,7.6275,7.642,7.6456,7.6492,7.6601,7.6818,7.6927,7.7253,7.7688,7.7579,7.7398,7.7688,7.8122,7.8412,7.8702,7.9028,7.9281,7.9426,7.9535,7.9537,7.5976,7.5976,7.5976,7.5976,7.5976,7.5976,7.5985,7.5925,7.5925,7.5864,7.5763,7.5699,7.5633,7.5532,7.5281,7.4899,7.4476,7.4113,7.3678,7.3283,7.3054,7.2779,7.261,7.2496,7.2532,7.2532,7.2532,7.2532,7.2532,7.2532,7.2532,7.2532,7.2532,7.2532,7.2532,7.2532,7.2532,7.2532,7.2532,7.2532,7.2532,7.2532,7.2532,7.2532,7.2532,7.2532,7.2532,7.2532,7.2532,7.2532,7.2532,7.2532,7.2532,7.2532,7.2532,7.2532,7.2532,7.2532,7.2532,7.2532,7.2532,7.2532,7.2532,7.2532,7.2532,7.2532,7.2532,7.2532,7.2496,7.2438,7.238,7.2358,7.2263,7.2204,7.2108,7.2194,7.2559,7.2972,7.3468,7.3525,7.3942,7.4131,7.424,7.4645,7.508,7.5152,7.5334,7.5442,7.5949,7.6058,7.613,7.6167,7.6275,7.6275,7.6275,7.6275,7.6529,7.6818,7.6927,7.7036,7.7398,7.776,7.8159,7.8557,7.8557,7.8448,7.8774,7.9028,7.9281,7.9571,7.9861,8.0078,8.0187,8.0368,8.0405,7.5976,7.5976,7.5976,7.5976,7.5976,7.5976,7.5976,7.5947,7.5985,7.5955,7.5864,7.5864,7.5731,7.5532,7.5095,7.4695,7.4305,7.3971,7.3628,7.332,7.3091,7.2927,7.2667,7.2553,7.2496,7.2496,7.2532,7.2532,7.2532,7.2532,7.2532,7.2532,7.2532,7.2532,7.2532,7.2532,7.2532,7.2532,7.2532,7.2532,7.2532,7.2532,7.2532,7.2532,7.2532,7.2532,7.2532,7.2532,7.2532,7.2532,7.2532,7.2532,7.2532,7.2532,7.2532,7.2532,7.2532,7.2532,7.2532,7.2532,7.2532,7.2532,7.2532,7.2532,7.2532,7.2532,7.2532,7.2532,7.2532,7.2496,7.2438,7.2475,7.2438,7.2438,7.238,7.2724,7.3104,7.3386,7.3909,7.4624,7.507,7.5059,7.5103,7.5617,7.6058,7.613,7.6167,7.6167,7.6203,7.6275,7.6275,7.6275,7.6348,7.6348,7.6637,7.6601,7.6927,7.7253,7.7434,7.7651,7.8159,7.8629,7.9028,7.9318,7.9354,7.9462,7.9643,7.9897,8.0151,8.0332,8.0513,8.073,8.0947,8.1092,8.1092,7.5976,7.5976,7.5976,7.5976,7.5976,7.5976,7.5976,7.5976,7.5976,7.5947,7.5955,7.5895,7.5737,7.5389,7.4979,7.4611,7.4214,7.3923,7.3615,7.3357,7.3145,7.2982,7.2723,7.2667,7.261,7.2496,7.2496,7.2532,7.2532,7.2532,7.2532,7.2532,7.2532,7.2532,7.2532,7.2532,7.2532,7.2532,7.2532,7.2532,7.2532,7.2532,7.2532,7.2532,7.2532,7.2532,7.2532,7.2532,7.2532,7.2532,7.2532,7.2532,7.2532,7.2532,7.2532,7.2532,7.2532,7.2532,7.2532,7.2532,7.2532,7.2532,7.2532,7.2532,7.2532,7.2532,7.2532,7.2532,7.2532,7.2532,7.2532,7.2532,7.2532,7.2532,7.2716,7.312,7.3589,7.4079,7.4543,7.5359,7.6026,7.5871,7.5814,7.6178,7.6336,7.627,7.6239,7.6239,7.6239,7.6275,7.6275,7.6275,7.6384,7.6456,7.6891,7.7144,7.7615,7.7941,7.8159,7.8484,7.9064,7.9571,7.9861,8.0187,8.0368,8.0476,8.0549,8.0585,8.0658,8.0875,8.1092,8.1092,8.1092,8.1092,8.1092,7.5976,7.5976,7.5976,7.5976,7.5976,7.5976,7.5976,7.5976,7.5976,7.5976,7.5947,7.5895,7.5633,7.5281,7.4939,7.4568,7.4122,7.3875,7.3615,7.3357,7.3199,7.3091,7.289,7.2779,7.2667,7.2553,7.2496,7.2496,7.2532,7.2532,7.2532,7.2532,7.2532,7.2532,7.2532,7.2532,7.2532,7.2532,7.2532,7.2532,7.2532,7.2532,7.2532,7.2532,7.2532,7.2532,7.2532,7.2532,7.2532,7.2532,7.2532,7.2532,7.2532,7.2532,7.2532,7.2532,7.2532,7.2532,7.2532,7.2532,7.2532,7.2532,7.2532,7.2532,7.2532,7.2532,7.2532,7.2532,7.2532,7.2532,7.2569,7.2679,7.2899,7.3046,7.3156,7.3487,7.3891,7.4395,7.4885,7.558,7.6178,7.6491,7.6537,7.6628,7.6643,7.6445,7.6378,7.6275,7.6311,7.6311,7.6348,7.6384,7.6782,7.6891,7.7217,7.7651,7.8159,7.8666,7.8919,7.9281,7.9897,8.0223,8.044,8.0802,8.1092,8.102,8.0839,8.0984,8.1092,8.1092,8.1092,8.1092,8.1092,8.1092,8.1092,7.5976,7.5976,7.5976,7.5976,7.5976,7.5976,7.5976,7.5976,7.5976,7.5976,7.5947,7.5794,7.5561,7.5281,7.4939,7.4568,7.4076,7.3875,7.3665,7.341,7.3252,7.3199,7.3037,7.289,7.2723,7.2667,7.261,7.2496,7.2532,7.2532,7.2532,7.2532,7.2532,7.2532,7.2532,7.2532,7.2532,7.2532,7.2532,7.2532,7.2532,7.2532,7.2532,7.2532,7.2532,7.2532,7.2532,7.2532,7.2532,7.2532,7.2532,7.2532,7.2532,7.2532,7.2532,7.2679,7.2716,7.2753,7.2863,7.2679,7.2532,7.2532,7.2679,7.2863,7.2936,7.2679,7.2569,7.2789,7.2973,7.2826,7.2936,7.3083,7.356,7.3707,7.3927,7.4368,7.4661,7.4808,7.5335,7.5849,7.6362,7.6716,7.6873,7.6929,7.6773,7.6512,7.6378,7.6275,7.6384,7.642,7.6456,7.6601,7.7181,7.747,7.7651,7.8159,7.8919,7.9462,7.9788,8.0187,8.073,8.0911,8.0875,8.0947,8.1092,8.1092,8.1092,8.1092,8.1092,8.1092,8.1092,8.1092,8.1092,8.1092,8.1092,7.5976,7.5976,7.5976,7.5976,7.5976,7.5976,7.5976,7.5976,7.5976,7.5985,7.5925,7.5763,7.5561,7.5245,7.4939,7.4568,7.4122,7.3875,7.3628,7.3476,7.332,7.3305,7.3199,7.3091,7.289,7.276,7.2704,7.2553,7.2496,7.2606,7.2532,7.2532,7.2532,7.2532,7.2532,7.2532,7.2532,7.2532,7.2532,7.2532,7.2532,7.2532,7.2532,7.2532,7.2532,7.2532,7.2532,7.2532,7.2532,7.2532,7.2532,7.2532,7.2606,7.2569,7.2826,7.3156,7.323,7.345,7.356,7.3193,7.2716,7.334,7.367,7.3927,7.378,7.3927,7.3964,7.4001,7.3891,7.3744,7.4037,7.4258,7.4441,7.4515,7.4808,7.5249,7.5469,7.5616,7.5873,7.6497,7.679,7.7059,7.7107,7.7118,7.6902,7.668,7.6445,7.6348,7.6529,7.6818,7.7031,7.7217,7.7796,7.8376,7.8629,7.9173,7.9752,8.0151,8.0549,8.0802,8.1056,8.1056,8.102,8.1092,8.1092,8.1092,8.1092,8.1092,8.1092,8.1092,8.1092,8.1092,8.1092,8.1092,8.1092,7.5976,7.5976,7.5976,7.5976,7.5976,7.5976,7.5976,7.5976,7.5976,7.5917,7.5864,7.5692,7.5527,7.5245,7.4939,7.4611,7.4214,7.3923,7.3715,7.3564,7.3372,7.3357,7.3305,7.3236,7.3239,7.3093,7.3091,7.3108,7.3492,7.301,7.2936,7.2863,7.2642,7.2532,7.2532,7.2532,7.2532,7.2532,7.2532,7.2532,7.2532,7.2532,7.2532,7.2532,7.2532,7.2532,7.2532,7.2532,7.2532,7.2532,7.2532,7.2642,7.2753,7.2936,7.3303,7.3744,7.4111,7.4368,7.4404,7.4111,7.3487,7.4037,7.4441,7.4735,7.4918,7.4918,7.4661,7.4735,7.4808,7.4955,7.4992,7.5028,7.5212,7.5322,7.5763,7.6203,7.635,7.646,7.6717,7.7084,7.7231,7.7268,7.7426,7.7375,7.7322,7.7138,7.7182,7.7056,7.7135,7.7497,7.7901,7.8191,7.8557,7.9173,7.9752,8.0078,8.0368,8.0513,8.0875,8.0947,8.1092,8.1092,8.1092,8.1092,8.1092,8.1092,8.1092,8.1092,8.1092,8.1092,8.1092,8.1092,8.1092,8.1092,8.1092,7.5976,7.5976,7.5976,7.5976,7.5976,7.5976,7.5976,7.5976,7.5976,7.5887,7.5763,7.5692,7.5527,7.5209,7.4939,7.4653,7.4305,7.3971,7.3765,7.3578,7.3513,7.3461,7.3469,7.3527,7.3791,7.4181,7.4108,7.4233,7.4896,7.3839,7.356,7.3303,7.2863,7.2532,7.2532,7.2532,7.2532,7.2532,7.2532,7.2532,7.2532,7.2606,7.2716,7.2716,7.2899,7.2973,7.301,7.301,7.301,7.301,7.2973,7.3193,7.3597,7.367,7.4074,7.4771,7.4882,7.4955,7.4955,7.4882,7.4918,7.4918,7.5249,7.5359,7.5139,7.5065,7.5249,7.5506,7.5285,7.5175,7.5285,7.5579,7.5909,7.6203,7.6644,7.6827,7.6937,7.7011,7.7194,7.7268,7.7304,7.7378,7.7609,7.773,7.7651,7.7632,7.775,7.783,7.7916,7.8255,7.8767,7.9025,7.9387,7.9788,8.0332,8.0694,8.0984,8.1092,8.1092,8.1092,8.1092,8.1092,8.1092,8.1092,8.1092,8.1092,8.1092,8.1092,8.1092,8.1092,8.1092,8.1092,8.1092,8.1092,8.1092,7.5976,7.5976,7.5976,7.5976,7.5976,7.5976,7.5976,7.5976,7.6015,7.5955,7.5826,7.5724,7.5561,7.5356,7.5095,7.4737,7.4438,7.4206,7.3961,7.3628,7.3601,7.3885,7.4004,7.4211,7.4529,7.4922,7.5013,7.4974,7.5117,7.4301,7.378,7.3487,7.2899,7.2569,7.2532,7.2532,7.2532,7.2532,7.2532,7.2532,7.2569,7.2973,7.3303,7.334,7.3744,7.3927,7.3927,7.3891,7.3891,7.3891,7.3891,7.4111,7.4441,7.4515,7.4882,7.5506,7.5726,7.5983,7.6313,7.646,7.6203,7.6056,7.6093,7.6313,7.6497,7.6497,7.6497,7.6423,7.6276,7.6313,7.668,7.6717,7.69,7.69,7.7157,7.7157,7.7231,7.7231,7.7304,7.7304,7.7304,7.7818,7.8123,7.871,7.8766,7.8812,7.9003,7.8836,7.8814,7.9299,7.9743,7.9961,8.0218,8.0547,8.0839,8.0984,8.1092,8.1092,8.1092,8.1092,8.1092,8.1092,8.1092,8.1092,8.1092,8.1092,8.1092,8.1092,8.1092,8.1092,8.1092,8.1092,8.1092,8.1092,8.1092,7.5976,7.5976,7.5976,7.5976,7.5976,7.5976,7.5976,7.5976,7.5976,7.5955,7.5895,7.5794,7.5666,7.5462,7.5246,7.4939,7.4653,7.4342,7.416,7.3864,7.4001,7.4271,7.4592,7.5023,7.5436,7.5884,7.5995,7.5937,7.6191,7.4874,7.3912,7.323,7.2789,7.2569,7.2532,7.2532,7.2532,7.2606,7.2716,7.301,7.3193,7.3597,7.4111,7.4258,7.4515,7.4845,7.4882,7.4918,7.4955,7.4955,7.4955,7.5102,7.5212,7.5395,7.5726,7.6276,7.657,7.6827,7.7084,7.7194,7.6864,7.6644,7.7084,7.7268,7.7341,7.7157,7.7157,7.7194,7.7341,7.7304,7.7268,7.7341,7.7341,7.7341,7.7378,7.7414,7.7451,7.7488,7.7671,7.7635,7.7892,7.8369,7.8883,7.958,8.003,8.0113,8.0231,7.9991,7.9785,8.0266,8.0572,8.0684,8.076,8.0944,8.1018,8.1056,8.1092,8.1092,8.1092,8.1092,8.1092,8.1092,8.1092,8.1092,8.1092,8.1092,8.1092,8.1092,8.1128,8.1128,8.1092,8.1092,8.1092,8.1165,8.1237,7.5976,7.5976,7.5976,7.5976,7.5976,7.5976,7.5976,7.5976,7.5976,7.5985,7.5895,7.5895,7.5769,7.557,7.5356,7.5209,7.5053,7.4644,7.4538,7.4582,7.4859,7.4997,7.5291,7.5723,7.6415,7.6827,7.7014,7.7032,7.7451,7.5706,7.4059,7.2936,7.2606,7.2606,7.2679,7.2753,7.2753,7.2899,7.3413,7.367,7.3891,7.4515,7.4845,7.5028,7.5249,7.5395,7.5395,7.5359,7.5285,7.5249,7.5175,7.5579,7.5873,7.613,7.6644,7.7047,7.7231,7.7268,7.7304,7.7304,7.7304,7.7084,7.7231,7.7341,7.7341,7.7341,7.7341,7.7341,7.7341,7.7341,7.7341,7.7378,7.7414,7.7451,7.7524,7.7598,7.7671,7.7855,7.8112,7.8369,7.8736,7.9176,7.98,8.0424,8.0975,8.1122,8.113,8.1102,8.0934,8.1087,8.1355,8.1223,8.1299,8.1232,8.1234,8.1163,8.1092,8.1092,8.1092,8.1092,8.1092,8.1092,8.1092,8.1092,8.1092,8.1092,8.1092,8.1128,8.1165,8.1201,8.1418,8.1418,8.1527,8.1454,8.1563,7.5976,7.5976,7.5976,7.5976,7.5976,7.5976,7.5976,7.5976,7.5976,7.5947,7.5947,7.5925,7.5833,7.5769,7.5532,7.5356,7.5399,7.5509,7.5485,7.5645,7.5944,7.6429,7.6718,7.699,7.7521,7.7825,7.8014,7.7794,7.7419,7.5985,7.4228,7.2753,7.27,7.292,7.3156,7.3377,7.3413,7.3597,7.4221,7.4478,7.4771,7.5359,7.5616,7.5836,7.6203,7.635,7.6423,7.646,7.646,7.6497,7.657,7.6827,7.69,7.6974,7.7194,7.7231,7.7304,7.7304,7.7341,7.7341,7.7378,7.7451,7.7451,7.7341,7.7341,7.7451,7.7488,7.7598,7.7671,7.7781,7.7781,7.7781,7.7965,7.8148,7.8222,7.8332,7.8479,7.8699,7.8956,7.9323,7.9653,8.0167,8.0755,8.1158,8.1636,8.1856,8.1929,8.1827,8.1864,8.1842,8.1849,8.1683,8.1583,8.1445,8.1305,8.1234,8.1163,8.1092,8.1092,8.1092,8.1128,8.1128,8.1092,8.1092,8.1092,8.1092,8.1092,8.1201,8.1454,8.1817,8.2034,8.1998,8.1961,8.1998,8.2215,7.5976,7.5976,7.5976,7.5976,7.5976,7.5976,7.5976,7.5976,7.5976,7.5976,7.5976,7.5955,7.5925,7.5864,7.5737,7.5757,7.6038,7.6161,7.6308,7.679,7.7137,7.7484,7.7861,7.8215,7.8491,7.8714,7.8618,7.8292,7.7645,7.6195,7.4359,7.3386,7.3145,7.3439,7.3938,7.4527,7.4911,7.4963,7.5161,7.5322,7.5689,7.613,7.646,7.6644,7.7157,7.7268,7.7341,7.7341,7.7341,7.7341,7.7341,7.7304,7.7304,7.7304,7.7304,7.7341,7.7341,7.7341,7.7378,7.7745,7.7781,7.7892,7.8075,7.8369,7.8222,7.8222,7.8295,7.8405,7.8369,7.8369,7.8332,7.8369,7.8699,7.9029,7.914,7.9286,7.947,7.969,7.9984,8.0314,8.0755,8.1232,8.1672,8.2039,8.2186,8.2113,8.2076,8.2076,8.2076,8.2047,8.1952,8.1818,8.1683,8.1652,8.1514,8.1375,8.1375,8.1305,8.1234,8.1234,8.1271,8.12,8.1128,8.1128,8.1092,8.1237,8.1527,8.1635,8.1853,8.2324,8.2831,8.2976,8.2976,8.2939,8.3265,7.5976,7.5976,7.5976,7.5976,7.5976,7.5976,7.5976,7.5976,7.5976,7.5976,7.5976,7.5976,7.5985,7.5964,7.6018,7.6383,7.671,7.6991,7.7455,7.7874,7.8352,7.8674,7.8768,7.9101,7.9143,7.9112,7.8916,7.8588,7.7771,7.6403,7.4996,7.4293,7.4146,7.4256,7.4626,7.5698,7.6195,7.6375,7.6295,7.6323,7.6387,7.6827,7.7341,7.7268,7.7304,7.7341,7.7341,7.7341,7.7341,7.7341,7.7341,7.7341,7.7341,7.7341,7.7341,7.7524,7.7635,7.7781,7.8002,7.8405,7.8589,7.8883,7.9323,7.9507,7.936,7.8956,7.8956,7.9103,7.9103,7.9103,7.9103,7.914,7.936,7.969,7.9947,8.0167,8.0461,8.0645,8.0828,8.1122,8.1415,8.1856,8.1929,8.2186,8.2186,8.2186,8.2186,8.2186,8.2186,8.2186,8.2121,8.1952,8.1818,8.1751,8.1683,8.1547,8.1547,8.1547,8.1514,8.1375,8.1305,8.1271,8.1165,8.1346,8.1563,8.1889,8.2143,8.2287,8.265,8.3265,8.37,8.399,8.4062,8.399,8.4207,7.5976,7.5976,7.5976,7.5976,7.5976,7.5976,7.5976,7.5976,7.5976,7.6053,7.6015,7.6015,7.6053,7.6139,7.6579,7.6939,7.7259,7.8118,7.8668,7.9055,7.9475,7.9543,7.9571,7.9675,7.9734,7.9554,7.9256,7.8741,7.7826,7.6489,7.5345,7.4657,7.4694,7.4991,7.5399,7.655,7.72,7.7476,7.7456,7.7223,7.7095,7.7084,7.7341,7.7341,7.7341,7.7341,7.7341,7.7341,7.7341,7.7341,7.7341,7.7341,7.7341,7.7341,7.7708,7.8148,7.8295,7.8516,7.8919,7.925,7.947,7.9507,7.9837,8.0204,8.0204,7.9764,7.9617,7.98,7.9874,7.991,7.9947,7.9984,8.0094,8.0424,8.0718,8.1085,8.1415,8.1525,8.1636,8.1819,8.2076,8.215,8.2186,8.2186,8.2186,8.2186,8.2186,8.2186,8.2186,8.2186,8.2186,8.2055,8.1952,8.1818,8.1818,8.1751,8.1751,8.1683,8.1615,8.1583,8.1445,8.1486,8.1526,8.1853,8.2143,8.2505,8.2867,8.312,8.3519,8.4171,8.446,8.4714,8.504,8.5112,8.533,7.5976,7.5976,7.5976,7.5976,7.5976,7.5976,7.5976,7.6053,7.6399,7.6592,7.6476,7.6245,7.6207,7.6515,7.7032,7.7808,7.8199,7.9127,7.9608,8.0001,8.0197,8.0315,8.0354,8.0237,8.0197,8.0034,7.9696,7.9039,7.8128,7.7292,7.6406,7.572,7.5744,7.6042,7.6453,7.7237,7.799,7.8275,7.8312,7.8034,7.7666,7.7487,7.7402,7.7341,7.7341,7.7341,7.7341,7.7341,7.7341,7.7341,7.7341,7.7671,7.7818,7.7965,7.8369,7.8883,7.9176,7.9323,7.9764,8.0131,8.0314,8.0351,8.0755,8.1305,8.1379,8.1012,8.1012,8.1122,8.1158,8.1158,8.1158,8.1195,8.1232,8.1452,8.1525,8.1709,8.1856,8.1893,8.1966,8.2003,8.215,8.215,8.2186,8.2186,8.2186,8.2186,8.2186,8.2186,8.2186,8.2186,8.2186,8.2186,8.2055,8.2055,8.2055,8.1989,8.1989,8.1885,8.1751,8.1652,8.1587,8.1811,8.196,8.236,8.2867,8.3265,8.3591,8.3917,8.4424,8.504,8.5221,8.5366,8.5692,8.5909,8.5837,7.5976,7.5976,7.5976,7.5976,7.5976,7.5976,7.6092,7.6284,7.6938,7.7361,7.7361,7.6707,7.6861,7.7207,7.7669,7.8646,7.9422,7.9883,8.0356,8.0558,8.0716,8.0685,8.0723,8.0723,8.0542,8.0354,8.0037,7.9702,7.9198,7.8313,7.7589,7.7156,7.7297,7.7598,7.756,7.8151,7.9079,7.884,7.8686,7.8512,7.8183,7.782,7.7584,7.7402,7.7341,7.7341,7.7341,7.7341,7.7341,7.7451,7.7561,7.8112,7.8516,7.8772,7.925,7.969,7.9947,8.0057,8.0351,8.0865,8.1048,8.1305,8.1929,8.215,8.215,8.2113,8.2076,8.2076,8.2076,8.2076,8.2076,8.2076,8.2076,8.2113,8.2113,8.2113,8.215,8.2186,8.2186,8.2186,8.2186,8.2186,8.2186,8.2186,8.2186,8.2186,8.2186,8.2186,8.2186,8.2186,8.2186,8.2186,8.2121,8.2121,8.2186,8.2121,8.2055,8.2055,8.1989,8.1824,8.1875,8.2354,8.2721,8.3012,8.3447,8.3953,8.4424,8.4786,8.533,8.5692,8.5692,8.5656,8.5728,8.5909,8.5909,7.5976,7.5976,7.5976,7.5976,7.5976,7.5976,7.6399,7.7015,7.7207,7.763,7.813,7.8169,7.8169,7.8323,7.9054,7.9677,7.9908,8.0407,8.0651,8.0888,8.0893,8.086,8.0826,8.0826,8.0723,8.0542,8.0316,8.0119,7.9794,7.9031,7.8495,7.8176,7.8252,7.8441,7.8479,7.9078,7.9517,7.9331,7.9177,7.8979,7.8565,7.8127,7.7762,7.7524,7.7402,7.7341,7.7341,7.7341,7.7341,7.7524,7.8038,7.8736,7.925,7.9617,8.0021,8.0534,8.0755,8.1012,8.1342,8.1599,8.1746,8.1782,8.2186,8.2186,8.215,8.215,8.215,8.215,8.215,8.215,8.215,8.215,8.215,8.215,8.215,8.215,8.2186,8.2186,8.2186,8.2186,8.2186,8.2186,8.2186,8.2186,8.2186,8.2186,8.2186,8.2186,8.2186,8.2186,8.2186,8.2186,8.2186,8.2186,8.2186,8.2186,8.2121,8.2186,8.2267,8.2398,8.2705,8.3225,8.3556,8.3847,8.4208,8.4714,8.5149,8.5402,8.5583,8.5837,8.5837,8.5873,8.5909,8.5909,8.5909]},{"header":{"parameterUnit":"m.s-1","parameterCategory":1,"la1":31.0,"la2":29.5877,"lo1":-88.7671,"lo2":-86.6584,"dy":0.0162,"dx":0.0185,"nx":115,"ny":88,"refTime":"2024-03-31T12:00:00:Z","depth":0,"parameterNumber":3,"parameterNumberName":"V-component_of_WINDS"},"data":[0.0,0.0,0.0,0.0,0.0,0.0,0.0,0.0,0.0,0.0,0.0,0.0,0.0,0.0,0.0,0.0,0.0,0.0,0.0,0.0,0.0,0.0,0.0,0.0,0.0,0.0,0.0,0.0,0.0,0.0,0.0,0.0,0.0,0.0,0.0,0.0,0.0,0.0,0.0,0.0,0.0,0.0,0.0,0.0,0.0,0.0,0.0,0.0,0.0,0.0,0.0,0.0,0.0,0.0,0.0,0.0,0.0,0.0,0.0,0.0,0.0,0.0,0.0,0.0,0.0,0.0,0.0,0.0,0.0,0.0,0.0,0.0,0.0,0.0,0.0,0.0,0.0,0.0,0.0,0.0,0.0,0.0,0.0,0.0,0.0,0.0,0.0,0.0,0.0,0.0,0.0,0.0,0.0,0.0,0.0,0.0,0.0,0.0,0.0,0.0,0.0,0.0,0.0,0.0,0.0,0.0,0.0,0.0,0.0,0.0,0.0,0.0,0.0,0.0,0.0,0.0,0.0,0.0,0.0,0.0,0.0,0.0,0.0,0.0,0.0,0.0,0.0,0.0,0.0,0.0,0.0,0.0,0.0,0.0,0.0,0.0,0.0,0.0,0.0,0.0,0.0,0.0,0.0,0.0,0.0,0.0,0.0,0.0,0.0,0.0,0.0,0.0,0.0,0.0,0.0,0.0,0.0,0.0,0.0,0.0,0.0,0.0,0.0,0.0,0.0,0.0,0.0,0.0,0.0,0.0,0.0,0.0,0.0,0.0,0.0,0.0,0.0,0.0,0.0,0.0,0.0,0.0,0.0,0.0,0.0,0.0,0.0,0.0,0.0,0.0,0.0,0.0,0.0,0.0,0.0,0.0,0.0,0.0,0.0,0.0,0.0,0.0,0.0,0.0,0.0,0.0,0.0,0.0,0.0,0.0,0.0,0.0,0.0,0.0,0.0,0.0,0.0,0.0,0.0,0.0,0.0,0.0,0.0,0.0,0.0,0.0,0.0,0.0,0.0,0.0,0.0,0.0,0.0,0.0,0.0,0.0,0.0,0.0,0.0,0.0,0.0,0.0,0.0,0.0,0.0,0.0,0.0,0.0,0.0,0.0,0.0,0.0,0.0,0.0,0.0,0.0,0.0,0.0,0.0,0.0,0.0,0.0,0.0,0.0,0.0,0.0,0.0,0.0,0.0,0.0,0.0,0.0,0.0,0.0,0.0,0.0,0.0,0.0,0.0,0.0,0.0,0.0,0.0,0.0,0.0,0.0,0.0,0.0,0.0,0.0,0.0,0.0,0.0,0.0,0.0,0.0,0.0,0.0,0.0,0.0,0.0,0.0,0.0,0.0,0.0,0.0,0.0,0.0,0.0,0.0,0.0,0.0,0.0,0.0,0.0,0.0,0.0,0.0,0.0,0.0,0.0,0.0,0.0,0.0,0.0,0.0,0.0,0.0,0.0,0.0,0.0,0.0,0.0,0.0,0.0,0.0,0.0,0.0,0.0,0.0,0.0,0.0,0.0,0.0,0.0,0.0,0.0,0.0,0.0,0.0,0.0,0.0,0.0,0.0,0.0,0.0,0.0,0.0,0.0,0.0,0.0,0.0,0.0,0.0,0.0,0.0,0.0,0.0,0.0,0.0,0.0,0.0,0.0,0.0,0.0,0.0,0.0,0.0,0.0,0.0,0.0,0.0,0.0,0.0,0.0,0.0,0.0,0.0,0.0,0.0,0.0,0.0,0.0,0.0,0.0,0.0,0.0,0.0,0.0,0.0,0.0,0.0,0.0,0.0,0.0,0.0,0.0,0.0,0.0,0.0,0.0,0.0,0.0,0.0,0.0,0.0,0.0,0.0,0.0,0.0,0.0,0.0,0.0,0.0,0.0,0.0,0.0,0.0,0.0,0.0,0.0,0.0,0.0,0.0,0.0,0.0,0.0,0.0,0.0,0.0,0.0,0.0,0.0,0.0,0.0,0.0,0.0,0.0,0.0,0.0,0.0,0.0,0.0,0.0,0.0,0.0,0.0,0.0,0.0,0.0,0.0,0.0,0.0,0.0,0.0,0.0,0.0,0.0,0.0,0.0,0.0,0.0,0.0,0.0,0.0,0.0,0.0,0.0,0.0,0.0,0.0,0.0,0.0,0.0,0.0,0.0,0.0,0.0,0.0,0.0,0.0,0.0,0.0,0.0,0.0,0.0,0.0,0.0,0.0,0.0,0.0,0.0,0.0,0.0,0.0,0.0,0.0,0.0,0.0,0.0,0.0,0.0,0.0,0.0,0.0,0.0,0.0,0.0,0.0,0.0,0.0,0.0,0.0,0.0,0.0,0.0,0.0,0.0,0.0,0.0,0.0,0.0,0.0,0.0,0.0,0.0,0.0,0.0,0.0,0.0,0.0,0.0,0.0,0.0,0.0,0.0,0.0,0.0,0.0,0.0,0.0,0.0,0.0,0.0,0.0,0.0,0.0,0.0,0.0,0.0,0.0,0.0,0.0,0.0,0.0,0.0,0.0,0.0,0.0,0.0,0.0,0.0,0.0,0.0,0.0,0.0,0.0,0.0,0.0,0.0,0.0,0.0,0.0,0.0,0.0,0.0,0.0,0.0,0.0,0.0,0.0,0.0,0.0,0.0,0.0,0.0,0.0,0.0,0.0,0.0,0.0,0.0,0.0,0.0,0.0,0.0,0.0,0.0,0.0,0.0,0.0,0.0,0.0,0.0,0.0,0.0,0.0,0.0,0.0,0.0,0.0,0.0,0.0,0.0,0.0,0.0,0.0,0.0,0.0,0.0,0.0,0.0,0.0,0.0,0.0,0.0,0.0,0.0,0.0,0.0,0.0,0.0,0.0,0.0,0.0,0.0,0.0,0.0,0.0,0.0,0.0,0.0,0.0,0.0,0.0,0.0,0.0,0.0,0.0,0.0,0.0,0.0,0.0,0.0,0.0,0.0,0.0,0.0,0.0,0.0,0.0,0.0,0.0,0.0,0.0,0.0,0.0,0.0,0.0,0.0,0.0,0.0,0.0,0.0,0.0,0.0,0.0,0.0,0.0,0.0,0.0,0.0,0.0,0.0,0.0,0.0,0.0,0.0,0.0,0.0,0.0,0.0,0.0,0.0,0.0,0.0,0.0,0.0,0.0,0.0,0.0,0.0,0.0,0.0,0.0,0.0,0.0,0.0,0.0,0.0,0.0,0.0,0.0,0.0,0.0,0.0,0.0,0.0,0.0,0.0,0.0,0.0,0.0,0.0,0.0,0.0,0.0,0.0,0.0,0.0,0.0,0.0,0.0,0.0,0.0,0.0,0.0,0.0,0.0,0.0,0.0,0.0,0.0,0.0,0.0,0.0,0.0,0.0,0.0,0.0,0.0,0.0,0.0,0.0,0.0,0.0,0.0,0.0,0.0,0.0,0.0,0.0,0.0,0.0,0.0,0.0,0.0,0.0,0.0,0.0,0.0,0.0,0.0,0.0,0.0,0.0,0.0,0.0,0.0,0.0,0.0,0.0,0.0,0.0,0.0,0.0,0.0,0.0,0.0,0.0,0.0,0.0,0.0,0.0,0.0,0.0,0.0,0.0,0.0,0.0,0.0,0.0,0.0,0.0,0.0,0.0,0.0,0.0,0.0,0.0,0.0,0.0,0.0,0.0,0.0,0.0,0.0,0.0,0.0,0.0,0.0,0.0,0.0,0.0,0.0,0.0,0.0,0.0,0.0,0.0,0.0,0.0,0.0,0.0,0.0,0.0,0.0,0.0,0.0,0.0,0.0,0.0,0.0,0.0,0.0,0.0,0.0,0.0,0.0,0.0,0.0,0.0,0.0,0.0,0.0,0.0,0.0,0.0,0.0,0.0,0.0,0.0,0.0,0.0,0.0,0.0,0.0,0.0,0.0,0.0,0.0,0.0,0.0,0.0,0.0,0.0,0.0,0.0,0.0,0.0,0.0,0.0,0.0,0.0,0.0,0.0,0.0,0.0,0.0,0.0,0.0,0.0,0.0,0.0,0.0,0.0,0.0,0.0,0.0,0.0,0.0,0.0,0.0,0.0,0.0,0.0,0.0,0.0,0.0,0.0,0.0,0.0,0.0,0.0,0.0,0.0,0.0,0.0,0.0,0.0,0.0,0.0,0.0,0.0,0.0,0.0,0.0,0.0,0.0,0.0,0.0,0.0,0.0,0.0,0.0,0.0,0.0,0.0,0.0,0.0,0.0,0.0,0.0,0.0,0.0,0.0,0.0,0.0,0.0,0.0,0.0,0.0,0.0,0.0,0.0,0.0,-1.8602,0.0,0.0,0.0,0.0,0.0,0.0,0.0,0.0,0.0,0.0,0.0,0.0,0.0,0.0,0.0,0.0,0.0,0.0,0.0,0.0,0.0,0.0,0.0,0.0,0.0,0.0,0.0,0.0,0.0,0.0,0.0,0.0,0.0,0.0,0.0,0.0,0.0,0.0,0.0,0.0,0.0,0.0,0.0,0.0,0.0,0.0,0.0,0.0,0.0,0.0,0.0,0.0,0.0,0.0,0.0,0.0,0.0,0.0,0.0,0.0,0.0,0.0,0.0,0.0,0.0,0.0,0.0,0.0,0.0,0.0,0.0,0.0,0.0,0.0,0.0,0.0,0.0,0.0,0.0,0.0,0.0,0.0,0.0,0.0,0.0,0.0,0.0,0.0,0.0,0.0,0.0,0.0,0.0,0.0,0.0,0.0,0.0,0.0,0.0,0.0,0.0,0.0,0.0,0.0,0.0,0.0,0.0,0.0,0.0,0.0,-1.817,-1.8139,-1.8139,-1.8084,-1.8139,0.0,0.0,0.0,0.0,0.0,0.0,0.0,0.0,0.0,0.0,0.0,0.0,0.0,0.0,0.0,0.0,0.0,0.0,0.0,0.0,0.0,0.0,0.0,0.0,0.0,0.0,0.0,0.0,0.0,0.0,0.0,0.0,0.0,0.0,0.0,0.0,0.0,0.0,0.0,0.0,0.0,0.0,0.0,0.0,0.0,0.0,0.0,0.0,0.0,0.0,0.0,0.0,0.0,0.0,0.0,0.0,0.0,0.0,0.0,0.0,0.0,0.0,0.0,0.0,0.0,0.0,0.0,0.0,0.0,0.0,0.0,0.0,0.0,0.0,0.0,0.0,0.0,0.0,0.0,0.0,0.0,0.0,0.0,0.0,0.0,0.0,0.0,0.0,0.0,0.0,0.0,0.0,0.0,0.0,0.0,0.0,0.0,0.0,0.0,0.0,0.0,0.0,0.0,0.0,0.0,0.0,0.0,0.0,0.0,0.0,0.0,0.0,-1.77,-1.77,-1.77,0.0,0.0,0.0,0.0,0.0,0.0,0.0,0.0,0.0,0.0,0.0,0.0,0.0,0.0,0.0,0.0,0.0,0.0,0.0,0.0,0.0,0.0,0.0,0.0,0.0,0.0,0.0,0.0,0.0,0.0,0.0,0.0,0.0,0.0,0.0,0.0,0.0,0.0,0.0,0.0,0.0,0.0,0.0,0.0,0.0,0.0,0.0,0.0,0.0,0.0,0.0,0.0,0.0,0.0,0.0,0.0,0.0,0.0,0.0,0.0,0.0,0.0,0.0,0.0,0.0,0.0,0.0,0.0,0.0,0.0,0.0,0.0,0.0,0.0,0.0,0.0,0.0,0.0,0.0,0.0,0.0,0.0,0.0,0.0,0.0,0.0,0.0,0.0,0.0,0.0,0.0,0.0,0.0,0.0,0.0,0.0,0.0,0.0,0.0,0.0,0.0,0.0,0.0,0.0,0.0,0.0,0.0,0.0,0.0,0.0,-1.77,-1.77,-1.77,0.0,-1.77,0.0,0.0,0.0,0.0,0.0,0.0,0.0,0.0,0.0,0.0,0.0,0.0,0.0,0.0,0.0,0.0,0.0,0.0,0.0,0.0,0.0,0.0,0.0,0.0,0.0,0.0,0.0,0.0,0.0,0.0,0.0,0.0,0.0,0.0,0.0,0.0,0.0,0.0,0.0,0.0,0.0,0.0,0.0,0.0,0.0,0.0,0.0,0.0,0.0,0.0,0.0,0.0,0.0,0.0,0.0,0.0,0.0,0.0,0.0,0.0,0.0,0.0,0.0,0.0,0.0,0.0,0.0,0.0,0.0,0.0,0.0,0.0,0.0,0.0,0.0,0.0,0.0,0.0,0.0,0.0,0.0,0.0,0.0,0.0,0.0,0.0,0.0,0.0,0.0,0.0,0.0,0.0,0.0,0.0,0.0,0.0,0.0,0.0,0.0,0.0,0.0,0.0,0.0,0.0,0.0,0.0,0.0,0.0,0.0,0.0,-1.7256,-1.7145,-1.7145,-1.7145,0.0,0.0,0.0,0.0,0.0,0.0,0.0,0.0,0.0,0.0,0.0,0.0,0.0,0.0,0.0,0.0,0.0,0.0,0.0,0.0,0.0,0.0,0.0,0.0,0.0,0.0,0.0,0.0,0.0,0.0,0.0,0.0,0.0,0.0,0.0,0.0,0.0,0.0,0.0,0.0,0.0,0.0,0.0,0.0,0.0,0.0,0.0,0.0,0.0,0.0,0.0,0.0,0.0,0.0,0.0,0.0,0.0,0.0,0.0,0.0,0.0,0.0,0.0,0.0,0.0,0.0,0.0,0.0,0.0,0.0,0.0,0.0,0.0,0.0,0.0,0.0,0.0,0.0,0.0,0.0,0.0,0.0,0.0,0.0,0.0,0.0,0.0,0.0,0.0,0.0,0.0,0.0,0.0,0.0,0.0,0.0,0.0,0.0,0.0,0.0,0.0,0.0,0.0,0.0,0.0,0.0,0.0,0.0,0.0,0.0,-1.7084,-1.7113,-1.6999,-1.6871,-1.6751,-1.6828,0.0,0.0,0.0,0.0,0.0,0.0,0.0,0.0,0.0,0.0,0.0,0.0,0.0,0.0,0.0,0.0,0.0,0.0,0.0,0.0,0.0,0.0,0.0,0.0,0.0,0.0,0.0,0.0,0.0,0.0,0.0,0.0,0.0,0.0,0.0,0.0,0.0,0.0,0.0,0.0,0.0,0.0,0.0,0.0,0.0,0.0,0.0,0.0,0.0,0.0,0.0,0.0,0.0,0.0,0.0,0.0,0.0,0.0,0.0,0.0,0.0,0.0,0.0,0.0,0.0,0.0,0.0,0.0,0.0,0.0,0.0,0.0,0.0,0.0,0.0,0.0,0.0,0.0,0.0,0.0,0.0,0.0,0.0,0.0,0.0,0.0,0.0,0.0,0.0,0.0,0.0,0.0,0.0,0.0,0.0,0.0,0.0,0.0,0.0,0.0,0.0,0.0,0.0,0.0,0.0,0.0,0.0,0.0,-1.685,-1.7275,-1.7488,-1.7429,-1.7062,-1.6772,0.0,0.0,0.0,0.0,0.0,0.0,0.0,0.0,0.0,0.0,0.0,0.0,0.0,0.0,0.0,0.0,0.0,0.0,0.0,0.0,0.0,0.0,0.0,0.0,0.0,0.0,0.0,0.0,0.0,0.0,0.0,0.0,0.0,0.0,0.0,0.0,0.0,0.0,0.0,0.0,0.0,0.0,0.0,0.0,0.0,0.0,0.0,0.0,0.0,0.0,0.0,0.0,0.0,0.0,0.0,0.0,0.0,0.0,0.0,0.0,0.0,0.0,0.0,0.0,0.0,0.0,0.0,0.0,0.0,0.0,0.0,0.0,0.0,0.0,0.0,0.0,0.0,0.0,0.0,0.0,0.0,0.0,0.0,0.0,0.0,0.0,0.0,0.0,0.0,0.0,0.0,0.0,0.0,0.0,0.0,0.0,0.0,0.0,0.0,0.0,0.0,0.0,0.0,0.0,0.0,0.0,0.0,0.0,0.0,-1.7342,-1.753,-1.7613,-1.7613,-1.7447,-1.7363,0.0,0.0,0.0,0.0,0.0,0.0,0.0,0.0,0.0,0.0,0.0,0.0,0.0,0.0,0.0,0.0,0.0,0.0,0.0,0.0,0.0,0.0,0.0,0.0,0.0,0.0,0.0,0.0,0.0,0.0,0.0,0.0,0.0,0.0,0.0,0.0,0.0,0.0,0.0,0.0,0.0,0.0,0.0,0.0,0.0,0.0,0.0,0.0,0.0,0.0,0.0,0.0,0.0,0.0,0.0,0.0,0.0,0.0,0.0,0.0,0.0,0.0,0.0,0.0,0.0,0.0,0.0,0.0,0.0,0.0,0.0,0.0,0.0,0.0,0.0,0.0,0.0,0.0,0.0,0.0,0.0,0.0,0.0,0.0,0.0,0.0,0.0,0.0,0.0,0.0,0.0,0.0,0.0,0.0,0.0,0.0,0.0,0.0,0.0,0.0,0.0,0.0,0.0,0.0,0.0,0.0,0.0,0.0,0.0,-1.8006,0.0,-1.782,-1.7963,-1.784,-1.7697,0.0,0.0,0.0,0.0,0.0,0.0,0.0,0.0,0.0,0.0,0.0,0.0,0.0,0.0,0.0,0.0,0.0,0.0,0.0,0.0,0.0,0.0,0.0,0.0,0.0,0.0,0.0,0.0,0.0,0.0,0.0,0.0,0.0,0.0,0.0,0.0,0.0,0.0,0.0,0.0,0.0,0.0,0.0,0.0,0.0,0.0,0.0,0.0,0.0,0.0,0.0,0.0,0.0,0.0,0.0,0.0,0.0,0.0,0.0,0.0,0.0,0.0,0.0,0.0,0.0,0.0,0.0,0.0,0.0,0.0,0.0,0.0,0.0,0.0,0.0,0.0,0.0,0.0,0.0,0.0,0.0,0.0,0.0,0.0,0.0,0.0,0.0,0.0,0.0,0.0,0.0,0.0,0.0,0.0,0.0,0.0,0.0,0.0,0.0,0.0,0.0,0.0,0.0,0.0,0.0,0.0,0.0,0.0,-1.8109,-1.8777,-1.8213,-1.8081,-1.8462,-1.8101,-1.7789,0.0,0.0,0.0,0.0,0.0,0.0,0.0,0.0,0.0,0.0,0.0,0.0,0.0,0.0,0.0,0.0,0.0,0.0,0.0,0.0,0.0,0.0,0.0,0.0,0.0,0.0,0.0,0.0,0.0,0.0,0.0,0.0,0.0,0.0,0.0,0.0,0.0,0.0,0.0,0.0,0.0,0.0,0.0,0.0,0.0,0.0,0.0,0.0,0.0,0.0,0.0,0.0,0.0,0.0,0.0,0.0,0.0,0.0,0.0,0.0,0.0,0.0,0.0,0.0,0.0,0.0,0.0,0.0,0.0,0.0,0.0,0.0,0.0,0.0,0.0,0.0,0.0,0.0,0.0,0.0,0.0,0.0,0.0,0.0,0.0,0.0,0.0,0.0,0.0,0.0,0.0,0.0,0.0,0.0,0.0,0.0,0.0,0.0,0.0,0.0,0.0,0.0,0.0,0.0,0.0,0.0,0.0,0.0,0.0,-1.997,-1.9475,-1.9384,-1.9805,-1.9404,-1.9052,0.0,0.0,0.0,0.0,0.0,0.0,0.0,0.0,0.0,0.0,0.0,0.0,0.0,0.0,0.0,0.0,0.0,0.0,0.0,0.0,0.0,0.0,0.0,0.0,0.0,0.0,0.0,0.0,0.0,0.0,0.0,0.0,0.0,0.0,0.0,0.0,0.0,0.0,0.0,0.0,0.0,0.0,0.0,0.0,0.0,0.0,0.0,0.0,0.0,0.0,0.0,0.0,0.0,0.0,0.0,0.0,0.0,0.0,0.0,0.0,0.0,0.0,0.0,0.0,0.0,0.0,0.0,0.0,0.0,0.0,0.0,0.0,0.0,0.0,0.0,0.0,0.0,0.0,0.0,0.0,0.0,0.0,0.0,0.0,0.0,0.0,0.0,0.0,0.0,0.0,0.0,0.0,0.0,0.0,0.0,0.0,0.0,0.0,0.0,0.0,0.0,0.0,0.0,0.0,0.0,0.0,0.0,0.0,0.0,-2.1174,-2.0619,-2.044,-2.0718,-2.0301,-1.9939,-1.9573,0.0,0.0,0.0,0.0,0.0,0.0,0.0,0.0,0.0,0.0,0.0,0.0,0.0,0.0,0.0,0.0,0.0,0.0,0.0,0.0,0.0,0.0,0.0,0.0,0.0,0.0,0.0,0.0,0.0,0.0,0.0,0.0,0.0,0.0,0.0,0.0,0.0,0.0,0.0,0.0,0.0,0.0,0.0,0.0,0.0,0.0,0.0,0.0,0.0,0.0,0.0,0.0,0.0,0.0,0.0,0.0,0.0,0.0,0.0,0.0,0.0,0.0,0.0,0.0,0.0,0.0,0.0,0.0,0.0,0.0,0.0,0.0,0.0,0.0,0.0,0.0,0.0,0.0,0.0,0.0,0.0,0.0,0.0,0.0,0.0,0.0,0.0,0.0,0.0,0.0,0.0,0.0,0.0,0.0,0.0,0.0,0.0,0.0,0.0,0.0,0.0,0.0,0.0,0.0,0.0,0.0,0.0,0.0,-2.2539,-2.1777,-2.1348,-2.1289,-2.0859,-2.0507,0.0,0.0,0.0,0.0,0.0,0.0,0.0,0.0,0.0,0.0,0.0,0.0,0.0,0.0,0.0,0.0,0.0,0.0,0.0,0.0,0.0,0.0,0.0,0.0,0.0,0.0,0.0,0.0,0.0,0.0,0.0,0.0,0.0,0.0,0.0,0.0,0.0,0.0,0.0,0.0,0.0,0.0,0.0,0.0,0.0,0.0,0.0,0.0,0.0,0.0,0.0,0.0,0.0,0.0,0.0,0.0,0.0,0.0,0.0,0.0,0.0,0.0,0.0,0.0,0.0,0.0,0.0,0.0,0.0,0.0,0.0,0.0,0.0,0.0,0.0,0.0,0.0,0.0,0.0,0.0,0.0,0.0,0.0,0.0,0.0,0.0,0.0,0.0,0.0,0.0,0.0,0.0,0.0,0.0,0.0,0.0,0.0,0.0,0.0,0.0,0.0,0.0,0.0,0.0,0.0,0.0,0.0,0.0,0.0,-2.2949,-2.3066,-2.2812,-2.2207,-2.1758,-2.1252,0.0,0.0,0.0,0.0,0.0,0.0,0.0,0.0,0.0,0.0,0.0,0.0,0.0,0.0,0.0,0.0,0.0,0.0,0.0,0.0,0.0,0.0,0.0,0.0,0.0,0.0,0.0,0.0,0.0,0.0,0.0,0.0,0.0,0.0,0.0,0.0,0.0,0.0,0.0,0.0,0.0,0.0,0.0,0.0,0.0,0.0,0.0,0.0,0.0,0.0,0.0,0.0,0.0,0.0,0.0,0.0,0.0,0.0,0.0,0.0,0.0,0.0,0.0,0.0,0.0,0.0,0.0,0.0,0.0,0.0,0.0,0.0,0.0,0.0,0.0,0.0,0.0,0.0,0.0,0.0,0.0,0.0,0.0,0.0,0.0,0.0,0.0,0.0,0.0,0.0,0.0,0.0,0.0,0.0,0.0,0.0,0.0,0.0,0.0,0.0,0.0,0.0,0.0,0.0,0.0,0.0,0.0,0.0,-2.2988,-2.3418,-2.3828,-2.3809,-2.332,-2.2734,-2.209,0.0,0.0,0.0,0.0,0.0,0.0,0.0,0.0,0.0,0.0,0.0,0.0,0.0,0.0,0.0,0.0,0.0,0.0,0.0,0.0,0.0,0.0,0.0,0.0,0.0,0.0,0.0,0.0,0.0,0.0,0.0,0.0,0.0,0.0,0.0,0.0,0.0,0.0,0.0,0.0,0.0,0.0,0.0,0.0,0.0,0.0,0.0,0.0,0.0,0.0,0.0,0.0,0.0,0.0,0.0,0.0,0.0,0.0,0.0,0.0,0.0,0.0,0.0,0.0,0.0,0.0,0.0,0.0,0.0,0.0,0.0,0.0,0.0,0.0,0.0,0.0,0.0,0.0,0.0,0.0,0.0,0.0,0.0,0.0,0.0,0.0,0.0,0.0,0.0,0.0,0.0,0.0,0.0,0.0,0.0,0.0,0.0,0.0,0.0,0.0,0.0,0.0,0.0,0.0,0.0,0.0,0.0,0.0,-2.3437,-2.3926,-2.4297,-2.4473,-2.4453,-2.3672,-2.3027,0.0,0.0,0.0,0.0,0.0,0.0,0.0,0.0,0.0,0.0,0.0,0.0,0.0,0.0,0.0,0.0,0.0,0.0,0.0,0.0,0.0,0.0,0.0,0.0,0.0,0.0,0.0,0.0,0.0,0.0,0.0,0.0,0.0,0.0,0.0,0.0,0.0,0.0,0.0,0.0,0.0,0.0,0.0,0.0,0.0,0.0,0.0,0.0,0.0,0.0,0.0,0.0,0.0,0.0,0.0,0.0,0.0,0.0,0.0,0.0,0.0,0.0,0.0,0.0,0.0,0.0,0.0,0.0,0.0,0.0,0.0,0.0,0.0,0.0,0.0,0.0,0.0,0.0,0.0,0.0,0.0,0.0,0.0,0.0,0.0,0.0,0.0,0.0,0.0,0.0,0.0,0.0,0.0,0.0,0.0,0.0,0.0,0.0,0.0,0.0,0.0,0.0,0.0,0.0,0.0,0.0,0.0,0.0,-2.4023,-2.4766,-2.4883,-2.4922,-2.4922,-2.4102,-2.3457,0.0,0.0,0.0,0.0,0.0,0.0,0.0,0.0,0.0,0.0,0.0,0.0,0.0,0.0,0.0,0.0,0.0,0.0,0.0,0.0,0.0,0.0,0.0,0.0,0.0,0.0,0.0,0.0,0.0,0.0,0.0,0.0,0.0,0.0,0.0,0.0,0.0,0.0,0.0,0.0,0.0,0.0,0.0,0.0,0.0,0.0,0.0,0.0,-2.5228,0.0,0.0,0.0,0.0,0.0,0.0,0.0,0.0,0.0,0.0,0.0,0.0,0.0,0.0,0.0,0.0,0.0,0.0,0.0,0.0,0.0,0.0,0.0,0.0,0.0,0.0,0.0,0.0,0.0,0.0,0.0,0.0,0.0,0.0,0.0,0.0,0.0,0.0,0.0,0.0,0.0,0.0,0.0,0.0,0.0,0.0,0.0,0.0,0.0,0.0,0.0,0.0,0.0,0.0,0.0,0.0,0.0,0.0,0.0,-2.4609,-2.5059,-2.5273,-2.5391,-2.5352,-2.4746,-2.4082,0.0,0.0,0.0,0.0,0.0,0.0,0.0,0.0,0.0,0.0,0.0,0.0,0.0,0.0,0.0,0.0,0.0,0.0,0.0,0.0,0.0,0.0,0.0,0.0,0.0,0.0,0.0,0.0,0.0,0.0,0.0,0.0,0.0,0.0,0.0,0.0,0.0,0.0,0.0,0.0,0.0,0.0,0.0,0.0,0.0,0.0,0.0,0.0,0.0,0.0,0.0,0.0,0.0,0.0,0.0,0.0,0.0,0.0,0.0,0.0,0.0,0.0,0.0,0.0,0.0,0.0,0.0,0.0,0.0,0.0,0.0,0.0,0.0,0.0,0.0,0.0,0.0,0.0,0.0,0.0,0.0,0.0,0.0,0.0,0.0,0.0,0.0,0.0,0.0,0.0,0.0,0.0,0.0,0.0,0.0,0.0,0.0,0.0,0.0,0.0,0.0,0.0,0.0,0.0,0.0,0.0,0.0,-2.4492,-2.5098,-2.5176,-2.5547,-2.5723,-2.5723,-2.5312,-2.4707,-2.3906,0.0,0.0,0.0,0.0,0.0,0.0,0.0,0.0,0.0,0.0,0.0,0.0,0.0,0.0,0.0,0.0,0.0,0.0,0.0,0.0,0.0,0.0,0.0,0.0,0.0,0.0,0.0,0.0,0.0,0.0,0.0,0.0,0.0,0.0,0.0,0.0,0.0,0.0,-2.1761,-2.2809,0.0,0.0,0.0,0.0,0.0,0.0,0.0,0.0,-2.6691,0.0,0.0,0.0,0.0,0.0,0.0,0.0,0.0,0.0,0.0,0.0,0.0,0.0,0.0,0.0,0.0,0.0,0.0,0.0,0.0,0.0,0.0,0.0,0.0,0.0,0.0,0.0,0.0,0.0,0.0,0.0,0.0,0.0,0.0,0.0,0.0,0.0,0.0,0.0,0.0,0.0,0.0,0.0,0.0,0.0,0.0,0.0,0.0,0.0,0.0,0.0,0.0,0.0,0.0,0.0,0.0,-2.4199,-2.4785,-2.5254,-2.5605,-2.5703,-2.5723,-2.5723,-2.5293,-2.4824,-2.4316,0.0,0.0,0.0,0.0,0.0,0.0,0.0,0.0,0.0,0.0,0.0,0.0,0.0,0.0,0.0,0.0,0.0,0.0,0.0,0.0,0.0,0.0,0.0,0.0,0.0,0.0,0.0,0.0,0.0,0.0,0.0,0.0,0.0,0.0,0.0,0.0,0.0,0.0,0.0,-2.2808,-2.3461,0.0,0.0,0.0,0.0,0.0,0.0,0.0,0.0,-2.5978,0.0,0.0,0.0,0.0,0.0,0.0,0.0,0.0,0.0,0.0,0.0,0.0,0.0,0.0,0.0,0.0,0.0,0.0,0.0,0.0,0.0,0.0,0.0,0.0,0.0,0.0,0.0,0.0,0.0,0.0,0.0,0.0,0.0,0.0,0.0,0.0,0.0,0.0,0.0,0.0,0.0,0.0,0.0,0.0,0.0,0.0,0.0,0.0,0.0,0.0,0.0,0.0,0.0,0.0,0.0,-2.4434,-2.5293,-2.5742,-2.5742,-2.5957,-2.5977,-2.5742,-2.5527,-2.5119,0.0,0.0,0.0,0.0,0.0,0.0,0.0,0.0,0.0,0.0,0.0,0.0,0.0,0.0,0.0,0.0,0.0,0.0,0.0,0.0,0.0,0.0,0.0,0.0,0.0,0.0,0.0,0.0,0.0,0.0,0.0,0.0,0.0,0.0,0.0,0.0,0.0,0.0,0.0,0.0,-2.3206,-2.3698,-2.3924,0.0,0.0,0.0,0.0,0.0,0.0,-2.639,-2.6331,0.0,0.0,0.0,0.0,0.0,0.0,0.0,0.0,0.0,0.0,0.0,0.0,0.0,0.0,0.0,0.0,0.0,0.0,0.0,0.0,0.0,0.0,0.0,0.0,0.0,0.0,0.0,0.0,0.0,0.0,0.0,0.0,0.0,0.0,0.0,0.0,0.0,0.0,0.0,0.0,0.0,0.0,0.0,0.0,0.0,0.0,0.0,0.0,0.0,0.0,0.0,0.0,0.0,0.0,0.0,-2.457,-2.5684,-2.6094,-2.5762,-2.6074,-2.6094,-2.5742,-2.5625,-2.5334,0.0,0.0,0.0,0.0,0.0,0.0,0.0,0.0,0.0,0.0,0.0,0.0,0.0,0.0,0.0,0.0,0.0,0.0,0.0,0.0,0.0,0.0,0.0,0.0,0.0,0.0,0.0,0.0,0.0,0.0,0.0,0.0,0.0,0.0,0.0,0.0,0.0,0.0,0.0,0.0,0.0,-2.4015,-2.4375,-2.4576,0.0,0.0,0.0,0.0,-2.6823,-2.6778,0.0,0.0,0.0,0.0,0.0,0.0,0.0,0.0,0.0,0.0,0.0,0.0,0.0,0.0,0.0,0.0,0.0,0.0,0.0,0.0,0.0,0.0,0.0,0.0,0.0,0.0,0.0,0.0,0.0,0.0,0.0,0.0,0.0,0.0,0.0,0.0,0.0,0.0,0.0,0.0,0.0,0.0,0.0,0.0,0.0,0.0,0.0,0.0,0.0,0.0,0.0,0.0,0.0,0.0,0.0,0.0,-2.5,-2.5547,-2.5781,-2.5742,-2.5801,-2.5801,-2.5742,-2.543,-2.514,0.0,0.0,0.0,0.0,0.0,0.0,0.0,0.0,0.0,0.0,0.0,0.0,0.0,0.0,0.0,0.0,0.0,0.0,0.0,0.0,0.0,0.0,0.0,0.0,0.0,0.0,0.0,0.0,0.0,0.0,0.0,0.0,0.0,0.0,0.0,0.0,0.0,0.0,0.0,0.0,0.0,-2.4088,-2.4128,-2.4802,-2.5431,0.0,0.0,-2.619,-2.6408,-2.6114,0.0,0.0,0.0,0.0,0.0,0.0,0.0,0.0,0.0,0.0,0.0,0.0,0.0,0.0,0.0,0.0,0.0,0.0,0.0,0.0,0.0,0.0,0.0,0.0,0.0,0.0,0.0,0.0,0.0,0.0,0.0,0.0,0.0,0.0,0.0,0.0,0.0,0.0,0.0,0.0,0.0,0.0,0.0,0.0,0.0,0.0,0.0,0.0,0.0,0.0,0.0,0.0,0.0,0.0,0.0,-2.4766,-2.5449,-2.6113,-2.6445,-2.6465,-2.6699,-2.6598,-2.6265,-2.5944,-2.5434,0.0,0.0,0.0,0.0,0.0,0.0,0.0,0.0,0.0,0.0,0.0,0.0,0.0,0.0,0.0,0.0,0.0,0.0,0.0,0.0,0.0,0.0,0.0,0.0,0.0,0.0,0.0,0.0,0.0,0.0,0.0,0.0,0.0,0.0,0.0,0.0,0.0,0.0,0.0,0.0,0.0,0.0,-2.4618,-2.5031,0.0,0.0,0.0,-2.6349,-2.668,0.0,0.0,0.0,0.0,0.0,0.0,0.0,0.0,0.0,0.0,0.0,0.0,0.0,0.0,0.0,0.0,0.0,0.0,0.0,0.0,0.0,0.0,0.0,0.0,0.0,0.0,0.0,0.0,0.0,0.0,0.0,0.0,0.0,0.0,0.0,0.0,0.0,0.0,0.0,0.0,0.0,0.0,0.0,0.0,0.0,0.0,0.0,0.0,0.0,0.0,0.0,0.0,0.0,0.0,0.0,0.0,0.0,-2.5898,-2.6641,-2.7012,-2.7031,-2.724,-2.7137,-2.65,-2.6069,0.0,0.0,0.0,0.0,0.0,0.0,0.0,0.0,0.0,0.0,0.0,0.0,0.0,0.0,0.0,0.0,0.0,0.0,0.0,0.0,0.0,0.0,0.0,0.0,0.0,0.0,0.0,-2.213,0.0,0.0,0.0,0.0,0.0,0.0,0.0,0.0,0.0,0.0,0.0,0.0,0.0,0.0,-2.4336,-2.498,-2.5156,-2.5352,0.0,0.0,-2.6367,-2.6797,-2.6504,-2.6367,0.0,0.0,0.0,0.0,0.0,0.0,0.0,0.0,0.0,0.0,0.0,0.0,0.0,0.0,0.0,0.0,0.0,0.0,0.0,0.0,0.0,0.0,0.0,0.0,0.0,0.0,0.0,0.0,0.0,0.0,0.0,0.0,0.0,0.0,0.0,0.0,0.0,0.0,0.0,0.0,0.0,0.0,0.0,0.0,0.0,0.0,0.0,0.0,0.0,0.0,0.0,0.0,0.0,0.0,0.0,-2.6328,-2.6797,-2.7012,-2.7012,-2.6827,-2.6519,-2.6153,-2.5655,-2.5057,0.0,0.0,0.0,0.0,0.0,0.0,0.0,0.0,0.0,0.0,0.0,0.0,0.0,0.0,0.0,0.0,0.0,0.0,0.0,0.0,0.0,0.0,0.0,0.0,0.0,0.0,0.0,0.0,0.0,0.0,0.0,0.0,0.0,0.0,0.0,0.0,0.0,0.0,0.0,0.0,0.0,-2.5,-2.5059,-2.543,-2.5703,0.0,0.0,-2.5937,-2.6367,-2.6074,-2.5918,-2.6367,0.0,0.0,0.0,0.0,0.0,0.0,0.0,0.0,0.0,0.0,0.0,0.0,0.0,0.0,0.0,0.0,0.0,0.0,0.0,0.0,0.0,0.0,0.0,0.0,0.0,0.0,0.0,0.0,0.0,0.0,0.0,0.0,0.0,0.0,0.0,0.0,0.0,0.0,0.0,0.0,0.0,0.0,0.0,0.0,0.0,0.0,0.0,0.0,0.0,0.0,0.0,0.0,0.0,-2.5506,-2.6555,-2.6982,-2.7311,-2.7563,-2.7266,-2.6842,-2.6398,-2.5863,-2.5148,0.0,0.0,0.0,0.0,0.0,0.0,0.0,0.0,0.0,0.0,0.0,0.0,0.0,0.0,0.0,0.0,0.0,0.0,0.0,0.0,0.0,0.0,0.0,0.0,0.0,0.0,0.0,0.0,-2.4493,-2.4532,-2.4098,0.0,0.0,0.0,0.0,0.0,0.0,0.0,0.0,0.0,0.0,-2.5156,-2.5449,-2.5625,0.0,0.0,-2.6172,-2.6582,-2.6738,-2.6641,-2.6582,-2.6758,-2.6055,0.0,0.0,0.0,0.0,0.0,0.0,0.0,0.0,0.0,0.0,0.0,0.0,0.0,0.0,0.0,0.0,0.0,0.0,0.0,0.0,0.0,0.0,0.0,0.0,0.0,0.0,0.0,0.0,0.0,0.0,0.0,0.0,0.0,0.0,0.0,0.0,0.0,0.0,0.0,0.0,0.0,0.0,0.0,0.0,0.0,0.0,0.0,0.0,0.0,0.0,0.0,0.0,-2.5352,-2.6172,-2.6702,-2.7226,-2.753,-2.7206,-2.6772,-2.6336,-2.5789,-2.4937,0.0,0.0,0.0,0.0,0.0,0.0,0.0,0.0,0.0,0.0,0.0,0.0,0.0,0.0,0.0,0.0,0.0,0.0,0.0,0.0,0.0,0.0,0.0,0.0,0.0,0.0,0.0,0.0,-2.4609,-2.4434,-2.4023,0.0,0.0,0.0,0.0,0.0,0.0,0.0,0.0,0.0,0.0,-2.5586,-2.5879,-2.6035,-2.6133,-2.6113,-2.6621,-2.7012,-2.7012,-2.7012,-2.7012,-2.7012,0.0,0.0,0.0,0.0,0.0,0.0,0.0,0.0,0.0,0.0,0.0,0.0,0.0,0.0,0.0,0.0,0.0,0.0,0.0,0.0,0.0,0.0,0.0,0.0,0.0,0.0,0.0,0.0,0.0,0.0,-1.4211,0.0,0.0,0.0,0.0,0.0,0.0,0.0,0.0,0.0,0.0,0.0,0.0,0.0,0.0,0.0,0.0,0.0,0.0,0.0,0.0,0.0,0.0,0.0,-2.5362,-2.6133,-2.6645,-2.6645,-2.6336,-2.6026,-2.5679,-2.511,-2.4387,-2.336,0.0,0.0,0.0,0.0,0.0,0.0,0.0,0.0,0.0,0.0,0.0,0.0,0.0,0.0,0.0,0.0,0.0,0.0,0.0,0.0,0.0,0.0,0.0,0.0,0.0,0.0,-2.5059,-2.5059,-2.4863,0.0,0.0,0.0,0.0,0.0,0.0,0.0,0.0,0.0,0.0,-2.582,-2.6367,-2.6387,-2.6719,-2.6953,-2.6973,-2.6992,-2.7012,-2.7031,-2.7031,-2.7031,0.0,0.0,0.0,0.0,0.0,0.0,0.0,0.0,0.0,0.0,0.0,0.0,0.0,0.0,0.0,0.0,0.0,0.0,0.0,0.0,0.0,0.0,0.0,0.0,0.0,0.0,0.0,-1.5427,-1.5413,0.0,0.0,0.0,0.0,0.0,0.0,0.0,0.0,0.0,0.0,0.0,-1.9933,-2.0138,0.0,0.0,0.0,0.0,0.0,0.0,0.0,0.0,0.0,0.0,0.0,0.0,-2.5032,-2.543,-2.5847,-2.6008,-2.6008,-2.5441,-2.5128,-2.4812,-2.4479,-2.3612,-2.2482,0.0,0.0,0.0,0.0,0.0,0.0,0.0,0.0,0.0,0.0,0.0,0.0,0.0,0.0,0.0,0.0,0.0,0.0,0.0,0.0,0.0,0.0,0.0,0.0,0.0,-2.5195,0.0,0.0,0.0,0.0,0.0,0.0,0.0,0.0,0.0,0.0,0.0,-2.5293,-2.5879,-2.6191,-2.6484,-2.6777,-2.6914,-2.7012,0.0,0.0,0.0,0.0,0.0,0.0,0.0,0.0,0.0,0.0,0.0,0.0,0.0,0.0,-2.5977,-2.5283,-2.5287,-2.5678,-2.6147,0.0,0.0,0.0,0.0,0.0,0.0,0.0,0.0,0.0,0.0,0.0,0.0,0.0,0.0,0.0,0.0,-1.6236,0.0,0.0,0.0,0.0,0.0,0.0,0.0,0.0,-1.9894,-2.036,-2.036,-2.0452,-2.0559,0.0,-2.0649,-2.0726,0.0,0.0,0.0,0.0,0.0,0.0,0.0,0.0,-2.4419,-2.4538,-2.47,-2.4795,-2.4795,-2.4334,-2.4128,-2.3921,-2.3472,-2.2783,-2.1892,-2.1562,-2.1182,0.0,0.0,0.0,0.0,0.0,0.0,0.0,0.0,0.0,0.0,0.0,0.0,0.0,0.0,0.0,0.0,0.0,0.0,0.0,0.0,0.0,0.0,0.0,-2.541,0.0,0.0,0.0,0.0,0.0,0.0,0.0,0.0,0.0,-2.5527,-2.5527,-2.5801,-2.6504,-2.6738,-2.6934,-2.7207,0.0,0.0,0.0,0.0,0.0,0.0,0.0,-2.832,-2.832,-2.8086,-2.7851,-2.7695,-2.7676,-2.7617,-2.748,0.0,0.0,-2.5957,-2.5977,-2.6269,-2.6743,-2.7201,-2.75,-2.7804,-2.8147,-2.8411,0.0,0.0,0.0,0.0,0.0,0.0,0.0,0.0,-1.6647,-1.678,0.0,-1.678,0.0,0.0,0.0,0.0,0.0,0.0,0.0,0.0,-1.9699,-1.9938,-2.0157,-2.0485,-2.058,-2.058,-2.0907,-2.1124,-2.1078,-2.1202,0.0,0.0,0.0,0.0,0.0,0.0,-2.2921,-2.2954,-2.3071,-2.3022,-2.3022,-2.3022,-2.3022,-2.3022,-2.2456,-2.2002,-2.1645,-2.1347,-2.1056,-2.1026,-2.0468,0.0,0.0,0.0,0.0,0.0,0.0,0.0,0.0,0.0,0.0,0.0,0.0,0.0,0.0,0.0,0.0,0.0,0.0,0.0,0.0,-2.5315,0.0,0.0,0.0,0.0,0.0,0.0,0.0,0.0,0.0,0.0,-2.6426,-2.6406,-2.6562,-2.6973,0.0,0.0,0.0,0.0,-2.8476,-2.8867,-2.8945,-2.9082,-2.9492,-2.9551,-2.9551,-2.9551,0.0,0.0,-2.9004,-2.8926,-2.8789,-2.8418,-2.834,-2.8066,-2.7266,-2.709,-2.7109,-2.7109,-2.7353,-2.7498,-2.7518,-2.8161,-2.8605,-1.7475,0.0,0.0,0.0,0.0,-1.7088,-1.7328,-1.7542,-1.7849,-1.7983,-1.7983,-1.7983,0.0,0.0,0.0,0.0,0.0,0.0,-1.914,-1.9348,-1.9878,-2.0231,-2.0231,-2.0571,-2.067,-2.067,-2.1023,-2.1151,-2.1151,-2.1405,-2.1447,-2.1294,0.0,0.0,0.0,0.0,-2.272,-2.2959,-2.2862,-2.2683,-2.2683,-2.2456,-2.2343,-2.2343,-2.2002,-2.1774,-2.1675,-2.1343,-2.1068,-2.0847,-2.0788,0.0,0.0,0.0,0.0,0.0,0.0,0.0,0.0,0.0,0.0,0.0,0.0,0.0,0.0,0.0,0.0,0.0,0.0,0.0,-2.5503,-2.5916,-2.6074,0.0,0.0,0.0,0.0,0.0,0.0,0.0,0.0,0.0,-2.7207,-2.7031,-2.6992,0.0,0.0,-2.8223,-2.8516,-2.8926,-2.9258,-2.9355,0.0,0.0,0.0,-2.957,-2.957,-2.957,-2.957,-2.9531,-2.9414,-2.9394,-2.9355,-2.9238,-2.9199,-2.9121,-2.8906,-2.8574,-2.8398,-2.8398,-2.8721,-2.9046,-2.9174,-2.9382,-2.959,-1.8624,-1.7996,-1.7582,-1.7515,-1.7689,-1.7862,-1.8036,-1.821,-1.841,-1.849,-1.849,-1.849,-1.8384,-1.821,-1.8223,0.0,0.0,0.0,-1.9326,-1.9549,-1.9957,-2.0155,-2.027,-2.0486,-2.05,-2.0486,-2.0744,-2.0859,-2.0859,-2.1089,-2.1112,-2.0952,0.0,0.0,-2.2019,-2.2147,-2.224,-2.2456,-2.2368,-2.22,-2.22,-2.2221,-2.2105,-2.197,-2.174,-2.168,-2.1447,-2.1318,-2.1115,-2.0925,-2.0891,-2.0663,0.0,0.0,0.0,0.0,0.0,0.0,0.0,0.0,0.0,0.0,0.0,-2.0262,0.0,0.0,0.0,0.0,-2.4132,-2.5201,-2.5895,-2.6319,0.0,0.0,0.0,0.0,0.0,0.0,0.0,-2.6621,-2.6934,-2.7324,-2.7851,-2.7988,-2.8066,-2.8164,-2.8535,-2.8887,-2.9141,0.0,-2.9883,-3.0059,-3.0234,-3.041,-3.0566,-3.0605,-3.0605,-3.0605,-3.0605,-3.0605,-3.0605,-3.0605,-3.0605,-3.0605,-3.0605,-3.0605,-3.0605,-3.0371,-2.9941,-2.9336,-2.9375,-2.9721,-3.001,-3.0207,-3.0478,-1.9746,-1.9452,-1.8905,-1.8637,-1.8597,-1.8597,-1.8597,-1.8624,-1.8637,-1.8624,-1.8624,-1.8624,-1.8624,-1.8624,-1.8624,0.0,0.0,-1.9025,-1.9287,-1.9761,-1.9761,-2.0007,-2.034,-2.034,-2.034,-2.0354,-2.034,-2.034,-2.0354,-2.0354,-2.0456,-2.0787,-2.1606,-2.2063,-2.2033,-2.182,-2.172,-2.1765,-2.17,-2.173,-2.1745,-2.2023,-2.2037,-2.1745,-2.173,-2.1598,-2.1306,-2.1291,-2.1276,-2.1233,-2.0955,-2.0779,-2.0706,0.0,0.0,0.0,0.0,0.0,0.0,0.0,0.0,0.0,0.0,0.0,0.0,0.0,0.0,0.0,-2.4579,0.0,-2.6003,-2.6416,0.0,0.0,0.0,-2.7012,-2.7012,-2.7012,-2.7051,-2.7109,0.0,0.0,-2.8398,0.0,-2.9473,-2.9121,-2.9414,-2.9668,-2.9687,-3.0078,-3.0508,-3.0937,-3.1309,-3.1699,-3.1934,-3.2012,-3.1992,-3.1992,-3.2168,-3.207,-3.207,-3.207,-3.2129,-3.2051,-3.2148,-3.2109,-3.2148,-3.2031,-3.168,-3.0098,-2.9844,-2.9941,-3.0351,-3.0723,-3.1094,-2.0762,-2.0655,-2.0307,-1.9893,-1.9492,-1.9492,-1.9613,-1.9813,-1.9813,-1.9813,-1.9813,-1.9813,-1.9813,-1.9813,-1.9813,-1.9853,-1.992,-1.992,-1.996,-2.0133,-2.0147,-2.0147,-2.0253,-2.0493,-2.0612,-2.0612,-2.0851,-2.097,-2.097,-2.097,-2.097,-2.1089,-2.1565,-2.1803,-2.1817,-2.17,-2.1818,-2.2068,-2.2037,-2.2067,-2.2067,-2.214,-2.2154,-2.2067,-2.2067,-2.2023,-2.195,-2.195,-2.1832,-2.1598,-2.1511,-2.1233,-2.075,-2.0501,0.0,0.0,0.0,0.0,0.0,0.0,0.0,0.0,0.0,-2.055,-2.1124,0.0,-2.215,0.0,-2.4241,-2.5379,-2.5927,-2.6454,0.0,0.0,-2.691,-2.7012,-2.7012,-2.7012,-2.7266,-2.791,-2.8164,-2.8535,-2.918,-2.9726,-3.0156,-3.0371,-3.0508,-3.0566,-3.0586,-3.123,-3.1738,-3.1836,-3.1953,-3.2051,-3.2168,-3.2168,-3.2187,-3.2168,-3.2168,-3.2168,-3.2168,-3.2168,-3.2168,-3.2168,-3.2168,-3.2168,-3.2187,-3.2168,-3.207,-3.1641,-3.1543,-3.1582,-3.168,-3.1777,-3.1894,-2.1496,-2.1483,-2.1323,-2.1069,-2.0735,-2.0214,-2.008,-2.0227,-2.0241,-2.0241,-2.0241,-2.0241,-2.0241,-2.0241,-2.0241,-2.0241,-2.0241,-2.0241,-2.0241,-2.0241,-2.0241,-2.0241,-2.0241,-2.0348,-2.047,-2.047,-2.0711,-2.0711,-2.0711,-2.0711,-2.0832,-2.0953,-2.1194,-2.1421,-2.1872,-2.186,-2.2008,-2.2184,-2.2315,-2.2447,-2.2593,-2.2593,-2.252,-2.2389,-2.2374,-2.2315,-2.2184,-2.2184,-2.2096,-2.192,-2.1774,-2.154,-2.1174,-2.0881,-2.0574,0.0,0.0,0.0,0.0,0.0,0.0,0.0,0.0,0.0,0.0,0.0,-2.2162,0.0,-2.4216,-2.5243,-2.5919,-2.6439,-2.688,-2.7179,-2.7439,-2.766,-2.7871,-2.8047,-2.834,-2.8809,-2.9023,-2.9394,-3.0078,-3.0527,-3.0957,-3.1406,-3.1621,-3.168,-3.1543,-3.2031,-3.2441,-3.2441,-3.2617,-3.2734,-3.2715,-3.2734,-3.2734,-3.2715,-3.2734,-3.2715,-3.2734,-3.2734,-3.2734,-3.2734,-3.2734,-3.2734,-3.2734,-3.2715,-3.2734,-3.2734,-3.2734,-3.2656,-3.25,-3.2461,-3.248,-2.1965,-2.1965,-2.1925,-2.2044,-2.1964,-2.0909,-2.0454,-2.0454,-2.0454,-2.0454,-2.0454,-2.0454,-2.0454,-2.0454,-2.0414,-2.0401,-2.0401,-2.0361,-2.0347,-2.0347,-2.0347,-2.0347,-2.0347,-2.0388,-2.0401,-2.0401,-2.0441,-2.0454,-2.0454,-2.0454,-2.0577,-2.0822,-2.0944,-2.1313,-2.2167,-2.2184,-2.2268,-2.2315,-2.2593,-2.2886,-2.3164,-2.3208,-2.3091,-2.2828,-2.2813,-2.2667,-2.2374,-2.2359,-2.233,-2.2242,-2.1964,-2.1789,-2.1745,-2.1218,-2.0896,0.0,-2.0574,0.0,0.0,0.0,0.0,0.0,0.0,0.0,0.0,-2.1496,-2.223,-2.336,-2.4273,-2.5086,-2.5988,-2.6464,-2.7029,-2.7809,-2.8243,-2.8584,-2.8894,-2.9336,-2.959,-2.9648,-3.0019,-3.0469,-3.0898,-3.1328,-3.1758,-3.2168,-3.248,-3.2578,-3.2422,-3.2637,-3.2871,-3.2871,-3.3184,-3.332,-3.334,-3.3379,-3.3359,-3.3379,-3.3359,-3.3418,-3.3379,-3.3379,-3.3398,-3.3379,-3.3359,-3.3379,-3.3418,-3.3398,-3.3398,-3.3359,-3.334,-3.3242,-3.2969,-3.2871,-3.2988,-2.1881,-2.1868,-2.1893,-2.1936,-2.1897,-2.1713,-2.1657,-2.1657,-2.1657,-2.1657,-2.1657,-2.1657,-2.1657,-2.1643,-2.1403,-2.1309,-2.1296,-2.1056,-2.0949,-2.0949,-2.0949,-2.0949,-2.0949,-2.1189,-2.1296,-2.1323,-2.1537,-2.1657,-2.1657,-2.1657,-2.1657,-2.1787,-2.2032,-2.2203,-2.2373,0.0,0.0,0.0,-2.3237,-2.3442,-2.3515,-2.3764,-2.3866,-2.3808,-2.3808,0.0,-2.3354,-2.3325,-2.3076,-2.2579,-2.2476,0.0,0.0,0.0,0.0,0.0,0.0,0.0,0.0,0.0,0.0,0.0,-2.1759,-2.1803,-2.1288,-2.1744,-2.2343,-2.3022,-2.3942,-2.4901,-2.5821,-2.6685,-2.7318,-2.7752,-2.8277,-2.8671,-2.9007,-2.9196,-2.935,-3.0039,-3.0488,-3.0918,-3.1367,-3.1777,-3.2207,-3.2598,-3.2754,-3.291,-3.3144,-3.3223,-3.3301,-3.3301,-3.3359,-3.3418,-3.3418,-3.3418,-3.3418,-3.3418,-3.3418,-3.3418,-3.3418,-3.3418,-3.3418,-3.3418,-3.3418,-3.3418,-3.3418,-3.3418,-3.3437,-3.3418,-3.3437,-3.3398,-3.332,-3.3301,-3.332,-2.1346,0.0,-2.147,-2.1556,0.0,-2.1945,-2.2149,-2.2123,-2.1978,-2.1991,-2.1991,-2.1991,-2.1991,-2.1977,-2.183,-2.1764,-2.1764,-2.1603,-2.1537,-2.155,-2.1537,-2.1537,-2.155,-2.1697,-2.1764,-2.1777,-2.1911,-2.1991,-2.1991,-2.1991,-2.1991,-2.1991,-2.2109,-2.2372,-2.2504,-2.2766,-2.3004,-2.3078,-2.3364,-2.358,-2.358,-2.3869,-2.4086,-2.4086,0.0,0.0,0.0,0.0,0.0,0.0,0.0,0.0,0.0,0.0,0.0,-2.195,-2.1935,-2.1862,-2.1715,-2.1847,-2.1935,-2.195,-2.2096,-2.2037,-2.1715,-2.2139,-2.2604,-2.3299,-2.4037,-2.4829,-2.5766,-2.6514,-2.6964,-2.7422,-2.8063,-2.8651,-2.9013,-2.9584,-3.0122,-3.0587,-3.1112,-3.168,-3.209,-3.2324,-3.2637,-3.3027,-3.3105,-3.3184,-3.3379,-3.3418,-3.3418,-3.3418,-3.3418,-3.3418,-3.3418,-3.3418,-3.3418,-3.3418,-3.3418,-3.3418,-3.3418,-3.3418,-3.3418,-3.3418,-3.3418,-3.3418,-3.3437,-3.3574,-3.375,-3.3769,-3.3906,-3.4043,-3.4023,-3.373,-3.3418,-2.0792,-2.0527,-2.0931,-2.1081,-2.122,-2.176,-2.2173,-2.2271,0.0,0.0,0.0,-2.2138,-2.2138,-2.2138,-2.2084,-2.2058,-2.2058,-2.2004,-2.1991,-2.1991,-2.1991,-2.1991,-2.1991,-2.2031,-2.2058,-2.2071,-2.2111,-2.2138,-2.2138,-2.2138,-2.2138,-2.2138,-2.2138,-2.227,-2.2535,-2.28,-2.2932,-2.305,-2.3257,-2.3505,-2.3505,-2.3825,-2.4116,-2.4116,-2.4116,-2.4087,-2.4043,-2.4174,-2.4013,-2.3706,-2.3427,-2.3164,-2.2886,-2.2652,-2.2491,-2.2447,-2.2432,-2.2403,-2.2345,-2.2345,-2.2345,-2.2345,-2.2345,-2.2301,-2.2198,-2.2423,-2.2885,-2.3464,-2.4102,-2.4858,-2.5678,-2.6213,-2.6714,-2.7178,-2.7885,-2.8608,-2.8861,-3.0049,-3.0844,-3.1041,-3.1609,-3.228,-3.2591,-3.2727,-3.3027,-3.332,-3.3379,-3.3418,-3.3418,-3.3418,-3.3418,-3.3418,-3.3418,-3.3418,-3.3418,-3.3418,-3.3418,-3.3418,-3.3418,-3.3418,-3.3418,-3.3476,-3.3535,-3.3574,-3.3574,-3.3672,-3.3672,-3.3965,-3.418,-3.418,-3.4453,-3.4687,-3.4629,-3.4141,-3.3711,-1.982,-1.982,-2.011,-2.0388,-2.0804,-2.1207,-2.176,-2.2297,-2.2629,-2.2739,-2.2739,-2.2739,-2.2739,-2.2726,-2.2472,-2.2352,-2.2338,-2.2098,-2.1991,0.0,-2.1991,-2.1991,-2.2004,-2.2245,-2.2365,-2.2378,-2.2605,-2.2739,-2.2739,-2.2739,-2.2739,-2.2739,-2.2739,-2.2726,-2.2875,-2.2875,-2.2875,-2.2875,-2.3292,-2.3567,-2.3567,-2.382,-2.3961,-2.3961,-2.4352,-2.4372,-2.3966,-2.4363,-2.4349,-2.4027,-2.3969,-2.3925,-2.3881,-2.3808,-2.3691,-2.3427,-2.3398,-2.3281,-2.3003,-2.2974,-2.2974,-2.2988,-2.2988,-2.2754,-2.2242,-2.2423,-2.2766,-2.3139,-2.3998,-2.4739,-2.5115,-2.6234,-2.7039,-2.7177,-2.7973,-2.8689,-2.9034,-2.98,-3.034,-3.0709,-3.1332,-3.1989,-3.2334,-3.2604,-3.2942,-3.3272,-3.3292,-3.3292,-3.3292,-3.3418,-3.3418,-3.3418,-3.3418,-3.3418,-3.3418,-3.3418,-3.3437,-3.3418,-3.3457,-3.3476,-3.3535,-3.3769,-3.3965,-3.3984,-3.4219,-3.4414,-3.4453,-3.4551,-3.4609,-3.4629,-3.4726,-3.4785,-3.4805,-3.4629,-3.4512,-1.8563,-1.8422,-1.8703,-1.9133,-1.9552,-2.0527,-2.1358,-2.2035,-2.2448,-2.2722,-2.2859,-2.2859,-2.2859,-2.2859,-2.2726,-2.2659,-2.2659,-2.2525,-2.2458,-2.2458,-2.2458,-2.2472,-2.2472,-2.2605,-2.2659,-2.2672,-2.2792,-2.2859,-2.2859,-2.2859,-2.2859,-2.2859,-2.2859,-2.2859,-2.2859,-2.2859,-2.2859,-2.2859,-2.327,-2.3472,-2.3472,-2.3882,-2.3966,-2.3966,-2.4224,-2.4167,-2.4026,-2.4146,-2.4137,-2.4086,-2.4072,-2.3999,-2.4101,-2.4086,-2.4013,-2.3866,-2.3852,-2.3793,-2.3647,-2.3632,-2.3632,-2.3632,-2.3632,-2.3515,-2.3237,-2.301,-2.3048,-2.3307,-2.4086,-2.4781,-2.5028,-2.6075,-2.6802,-2.6802,-2.7702,-2.8428,-2.8587,-2.9511,-3.0265,-3.0427,-3.1117,-3.1739,-3.1992,-3.2289,-3.253,-3.2785,-3.2912,-3.2804,-3.2912,-3.2931,-3.3058,-3.3292,-3.3418,-3.3418,-3.3418,-3.3418,-3.3516,-3.373,-3.3769,-3.3867,-3.4043,-3.4316,-3.4394,-3.4414,-3.459,-3.4668,-3.4707,-3.4922,-3.5039,-3.5098,-3.5293,-3.5371,-3.541,-3.541,-3.5332,-1.7308,-1.7026,-1.7439,-1.8002,-1.8573,-1.997,-2.0943,-2.1496,-2.1961,-2.2263,-2.2677,-2.2762,-2.2859,-2.2859,-2.2859,-2.2859,-2.2859,-2.2859,-2.2859,-2.2859,-2.2859,-2.2859,-2.2873,-2.2926,-2.2966,-2.2979,-2.3033,-2.306,-2.306,-2.3073,-2.306,-2.3073,-2.306,-2.3073,-2.3073,-2.306,-2.3073,-2.306,-2.3282,-2.3338,-2.327,-2.3543,-2.3679,-2.3816,-2.383,-2.3816,-2.383,-2.3952,-2.3975,-2.4018,-2.4123,-2.4156,-2.4189,-2.4305,-2.4276,-2.4203,-2.4188,-2.4159,-2.4086,-2.4086,-2.4086,-2.4086,-2.4086,-2.4086,-2.4042,-2.3632,-2.3451,-2.3732,-2.4305,-2.4726,-2.4995,-2.5834,-2.6392,-2.652,-2.7366,-2.7925,-2.8086,-2.916,-2.9899,-3.0081,-3.0552,-3.1102,-3.1488,-3.1616,-3.1763,-3.2019,-3.2166,-3.2166,-3.2166,-3.2222,-3.2682,-3.3065,-3.332,-3.3467,-3.3574,-3.3691,-3.3867,-3.418,-3.4219,-3.4336,-3.459,-3.4746,-3.4844,-3.4863,-3.4961,-3.5059,-3.5059,-3.5273,-3.5488,-3.5547,-3.5742,-3.5957,-3.5937,-3.5957,-3.5918,-1.632,-1.632,-1.6593,-1.7439,-1.8444,-1.9703,-2.0133,-2.0435,-2.1187,-2.172,-2.1835,-2.2566,-2.2886,-2.2859,-2.2886,-2.2899,-2.2886,-2.2873,-2.2886,-2.2886,-2.2859,-2.2859,-2.2926,-2.3153,-2.3287,-2.3313,-2.3527,-2.3634,-2.3634,-2.3661,-2.3674,-2.3688,-2.3688,-2.3661,-2.3674,-2.3674,-2.3674,-2.3688,-2.342,-2.3153,-2.3023,-2.2996,-2.2996,-2.2996,-2.327,-2.3406,-2.3406,-2.3816,-2.3952,-2.406,-2.4317,-2.4438,-2.4545,-2.4815,-2.4832,-2.4554,-2.4525,-2.4408,-2.413,-2.4086,-2.4115,-2.4086,-2.4115,-2.4115,-2.4115,-2.4042,-2.3998,-2.4128,-2.4416,-2.456,-2.469,-2.5267,-2.5829,-2.6118,-2.6858,-2.7409,-2.7685,-2.8488,-2.8986,-2.8986,-2.9526,-3.0083,-3.0325,-3.0714,-3.1138,-3.1451,-3.158,-3.1617,-3.1672,-3.2023,-3.2469,-3.2711,-3.3119,-3.3637,-3.3934,-3.4355,-3.4362,-3.4478,-3.4648,-3.4726,-3.4863,-3.5117,-3.5332,-3.5351,-3.5586,-3.5762,-3.5801,-3.5957,-3.5918,-3.5879,-3.5957,-3.6035,-3.6035,-3.6035,-3.5976,-1.5641,-1.5632,-1.5657,-1.6387,-1.7633,-1.8931,-1.9723,-2.0009,-2.0805,-2.1138,-2.1269,-2.2024,-2.2691,-2.3113,-2.3113,-2.3253,-2.3394,-2.3394,-2.3407,-2.3407,-2.3407,-2.3407,-2.342,-2.3527,-2.3581,-2.3594,-2.3714,-2.3781,-2.3781,-2.3781,-2.3781,-2.3781,-2.3781,-2.3781,-2.3781,-2.3781,-2.3781,-2.3768,-2.3647,-2.3527,-2.3367,-2.3046,-2.2859,-2.2859,-2.2996,-2.3133,-2.3133,-2.327,-2.3406,-2.3679,-2.3816,-2.4088,-2.4495,-2.4645,-2.4858,-2.4876,-2.4847,-2.4803,-2.4671,-2.4657,-2.4657,-2.4657,-2.4657,-2.4657,-2.4657,-2.4657,-2.4657,-2.4642,-2.4613,-2.4627,-2.4656,-2.5201,-2.5718,-2.5865,-2.6518,-2.6978,-2.711,-2.7487,-2.7865,-2.7849,-2.8246,-2.8625,-2.9151,-2.9822,-3.0319,-3.074,-3.096,-3.1145,-3.1379,-3.1727,-3.1932,-3.2253,-3.2666,-3.3236,-3.3633,-3.3934,-3.4164,-3.4356,-3.4699,-3.4738,-3.5162,-3.5451,-3.5762,-3.5762,-3.5898,-3.6016,-3.5976,-3.6035,-3.6035,-3.6055,-3.6035,-3.6035,-3.6035,-3.6035,-3.6094,-1.5113,-1.5095,-1.5119,-1.5714,-1.6856,-1.8041,-1.8706,-1.9155,-1.9927,-2.0397,-2.0554,-2.1352,-2.2261,-2.2972,-2.3132,-2.334,-2.3768,-2.3781,-2.3781,-2.3781,-2.3781,-2.3768,-2.3781,-2.3861,-2.3888,-2.3901,-2.3981,-2.4022,-2.4008,-2.4008,-2.4008,-2.4008,-2.4008,-2.4008,-2.4008,-2.4008,-2.4008,-2.4008,-2.3941,-2.3888,-2.3821,-2.338,-2.3113,-2.3113,-2.3113,-2.3113,-2.3113,-2.3113,-2.3252,-2.3528,-2.3653,-2.3928,-2.4355,-2.4616,-2.4861,-2.5198,-2.5183,-2.514,-2.5066,-2.5066,-2.5066,-2.5066,-2.5066,-2.5066,-2.5066,-2.5066,-2.5066,-2.5022,-2.4832,-2.4701,-2.473,-2.5189,-2.5457,-2.5592,-2.613,-2.6398,-2.6517,-2.68,-2.6934,-2.6934,-2.7318,-2.7632,-2.8112,-2.8809,-2.9475,-2.9798,-3.0152,-3.049,-3.0937,-3.1059,-3.1419,-3.1691,-3.2284,-3.2884,-3.3401,-3.361,-3.376,-3.4064,-3.4467,-3.4833,-3.5275,-3.5587,-3.5879,-3.5763,-3.5996,-3.6035,-3.6035,-3.6035,-3.6016,-3.6211,-3.6269,-3.6367,-3.6484,-3.6406,-3.6523,-1.4416,-1.4564,-1.5302,-1.5736,-1.6186,-1.7096,-1.739,-1.7576,-1.8632,-1.917,-1.9658,-2.0579,-2.1739,-2.2744,-2.3024,-2.3353,-2.3794,-2.3821,-2.3821,-2.3834,-2.3808,-2.3781,-2.3794,-2.4048,-2.4182,-2.4209,-2.4409,-2.4543,-2.4556,-2.4569,-2.4596,-2.4569,-2.4543,-2.4569,-2.4543,-2.4529,-2.4583,-2.4502,-2.4302,-2.4182,-2.4155,-2.3888,-2.3728,-2.3728,-2.3714,-2.3688,-2.3701,-2.3714,-2.3714,-2.3714,-2.4113,-2.4268,-2.441,-2.4961,-2.5365,-2.5411,-2.552,-2.5388,-2.514,-2.511,-2.511,-2.5096,-2.514,-2.5081,-2.5154,-2.5154,-2.5154,-2.5081,-2.5081,-2.5037,-2.5037,-2.5172,-2.5337,-2.5457,-2.5592,-2.5876,-2.6145,-2.6145,-2.613,-2.6161,-2.661,-2.7004,-2.7677,-2.7964,-2.8533,-2.8793,-2.9182,-2.9523,-2.976,-3.0392,-3.096,-3.1184,-3.1809,-3.2802,-3.2993,-3.3321,-3.3596,-3.3826,-3.3927,-3.4452,-3.4902,-3.5196,-3.5606,-3.5918,-3.5977,-3.5977,-3.6055,-3.5996,-3.621,-3.6405,-3.6735,-3.6872,-3.6774,-3.7148,-3.7226,-1.4538,-1.444,-1.5151,-1.5501,-1.5659,-1.6524,-1.7039,-1.7039,-1.7869,-1.8501,-1.8974,-1.9801,-2.0887,-2.2085,-2.2645,-2.3439,-2.4315,-2.4329,-2.4329,-2.4315,-2.4315,-2.4329,-2.4342,-2.4436,-2.4476,-2.4502,-2.4583,-2.4636,-2.4636,-2.4636,-2.4636,-2.4636,-2.4636,-2.4636,-2.4636,-2.4636,-2.4636,-2.4623,-2.4516,-2.4476,-2.4462,-2.4382,-2.4329,-2.4302,-2.3955,-2.3781,-2.3781,-2.3781,-2.3781,-2.3781,-2.391,-2.4052,-2.4337,-2.5031,-2.5397,-2.5437,-2.5702,-2.5798,-2.5681,-2.5666,-2.5666,-2.5666,-2.5666,-2.5652,-2.5666,-2.5666,-2.5666,-2.5637,-2.5461,-2.5374,-2.5315,-2.5183,-2.5187,-2.5187,-2.5337,-2.5337,-2.5457,-2.5472,-2.5531,-2.574,-2.6207,-2.6832,-2.7169,-2.763,-2.7909,-2.8348,-2.8707,-2.8943,-2.9292,-2.9895,-3.0352,-3.0385,-3.0768,-3.1243,-3.0983,-3.228,-3.3121,-3.3242,-3.3381,-3.3659,-3.4094,-3.4878,-3.531,-3.5578,-3.5735,-3.597,-3.5889,-3.5921,-3.6055,-3.6009,-3.6333,-3.6893,-3.6862,-3.7055,-3.7274,-1.4716,-1.4627,-1.5035,-1.5236,-1.5253,-1.6133,-1.6348,-1.6501,-1.7264,-1.7873,-1.8481,-1.9239,-2.0296,-2.1499,-2.2396,-2.329,-2.4341,-2.4475,-2.4636,-2.4636,-2.4636,-2.4636,-2.4636,-2.4636,-2.4636,-2.4636,-2.4636,-2.4636,-2.4636,-2.4636,-2.4636,-2.4636,-2.4636,-2.4636,-2.4636,-2.4636,-2.4636,-2.4636,-2.4636,-2.4636,-2.4636,-2.4636,-2.4636,-2.4583,-2.4249,-2.4048,-2.4048,-2.4048,-2.4048,-2.4048,-2.4048,-2.4192,-2.4624,-2.5184,-2.5556,-2.5612,-2.5881,-2.612,-2.6032,-2.6018,-2.6003,-2.6018,-2.6018,-2.6018,-2.6018,-2.6018,-2.6018,-2.5959,-2.5842,-2.5681,-2.5652,-2.5491,-2.533,-2.5242,-2.5213,-2.5257,-2.5344,-2.5374,-2.5476,-2.5666,-2.6136,-2.6578,-2.6854,-2.729,-2.7584,-2.8017,-2.8349,-2.8616,-2.8947,-2.9282,-2.9568,-2.9568,-2.9855,-3.0079,-3.0111,-3.1069,-3.1537,-3.1645,-3.2667,-3.3037,-3.3599,-3.4353,-3.492,-3.5182,-3.551,-3.5765,-3.5792,-3.5837,-3.5768,-3.5499,-3.6155,-3.6796,-3.6827,-3.6914,-3.7172,-1.496,-1.4935,-1.4968,-1.5105,-1.5097,-1.542,-1.5582,-1.5735,-1.6501,-1.7264,-1.8016,-1.8785,-1.9995,-2.151,-2.2396,-2.3154,-2.3896,-2.4341,-2.4636,-2.4636,-2.4636,-2.4636,-2.4636,-2.4636,-2.4636,-2.4636,-2.4636,-2.4636,-2.4636,-2.4636,-2.4636,-2.4636,-2.4636,-2.4636,-2.4636,-2.4636,-2.4636,-2.4636,-2.4636,-2.4636,-2.4636,-2.4663,-2.4703,-2.4703,-2.4649,-2.4649,-2.4636,-2.4609,-2.4556,-2.4569,-2.4583,-2.477,-2.5011,-2.5437,-2.5777,-2.5826,-2.6214,-2.6354,-2.6105,-2.6091,-2.6135,-2.6135,-2.6076,-2.6135,-2.6149,-2.612,-2.612,-2.6135,-2.6061,-2.6018,-2.6018,-2.5959,-2.5813,-2.5593,-2.5535,-2.5652,-2.5871,-2.6003,-2.6018,-2.6032,-2.6105,-2.6179,-2.6555,-2.6929,-2.7335,-2.7545,-2.778,-2.8084,-2.813,-2.8418,-2.8707,-2.8738,-2.9105,-2.936,-2.9647,-2.9774,-2.9873,-3.0209,-3.1447,-3.2429,-3.3036,-3.3803,-3.4573,-3.4954,-3.5155,-3.5265,-3.4885,-3.4902,-3.5138,-3.5211,-3.5907,-3.6312,-3.6367,-3.6439,-3.7156,-1.4968,-1.4968,-1.4968,-1.4968,-1.4968,-1.5122,-1.5122,-1.5275,-1.605,-1.6806,-1.7559,-1.8481,-1.9703,-2.106,-2.181,-2.2545,-2.36,-2.4044,-2.4341,-2.4488,-2.4636,-2.4636,-2.4636,-2.4636,-2.4636,-2.4636,-2.4636,-2.4636,-2.4636,-2.4636,-2.4636,-2.4636,-2.4636,-2.4636,-2.4663,-2.4636,-2.4636,-2.4636,-2.4636,-2.473,-2.4917,-2.4943,-2.5037,-2.5211,-2.5237,-2.5237,-2.5224,-2.4863,-2.4649,-2.4649,-2.4636,-2.4636,-2.4797,-2.5226,-2.5332,-2.5542,-2.6111,-2.6373,-2.6272,-2.6546,-2.6691,-2.6691,-2.6691,-2.6691,-2.6691,-2.6691,-2.6691,-2.6661,-2.65,-2.6354,-2.6325,-2.6135,-2.6003,-2.5886,-2.5871,-2.59,-2.6061,-2.6237,-2.6339,-2.6383,-2.6544,-2.672,-2.6793,-2.6967,-2.7141,-2.726,-2.7289,-2.7435,-2.745,-2.777,-2.7961,-2.8258,-2.8465,-2.8896,-2.898,-2.9282,-2.9353,-2.9702,-3.086,-3.1789,-3.2424,-3.329,-3.4049,-3.4355,-3.4569,-3.438,-3.3988,-3.3891,-3.411,-3.4329,-3.4584,-3.4954,-3.5438,-3.594,-3.646,-1.4968,-1.4968,-1.4968,-1.4968,-1.4968,-1.4968,-1.4968,-1.5122,-1.5897,-1.6653,-1.7407,-1.8177,-1.9401,-2.0759,-2.1199,-2.1948,-2.2992,-2.3438,-2.3735,-2.4179,-2.4488,-2.4636,-2.4636,-2.4636,-2.4636,-2.4636,-2.4636,-2.4636,-2.4636,-2.4636,-2.469,-2.4783,-2.4796,-2.4877,-2.4943,-2.4957,-2.4957,-2.4957,-2.497,-2.5064,-2.5197,-2.5237,-2.5317,-2.5478,-2.5518,-2.5518,-2.5491,-2.5144,-2.4957,-2.4957,-2.4957,-2.4957,-2.4957,-2.5269,-2.5568,-2.5717,-2.615,-2.6447,-2.6581,-2.6891,-2.7039,-2.7187,-2.7201,-2.7349,-2.7349,-2.7349,-2.732,-2.7159,-2.6998,-2.6808,-2.6676,-2.6515,-2.6383,-2.6369,-2.6266,-2.6266,-2.6369,-2.6559,-2.6661,-2.672,-2.6852,-2.6969,-2.6998,-2.6998,-2.7056,-2.7115,-2.7174,-2.7247,-2.7291,-2.7644,-2.7777,-2.8015,-2.8223,-2.8402,-2.8505,-2.8609,-2.8791,-2.9532,-3.03,-3.1017,-3.1729,-3.2838,-3.3621,-3.3409,-3.3413,-3.3129,-3.2726,-3.2607,-3.2826,-3.3044,-3.328,-3.3905,-3.4412,-3.5122,-3.5664,-1.4968,-1.4968,-1.4968,-1.4968,-1.4968,-1.4968,-1.4968,-1.5122,-1.5744,-1.6501,-1.7407,-1.8025,-1.9239,-2.0296,-2.0737,-2.1337,-2.2109,-2.2606,-2.3055,-2.3515,-2.4136,-2.4595,-2.4649,-2.4636,-2.4636,-2.4636,-2.4636,-2.4636,-2.4636,-2.469,-2.4796,-2.5024,-2.5077,-2.5224,-2.5384,-2.5491,-2.5438,-2.5424,-2.5451,-2.5464,-2.5518,-2.5531,-2.5571,-2.5611,-2.5625,-2.5638,-2.5638,-2.5585,-2.5531,-2.5504,-2.5438,-2.5424,-2.5478,-2.581,-2.5908,-2.5895,-2.6406,-2.6516,-2.6682,-2.6914,-2.723,-2.723,-2.7381,-2.7798,-2.7696,-2.7667,-2.7551,-2.7452,-2.7393,-2.7291,-2.7027,-2.6925,-2.691,-2.6925,-2.6676,-2.6661,-2.6925,-2.6954,-2.6954,-2.6998,-2.7027,-2.7042,-2.7115,-2.713,-2.7261,-2.7408,-2.751,-2.7613,-2.773,-2.7773,-2.7905,-2.7964,-2.8129,-2.8291,-2.8527,-2.86,-2.8798,-2.912,-2.99,-3.0479,-3.1189,-3.2123,-3.2692,-3.2489,-3.2348,-3.1888,-3.1629,-3.1708,-3.1911,-3.213,-3.2471,-3.2885,-3.3429,-3.4043,-3.4915,-1.4661,-1.4968,-1.4968,-1.4968,-1.4968,-1.4968,-1.4968,-1.5122,-1.5582,-1.6195,-1.6959,-1.7426,-1.8501,-1.9542,-1.9995,-2.0586,-2.1256,-2.1848,-2.2688,-2.3329,-2.3972,-2.4397,-2.4555,-2.4636,-2.4636,-2.4636,-2.4649,-2.4636,-2.4663,-2.4863,-2.501,-2.509,-2.5317,-2.5438,-2.5504,-2.5545,-2.5518,-2.5518,-2.5518,-2.5651,-2.5812,-2.5838,-2.5959,-2.6146,-2.6146,-2.6132,-2.6159,-2.6159,-2.5932,-2.5545,-2.5518,-2.5518,-2.5545,-2.5698,-2.5725,-2.5878,-2.6003,-2.6295,-2.6295,-2.6599,-2.6875,-2.6861,-2.7084,-2.7179,-2.7496,-2.7496,-2.7488,-2.7405,-2.7466,-2.7364,-2.7086,-2.7027,-2.7013,-2.6983,-2.6939,-2.6925,-2.6983,-2.6998,-2.7071,-2.7291,-2.7349,-2.7437,-2.7583,-2.7642,-2.7686,-2.7788,-2.7832,-2.7876,-2.8037,-2.8066,-2.8125,-2.8271,-2.8344,-2.8505,-2.8651,-2.8725,-2.8939,-2.8953,-2.9589,-3.0053,-3.0638,-3.1453,-3.1485,-3.1363,-3.1665,-3.1308,-3.1089,-3.1024,-3.1213,-3.1355,-3.159,-3.2078,-3.2315,-3.29,-3.3719,-1.4431,-1.4814,-1.4814,-1.4814,-1.4968,-1.4968,-1.4968,-1.5122,-1.5429,-1.5888,-1.6519,-1.706,-1.7865,-1.8774,-1.9172,-1.9674,-2.0462,-2.1056,-2.1728,-2.2366,-2.3409,-2.4163,-2.4591,-2.4716,-2.4636,-2.4649,-2.477,-2.4823,-2.4877,-2.5117,-2.5304,-2.5478,-2.5611,-2.5758,-2.5905,-2.5879,-2.5879,-2.5892,-2.5879,-2.5972,-2.6119,-2.6146,-2.6213,-2.6373,-2.64,-2.64,-2.6386,-2.6386,-2.6213,-2.5959,-2.5892,-2.5879,-2.5879,-2.5879,-2.5879,-2.5879,-2.6034,-2.6202,-2.6343,-2.6653,-2.6807,-2.6807,-2.6947,-2.7255,-2.7438,-2.7409,-2.7449,-2.7344,-2.7589,-2.7415,-2.7169,-2.7245,-2.7393,-2.7422,-2.7393,-2.7335,-2.7217,-2.7203,-2.7349,-2.7569,-2.7686,-2.773,-2.7934,-2.7949,-2.8022,-2.811,-2.8154,-2.8242,-2.8359,-2.833,-2.8388,-2.8578,-2.8769,-2.8944,-2.9076,-2.9164,-2.9222,-2.9395,-2.935,-2.9964,-3.0404,-3.0872,-3.0903,-3.0824,-3.0882,-3.0877,-3.0635,-3.0535,-3.068,-3.087,-3.0976,-3.1388,-3.1771,-3.2154,-3.297,-1.4087,-1.4423,-1.4423,-1.457,-1.4887,-1.5025,-1.5065,-1.5187,-1.5366,-1.5829,-1.6318,-1.676,-1.729,-1.8067,-1.8368,-1.8966,-1.9761,-2.0252,-2.0932,-2.1882,-2.2973,-2.4201,-2.5073,-2.4957,-2.4796,-2.4783,-2.4983,-2.5104,-2.5197,-2.5411,-2.5678,-2.5838,-2.5945,-2.6119,-2.6239,-2.6333,-2.6373,-2.6319,-2.6293,-2.6293,-2.6333,-2.6333,-2.636,-2.6373,-2.64,-2.64,-2.64,-2.64,-2.636,-2.6386,-2.64,-2.6333,-2.6346,-2.6373,-2.636,-2.6333,-2.6293,-2.6319,-2.636,-2.6621,-2.6819,-2.6949,-2.7264,-2.7476,-2.7577,-2.7535,-2.7409,-2.7241,-2.748,-2.7559,-2.7467,-2.7604,-2.7711,-2.7832,-2.7876,-2.7788,-2.7642,-2.7554,-2.7656,-2.7949,-2.8008,-2.8008,-2.8037,-2.8066,-2.8154,-2.8447,-2.8505,-2.8593,-2.8739,-2.8812,-2.89,-2.9047,-2.9222,-2.9398,-2.9515,-2.9632,-2.9676,-2.9705,-2.9647,-2.9937,-3.0211,-3.0529,-3.0574,-3.0505,-3.0595,-3.051,-3.0262,-3.0292,-3.0336,-3.041,-3.0869,-3.1091,-3.1299,-3.1833,-3.2352,-1.3836,-1.4283,-1.46,-1.4758,-1.4916,-1.524,-1.539,-1.5382,-1.539,-1.5673,-1.6022,-1.6222,-1.6555,-1.7029,-1.7566,-1.7882,-1.8581,-1.9492,-2.0761,-2.284,-2.3418,-2.4427,-2.5062,-2.5285,-2.5197,-2.5117,-2.5277,-2.5411,-2.5491,-2.5705,-2.5892,-2.5972,-2.6172,-2.6319,-2.6373,-2.64,-2.64,-2.64,-2.64,-2.64,-2.64,-2.64,-2.64,-2.64,-2.64,-2.64,-2.64,-2.64,-2.64,-2.64,-2.64,-2.64,-2.64,-2.64,-2.64,-2.64,-2.64,-2.64,-2.64,-2.6558,-2.6544,-2.6544,-2.6702,-2.686,-2.7189,-2.7175,-2.7195,-2.7101,-2.7326,-2.7381,-2.7459,-2.7661,-2.7856,-2.8037,-2.8022,-2.8066,-2.8139,-2.7993,-2.8008,-2.8227,-2.833,-2.8417,-2.8622,-2.8622,-2.8681,-2.8783,-2.8856,-2.8944,-2.909,-2.9251,-2.9339,-2.9427,-2.9617,-2.9764,-2.9822,-2.9954,-3.0056,-3.01,-3.0071,-3.0056,-3.0336,-3.0453,-3.0483,-3.0366,-3.0248,-3.0159,-3.0246,-3.0407,-3.066,-3.0719,-3.0733,-3.0972,-3.1182,-3.1542,-3.1948,-1.3653,-1.3909,-1.4229,-1.4388,-1.4548,-1.4715,-1.5034,-1.5194,-1.5194,-1.5353,-1.5847,-1.5905,-1.6275,-1.6604,-1.6842,-1.7369,-1.8191,-1.9403,-2.1136,-2.298,-2.3818,-2.4655,-2.5205,-2.5594,-2.5718,-2.5398,-2.5585,-2.5705,-2.5798,-2.5985,-2.6159,-2.6159,-2.6319,-2.6373,-2.64,-2.64,-2.64,-2.64,-2.64,-2.64,-2.64,-2.64,-2.64,-2.64,-2.64,-2.64,-2.64,-2.64,-2.64,-2.64,-2.64,-2.64,-2.64,-2.64,-2.64,-2.64,-2.64,-2.64,-2.64,-2.64,-2.6386,-2.64,-2.64,-2.6544,-2.6716,-2.6716,-2.6806,-2.6826,-2.7084,-2.717,-2.7648,-2.7942,-2.8081,-2.8388,-2.8388,-2.8476,-2.8564,-2.8373,-2.83,-2.8549,-2.8651,-2.871,-2.8827,-2.8944,-2.9047,-2.9076,-2.9134,-2.9237,-2.9471,-2.9617,-2.9647,-2.9749,-2.9954,-3.0086,-3.0129,-3.0246,-3.0407,-3.0451,-3.0466,-3.0481,-3.0645,-3.0572,-3.0349,-3.0378,-3.0407,-3.051,-3.0612,-3.0788,-3.0861,-3.0803,-3.0817,-3.0964,-3.1095,-3.1505,-3.193,-1.3295,-1.3661,-1.3661,-1.3821,-1.4143,-1.4311,-1.4486,-1.48,-1.4784,-1.5152,-1.5465,-1.5594,-1.5975,-1.6333,-1.6605,-1.7173,-1.8482,-1.9937,-2.1739,-2.3187,-2.4123,-2.4794,-2.5492,-2.6016,-2.6106,-2.5705,-2.5892,-2.6012,-2.6092,-2.6239,-2.6333,-2.6373,-2.6386,-2.64,-2.64,-2.64,-2.64,-2.64,-2.64,-2.64,-2.64,-2.64,-2.64,-2.64,-2.64,-2.64,-2.64,-2.64,-2.64,-2.64,-2.64,-2.64,-2.64,-2.64,-2.64,-2.64,-2.64,-2.64,-2.64,-2.64,-2.64,-2.64,-2.64,-2.64,-2.64,-2.64,-2.6531,-2.6531,-2.6819,-2.7291,-2.7961,-2.8033,-2.8203,-2.853,-2.8715,-2.8759,-2.8759,-2.8584,-2.8599,-2.8798,-2.8915,-2.9017,-2.9061,-2.9134,-2.9251,-2.9369,-2.9427,-2.9559,-2.9793,-2.9968,-2.9998,-3.0115,-3.0334,-3.0407,-3.0451,-3.0451,-3.0612,-3.0656,-3.0715,-3.0744,-3.0773,-3.0685,-3.0598,-3.0685,-3.0744,-3.0803,-3.0876,-3.0978,-3.1007,-3.0978,-3.111,-3.1329,-3.149,-3.1637,-3.2022,-1.3349,-1.3487,-1.3823,-1.3988,-1.4145,-1.4467,-1.4616,-1.4631,-1.4609,-1.4959,-1.5451,-1.5491,-1.5655,-1.6008,-1.6508,-1.751,-1.899,-2.0617,-2.1911,-2.3199,-2.4148,-2.4882,-2.5674,-2.6175,-2.6306,-2.6293,-2.6279,-2.6279,-2.6293,-2.6373,-2.6386,-2.64,-2.64,-2.64,-2.64,-2.64,-2.64,-2.64,-2.64,-2.64,-2.64,-2.64,-2.64,-2.64,-2.64,-2.64,-2.64,-2.64,-2.64,-2.64,-2.64,-2.64,-2.64,-2.64,-2.64,-2.64,-2.64,-2.64,-2.64,-2.64,-2.64,-2.64,-2.64,-2.64,-2.64,-2.64,-2.64,-2.6544,-2.6702,-2.7032,-2.7189,-2.749,-2.7805,-2.779,-2.7961,-2.8189,-2.8533,-2.8719,-2.8747,-2.8846,-2.9149,-2.931,-2.9339,-2.9412,-2.9573,-2.9705,-2.9764,-2.9939,-3.0188,-3.0305,-3.0364,-3.0525,-3.0715,-3.0744,-3.0759,-3.0729,-3.0773,-3.0744,-3.0788,-3.0832,-3.0846,-3.0817,-3.0832,-3.0993,-3.1007,-3.0993,-3.1066,-3.1198,-3.13,-3.1388,-3.1549,-3.171,-3.1798,-3.19,-3.2072,-1.3397,-1.3397,-1.3569,-1.3735,-1.3735,-1.3894,-1.4225,-1.439,-1.439,-1.4555,-1.5051,-1.5216,-1.5546,-1.5875,-1.6369,-1.7837,-1.9642,-2.0952,-2.2395,-2.368,-2.448,-2.5276,-2.607,-2.6386,-2.6386,-2.6386,-2.6386,-2.64,-2.6386,-2.6386,-2.64,-2.64,-2.64,-2.64,-2.64,-2.64,-2.64,-2.64,-2.64,-2.64,-2.64,-2.64,-2.64,-2.64,-2.64,-2.64,-2.64,-2.64,-2.64,-2.64,-2.64,-2.64,-2.64,-2.64,-2.64,-2.64,-2.64,-2.64,-2.64,-2.64,-2.64,-2.64,-2.64,-2.64,-2.64,-2.64,-2.64,-2.6386,-2.6544,-2.6702,-2.7018,-2.7175,-2.7333,-2.7476,-2.7633,-2.7717,-2.8188,-2.8503,-2.8791,-2.8892,-2.9297,-2.9617,-2.9647,-2.9749,-2.991,-3.0027,-3.01,-3.029,-3.0525,-3.0583,-3.0612,-3.0685,-3.0817,-3.0817,-3.0817,-3.0817,-3.0876,-3.089,-3.0905,-3.0949,-3.1037,-3.1081,-3.1212,-3.1388,-3.1344,-3.1271,-3.1388,-3.1563,-3.1681,-3.1798,-3.1929,-3.2032,-3.209,-3.2134,-3.2337,-1.3397,-1.3397,-1.3397,-1.3397,-1.3397,-1.3397,-1.3569,-1.3901,-1.3901,-1.4232,-1.4555,-1.4886,-1.5216,-1.5711,-1.6689,-1.8328,-2.013,-2.1427,-2.2878,-2.3988,-2.4798,-2.5594,-2.607,-2.6386,-2.64,-2.64,-2.64,-2.64,-2.64,-2.64,-2.64,-2.64,-2.64,-2.64,-2.64,-2.64,-2.64,-2.64,-2.64,-2.64,-2.64,-2.64,-2.64,-2.64,-2.64,-2.64,-2.64,-2.64,-2.64,-2.64,-2.64,-2.64,-2.64,-2.64,-2.64,-2.64,-2.64,-2.64,-2.64,-2.64,-2.64,-2.64,-2.64,-2.64,-2.64,-2.64,-2.64,-2.64,-2.6386,-2.6544,-2.6702,-2.6874,-2.7018,-2.7175,-2.7319,-2.7532,-2.7671,-2.8011,-2.857,-2.8962,-2.95,-2.9763,-2.9807,-3.0159,-3.0334,-3.0364,-3.0437,-3.0481,-3.0685,-3.0729,-3.0759,-3.0773,-3.0817,-3.0817,-3.0817,-3.0817,-3.092,-3.1037,-3.1081,-3.1124,-3.1271,-3.1417,-3.1578,-3.1739,-3.1739,-3.1695,-3.1827,-3.1929,-3.2032,-3.2149,-3.2266,-3.2354,-3.2398,-3.2471,-3.269,-1.3397,-1.3397,-1.3397,-1.3397,-1.3397,-1.3397,-1.3397,-1.3562,-1.3569,-1.3735,-1.4232,-1.4232,-1.4721,-1.5711,-1.751,-1.9144,-2.0607,-2.1911,-2.3038,-2.4,-2.4811,-2.5289,-2.5911,-2.6228,-2.6386,-2.6386,-2.64,-2.64,-2.64,-2.64,-2.64,-2.64,-2.64,-2.64,-2.64,-2.64,-2.64,-2.64,-2.64,-2.64,-2.64,-2.64,-2.64,-2.64,-2.64,-2.64,-2.64,-2.64,-2.64,-2.64,-2.64,-2.64,-2.64,-2.64,-2.64,-2.64,-2.64,-2.64,-2.64,-2.64,-2.64,-2.64,-2.64,-2.64,-2.64,-2.64,-2.64,-2.64,-2.64,-2.6386,-2.6544,-2.6558,-2.6544,-2.6544,-2.6702,-2.701,-2.7333,-2.7803,-2.8186,-2.8832,-2.9193,-2.9756,-2.9963,-3.036,-3.0729,-3.0759,-3.0773,-3.0773,-3.0788,-3.0817,-3.0817,-3.0817,-3.0846,-3.0846,-3.0964,-3.0949,-3.1081,-3.1212,-3.1285,-3.1373,-3.1578,-3.1768,-3.1929,-3.2046,-3.2061,-3.2105,-3.2178,-3.228,-3.2383,-3.2456,-3.2529,-3.2617,-3.2705,-3.2763,-3.2763,-1.3397,-1.3397,-1.3397,-1.3397,-1.3397,-1.3397,-1.3397,-1.3397,-1.3397,-1.3562,-1.3735,-1.4066,-1.4893,-1.6196,-1.8001,-1.9469,-2.0931,-2.2073,-2.3211,-2.4012,-2.4652,-2.513,-2.5753,-2.5911,-2.607,-2.6386,-2.6386,-2.64,-2.64,-2.64,-2.64,-2.64,-2.64,-2.64,-2.64,-2.64,-2.64,-2.64,-2.64,-2.64,-2.64,-2.64,-2.64,-2.64,-2.64,-2.64,-2.64,-2.64,-2.64,-2.64,-2.64,-2.64,-2.64,-2.64,-2.64,-2.64,-2.64,-2.64,-2.64,-2.64,-2.64,-2.64,-2.64,-2.64,-2.64,-2.64,-2.64,-2.64,-2.64,-2.64,-2.64,-2.64,-2.64,-2.64,-2.6466,-2.6613,-2.7148,-2.7513,-2.8056,-2.8551,-2.8994,-2.9505,-2.9864,-3.0007,-3.0455,-3.0622,-3.0803,-3.0803,-3.0803,-3.0817,-3.0817,-3.0817,-3.0861,-3.089,-3.1066,-3.1168,-3.1359,-3.149,-3.1578,-3.171,-3.1944,-3.2149,-3.2266,-3.2398,-3.2471,-3.2515,-3.2544,-3.2559,-3.2588,-3.2676,-3.2763,-3.2763,-3.2763,-3.2763,-3.2763,-1.3397,-1.3397,-1.3397,-1.3397,-1.3397,-1.3397,-1.3397,-1.3397,-1.3397,-1.3397,-1.3562,-1.4066,-1.5216,-1.6689,-1.8164,-1.9632,-2.1254,-2.2234,-2.3211,-2.4012,-2.4492,-2.4811,-2.5276,-2.5594,-2.5911,-2.6228,-2.6386,-2.6386,-2.64,-2.64,-2.64,-2.64,-2.64,-2.64,-2.64,-2.64,-2.64,-2.64,-2.64,-2.64,-2.64,-2.64,-2.64,-2.64,-2.64,-2.64,-2.64,-2.64,-2.64,-2.64,-2.64,-2.64,-2.64,-2.64,-2.64,-2.64,-2.64,-2.64,-2.64,-2.64,-2.64,-2.64,-2.64,-2.64,-2.64,-2.64,-2.64,-2.64,-2.64,-2.64,-2.6413,-2.6453,-2.6533,-2.6587,-2.6627,-2.6747,-2.6894,-2.7446,-2.7812,-2.8071,-2.8482,-2.898,-2.9188,-2.9607,-2.9998,-3.0499,-3.0665,-3.0817,-3.0832,-3.0832,-3.0846,-3.0861,-3.1022,-3.1066,-3.1198,-3.1373,-3.1578,-3.1783,-3.1885,-3.2032,-3.228,-3.2412,-3.25,-3.2646,-3.2763,-3.2734,-3.2661,-3.2719,-3.2763,-3.2763,-3.2763,-3.2763,-3.2763,-3.2763,-3.2763,-1.3397,-1.3397,-1.3397,-1.3397,-1.3397,-1.3397,-1.3397,-1.3397,-1.3397,-1.3397,-1.3562,-1.439,-1.5373,-1.6689,-1.8164,-1.9632,-2.1416,-2.2234,-2.305,-2.3852,-2.4332,-2.4492,-2.497,-2.5276,-2.5753,-2.5911,-2.607,-2.6386,-2.64,-2.64,-2.64,-2.64,-2.64,-2.64,-2.64,-2.64,-2.64,-2.64,-2.64,-2.64,-2.64,-2.64,-2.64,-2.64,-2.64,-2.64,-2.64,-2.64,-2.64,-2.64,-2.64,-2.64,-2.64,-2.64,-2.64,-2.6453,-2.6466,-2.648,-2.652,-2.6453,-2.64,-2.64,-2.6453,-2.652,-2.6547,-2.6453,-2.6413,-2.6493,-2.656,-2.6507,-2.6547,-2.66,-2.6774,-2.6827,-2.6907,-2.7068,-2.7175,-2.7228,-2.7606,-2.7794,-2.7982,-2.8492,-2.8742,-2.9146,-2.9663,-3.0332,-3.0665,-3.0817,-3.0861,-3.0876,-3.089,-3.0949,-3.1183,-3.13,-3.1373,-3.1578,-3.1885,-3.2105,-3.2237,-3.2398,-3.2617,-3.269,-3.2676,-3.2705,-3.2763,-3.2763,-3.2763,-3.2763,-3.2763,-3.2763,-3.2763,-3.2763,-3.2763,-3.2763,-3.2763,-1.3397,-1.3397,-1.3397,-1.3397,-1.3397,-1.3397,-1.3397,-1.3397,-1.3397,-1.3569,-1.3901,-1.4555,-1.5373,-1.6854,-1.8164,-1.9632,-2.1254,-2.2234,-2.3038,-2.352,-2.4,-2.4172,-2.4492,-2.4811,-2.5276,-2.5766,-2.5924,-2.6228,-2.6386,-2.6426,-2.64,-2.64,-2.64,-2.64,-2.64,-2.64,-2.64,-2.64,-2.64,-2.64,-2.64,-2.64,-2.64,-2.64,-2.64,-2.64,-2.64,-2.64,-2.64,-2.64,-2.64,-2.64,-2.6426,-2.6413,-2.6507,-2.6627,-2.6653,-2.6734,-2.6774,-2.664,-2.6466,-2.6694,-2.6814,-2.6907,-2.6854,-2.6907,-2.6921,-2.6934,-2.6894,-2.6841,-2.6947,-2.7028,-2.7094,-2.7121,-2.7228,-2.7388,-2.7468,-2.7522,-2.7615,-2.7843,-2.7949,-2.8238,-2.8446,-2.8642,-2.9328,-3.0012,-3.0499,-3.0846,-3.092,-3.1037,-3.0927,-3.1198,-3.1432,-3.1666,-3.1768,-3.1988,-3.2222,-3.2383,-3.2544,-3.2646,-3.2749,-3.2749,-3.2734,-3.2763,-3.2763,-3.2763,-3.2763,-3.2763,-3.2763,-3.2763,-3.2763,-3.2763,-3.2763,-3.2763,-3.2763,-1.3397,-1.3397,-1.3397,-1.3397,-1.3397,-1.3397,-1.3397,-1.3397,-1.3397,-1.3728,-1.4232,-1.4713,-1.5538,-1.6854,-1.8164,-1.9469,-2.0931,-2.2073,-2.2889,-2.3371,-2.384,-2.4012,-2.4172,-2.4504,-2.4861,-2.5525,-2.5883,-2.6069,-2.6386,-2.6573,-2.6547,-2.652,-2.644,-2.64,-2.64,-2.64,-2.64,-2.64,-2.64,-2.64,-2.64,-2.64,-2.64,-2.64,-2.64,-2.64,-2.64,-2.64,-2.64,-2.64,-2.64,-2.644,-2.648,-2.6547,-2.668,-2.6841,-2.6974,-2.7068,-2.7081,-2.6974,-2.6747,-2.6947,-2.7094,-2.7201,-2.7268,-2.7268,-2.7175,-2.7201,-2.7228,-2.7281,-2.7295,-2.7308,-2.7375,-2.7415,-2.7575,-2.7736,-2.7789,-2.7829,-2.7923,-2.8056,-2.811,-2.8123,-2.8372,-2.8737,-2.9102,-2.9804,-3.0014,-3.0548,-3.0774,-3.0918,-3.1277,-3.1393,-3.1739,-3.1988,-3.2222,-3.2354,-3.2471,-3.2529,-3.2676,-3.2705,-3.2763,-3.2763,-3.2763,-3.2763,-3.2763,-3.2763,-3.2763,-3.2763,-3.2763,-3.2763,-3.2763,-3.2763,-3.2763,-3.2763,-3.2763,-1.3397,-1.3397,-1.3397,-1.3397,-1.3397,-1.3397,-1.3397,-1.3397,-1.3397,-1.3894,-1.4555,-1.4713,-1.5538,-1.7191,-1.8164,-1.9307,-2.0607,-2.1911,-2.2728,-2.3199,-2.3532,-2.3692,-2.4049,-2.4246,-2.469,-2.5001,-2.5698,-2.6287,-2.6522,-2.6693,-2.6774,-2.668,-2.652,-2.64,-2.64,-2.64,-2.64,-2.64,-2.64,-2.64,-2.64,-2.6426,-2.6466,-2.6466,-2.6533,-2.656,-2.6573,-2.6573,-2.6573,-2.6573,-2.656,-2.664,-2.6787,-2.6814,-2.6961,-2.7215,-2.7255,-2.7281,-2.7281,-2.7255,-2.7268,-2.7268,-2.7388,-2.7428,-2.7348,-2.7321,-2.7388,-2.7482,-2.7402,-2.7362,-2.7402,-2.7509,-2.7629,-2.7736,-2.7896,-2.7963,-2.8003,-2.803,-2.8096,-2.8123,-2.8136,-2.8163,-2.8439,-2.8676,-2.9226,-2.9606,-2.9845,-3.0071,-3.0496,-3.1023,-3.1425,-3.1728,-3.1873,-3.2237,-3.2456,-3.2602,-3.2719,-3.2763,-3.2763,-3.2763,-3.2763,-3.2763,-3.2763,-3.2763,-3.2763,-3.2763,-3.2763,-3.2763,-3.2763,-3.2763,-3.2763,-3.2763,-3.2763,-3.2763,-3.2763,-1.3397,-1.3397,-1.3397,-1.3397,-1.3397,-1.3397,-1.3397,-1.3397,-1.3403,-1.3735,-1.4225,-1.4548,-1.5373,-1.6534,-1.7682,-1.8981,-2.012,-2.1103,-2.2084,-2.3038,-2.3383,-2.3651,-2.4045,-2.4292,-2.4576,-2.525,-2.5829,-2.6182,-2.66,-2.6677,-2.6854,-2.6747,-2.6533,-2.6413,-2.64,-2.64,-2.64,-2.64,-2.64,-2.64,-2.6413,-2.656,-2.668,-2.6694,-2.6841,-2.6907,-2.6907,-2.6894,-2.6894,-2.6894,-2.6894,-2.6974,-2.7094,-2.7121,-2.7255,-2.7482,-2.7562,-2.7655,-2.7776,-2.7829,-2.7736,-2.7682,-2.7696,-2.7776,-2.7843,-2.7843,-2.7843,-2.7816,-2.7762,-2.7776,-2.7909,-2.7923,-2.7989,-2.7989,-2.8083,-2.8083,-2.811,-2.811,-2.8136,-2.8136,-2.8136,-2.8323,-2.8628,-2.8843,-2.9254,-2.9467,-2.9735,-3.0065,-3.0451,-3.1037,-3.1613,-3.1699,-3.2004,-3.2339,-3.2661,-3.2719,-3.2763,-3.2763,-3.2763,-3.2763,-3.2763,-3.2763,-3.2763,-3.2763,-3.2763,-3.2763,-3.2763,-3.2763,-3.2763,-3.2763,-3.2763,-3.2763,-3.2763,-3.2763,-3.2763,-1.3397,-1.3397,-1.3397,-1.3397,-1.3397,-1.3397,-1.3397,-1.3397,-1.3397,-1.3735,-1.4066,-1.439,-1.5051,-1.604,-1.7026,-1.8164,-1.9307,-2.0617,-2.1265,-2.2406,-2.3155,-2.3596,-2.3877,-2.4196,-2.4693,-2.5206,-2.5612,-2.6147,-2.6607,-2.6698,-2.6719,-2.6653,-2.6493,-2.6413,-2.64,-2.64,-2.64,-2.6426,-2.6466,-2.6573,-2.664,-2.6787,-2.6974,-2.7028,-2.7121,-2.7241,-2.7255,-2.7268,-2.7281,-2.7281,-2.7281,-2.7335,-2.7375,-2.7442,-2.7562,-2.7762,-2.7869,-2.7963,-2.8056,-2.8096,-2.7976,-2.7896,-2.8056,-2.8123,-2.815,-2.8083,-2.8083,-2.8096,-2.815,-2.8136,-2.8123,-2.815,-2.815,-2.815,-2.8163,-2.8177,-2.819,-2.8203,-2.827,-2.8257,-2.835,-2.8524,-2.8711,-2.8965,-2.9326,-2.9555,-2.9798,-3.0106,-3.0427,-3.0811,-3.1535,-3.1782,-3.2016,-3.2293,-3.2528,-3.2749,-3.2763,-3.2763,-3.2763,-3.2763,-3.2763,-3.2763,-3.2763,-3.2763,-3.2763,-3.2763,-3.2763,-3.2763,-3.2778,-3.2778,-3.2763,-3.2763,-3.2763,-3.2793,-3.2822,-1.3397,-1.3397,-1.3397,-1.3397,-1.3397,-1.3397,-1.3397,-1.3397,-1.3397,-1.3569,-1.4066,-1.4066,-1.4728,-1.5719,-1.6534,-1.7191,-1.8192,-1.9652,-2.0496,-2.121,-2.2352,-2.3108,-2.3739,-2.4057,-2.4461,-2.4963,-2.5396,-2.5961,-2.6669,-2.6809,-2.6773,-2.6547,-2.6426,-2.6426,-2.6453,-2.648,-2.648,-2.6533,-2.672,-2.6814,-2.6894,-2.7121,-2.7241,-2.7308,-2.7388,-2.7442,-2.7442,-2.7428,-2.7402,-2.7388,-2.7362,-2.7509,-2.7615,-2.7709,-2.7896,-2.8043,-2.811,-2.8123,-2.8136,-2.8136,-2.8136,-2.8056,-2.811,-2.815,-2.815,-2.815,-2.815,-2.815,-2.815,-2.815,-2.815,-2.8163,-2.8177,-2.819,-2.8217,-2.8243,-2.827,-2.8337,-2.843,-2.8524,-2.8657,-2.8818,-2.9045,-2.9272,-2.9472,-2.9526,-2.973,-2.992,-3.026,-3.0519,-3.1026,-3.1586,-3.182,-3.2203,-3.2409,-3.2586,-3.2763,-3.2763,-3.2763,-3.2763,-3.2763,-3.2763,-3.2763,-3.2763,-3.2763,-3.2763,-3.2763,-3.2778,-3.2793,-3.2807,-3.2895,-3.2895,-3.2939,-3.291,-3.2954,-1.3397,-1.3397,-1.3397,-1.3397,-1.3397,-1.3397,-1.3397,-1.3397,-1.3397,-1.3562,-1.3562,-1.3901,-1.4397,-1.4728,-1.5711,-1.6534,-1.7407,-1.8302,-1.9522,-2.0446,-2.1418,-2.2277,-2.3089,-2.3538,-2.4071,-2.4538,-2.4973,-2.5652,-2.628,-2.6721,-2.665,-2.648,-2.6281,-2.6361,-2.6627,-2.6707,-2.672,-2.6787,-2.7014,-2.7108,-2.7215,-2.7428,-2.7522,-2.7602,-2.7736,-2.7789,-2.7816,-2.7829,-2.7829,-2.7843,-2.7869,-2.7963,-2.7989,-2.8016,-2.8096,-2.811,-2.8136,-2.8136,-2.815,-2.815,-2.8163,-2.819,-2.819,-2.815,-2.815,-2.819,-2.8203,-2.8243,-2.827,-2.831,-2.831,-2.831,-2.8377,-2.8444,-2.847,-2.8511,-2.8564,-2.8644,-2.8738,-2.8871,-2.8991,-2.9179,-2.9392,-2.9539,-2.9713,-2.9793,-2.982,-2.9985,-2.9998,-3.0396,-3.0602,-3.1151,-3.1521,-3.1877,-3.2232,-3.2409,-3.2586,-3.2763,-3.2763,-3.2763,-3.2778,-3.2778,-3.2763,-3.2763,-3.2763,-3.2763,-3.2763,-3.2807,-3.291,-3.3056,-3.3144,-3.3129,-3.3115,-3.3129,-3.3217,-1.3397,-1.3397,-1.3397,-1.3397,-1.3397,-1.3397,-1.3397,-1.3397,-1.3397,-1.3397,-1.3397,-1.3735,-1.3901,-1.4232,-1.4893,-1.5585,-1.6336,-1.7408,-1.832,-1.9146,-2.0308,-2.1125,-2.1959,-2.2428,-2.2878,-2.3503,-2.4224,-2.4873,-2.5604,-2.6236,-2.6515,-2.5987,-2.6082,-2.6187,-2.6183,-2.6392,-2.6712,-2.6914,-2.7171,-2.7415,-2.7549,-2.7709,-2.7829,-2.7896,-2.8083,-2.8123,-2.815,-2.815,-2.815,-2.815,-2.815,-2.8136,-2.8136,-2.8136,-2.8136,-2.815,-2.815,-2.815,-2.8163,-2.8297,-2.831,-2.835,-2.8417,-2.8524,-2.847,-2.847,-2.8497,-2.8537,-2.8524,-2.8524,-2.8511,-2.8524,-2.8644,-2.8764,-2.8804,-2.8858,-2.8925,-2.9005,-2.9112,-2.9232,-2.9392,-2.9566,-2.9726,-2.986,-2.9913,-2.9887,-2.9873,-2.9873,-2.9873,-3.0066,-3.0437,-3.0794,-3.1151,-3.1343,-3.1699,-3.2054,-3.2054,-3.2232,-3.2409,-3.2409,-3.2424,-3.2601,-3.2778,-3.2778,-3.2763,-3.2822,-3.2939,-3.2983,-3.3071,-3.3261,-3.3466,-3.3524,-3.3524,-3.351,-3.3641,-1.3397,-1.3397,-1.3397,-1.3397,-1.3397,-1.3397,-1.3397,-1.3397,-1.3397,-1.3397,-1.3397,-1.3397,-1.3569,-1.3908,-1.4261,-1.4847,-1.5607,-1.6365,-1.7171,-1.78,-1.9173,-1.9981,-2.0554,-2.0826,-2.1577,-2.2126,-2.2815,-2.3652,-2.4708,-2.5379,-2.564,-2.54,-2.535,-2.5387,-2.5514,-2.588,-2.6236,-2.6671,-2.7017,-2.7403,-2.7802,-2.7963,-2.815,-2.8123,-2.8136,-2.815,-2.815,-2.815,-2.815,-2.815,-2.815,-2.815,-2.815,-2.815,-2.815,-2.8217,-2.8257,-2.831,-2.839,-2.8537,-2.8604,-2.8711,-2.8871,-2.8938,-2.8885,-2.8738,-2.8738,-2.8791,-2.8791,-2.8791,-2.8791,-2.8804,-2.8885,-2.9005,-2.9098,-2.9179,-2.9285,-2.9352,-2.9419,-2.9526,-2.9633,-2.9793,-2.982,-2.9913,-2.9913,-2.9913,-2.9913,-2.9913,-2.9913,-2.9913,-3.0093,-3.0437,-3.0794,-3.0973,-3.1151,-3.1507,-3.1507,-3.1507,-3.1699,-3.2054,-3.2232,-3.2424,-3.2793,-3.2866,-3.2954,-3.3085,-3.3188,-3.3246,-3.3393,-3.3641,-3.3817,-3.3934,-3.3963,-3.3934,-3.4022,-1.3397,-1.3397,-1.3397,-1.3397,-1.3397,-1.3397,-1.3397,-1.3397,-1.3397,-1.341,-1.3403,-1.3403,-1.341,-1.3597,-1.402,-1.4433,-1.4843,-1.5539,-1.6363,-1.6984,-1.7983,-1.873,-1.9287,-1.9681,-2.025,-2.0945,-2.1608,-2.2579,-2.3608,-2.4484,-2.4845,-2.4438,-2.445,-2.4547,-2.4681,-2.5057,-2.5457,-2.6111,-2.6293,-2.6968,-2.768,-2.8056,-2.815,-2.815,-2.815,-2.815,-2.815,-2.815,-2.815,-2.815,-2.815,-2.815,-2.815,-2.815,-2.8283,-2.8444,-2.8497,-2.8577,-2.8724,-2.8845,-2.8925,-2.8938,-2.9058,-2.9192,-2.9192,-2.9032,-2.8978,-2.9045,-2.9072,-2.9085,-2.9098,-2.9112,-2.9152,-2.9272,-2.9379,-2.9513,-2.9633,-2.9673,-2.9713,-2.978,-2.9873,-2.99,-2.9913,-2.9913,-2.9913,-2.9913,-2.9913,-2.9913,-2.9913,-2.9913,-2.9913,-3.0272,-3.0437,-3.0794,-3.0794,-3.0973,-3.0973,-3.1151,-3.1329,-3.1521,-3.1877,-3.2304,-3.2732,-3.3071,-3.3188,-3.3334,-3.348,-3.3583,-3.3744,-3.4007,-3.4124,-3.4227,-3.4358,-3.4388,-3.4475,-1.3397,-1.3397,-1.3397,-1.3397,-1.3397,-1.3397,-1.3397,-1.341,-1.3471,-1.3505,-1.3485,-1.3444,-1.3437,-1.3492,-1.393,-1.4245,-1.4493,-1.4844,-1.5655,-1.6276,-1.6681,-1.7071,-1.763,-1.8156,-1.8331,-1.903,-2.024,-2.1363,-2.2588,-2.3078,-2.3177,-2.315,-2.3338,-2.343,-2.3557,-2.3798,-2.4403,-2.5056,-2.5068,-2.5921,-2.7122,-2.763,-2.7981,-2.815,-2.815,-2.815,-2.815,-2.815,-2.815,-2.815,-2.815,-2.827,-2.8323,-2.8377,-2.8524,-2.8711,-2.8818,-2.8871,-2.9032,-2.9165,-2.9232,-2.9245,-2.9392,-2.9593,-2.9619,-2.9486,-2.9486,-2.9526,-2.9539,-2.9539,-2.9539,-2.9553,-2.9566,-2.9646,-2.9673,-2.974,-2.9793,-2.9806,-2.9833,-2.9847,-2.99,-2.99,-2.9913,-2.9913,-2.9913,-2.9913,-2.9913,-2.9913,-2.9913,-2.9913,-2.9913,-2.9913,-3.0272,-3.0272,-3.0272,-3.0451,-3.0451,-3.0616,-3.0973,-3.1343,-3.1727,-3.2226,-3.2699,-3.3067,-3.327,-3.3641,-3.3773,-3.3905,-3.411,-3.4358,-3.4432,-3.449,-3.4622,-3.471,-3.468,-1.3397,-1.3397,-1.3397,-1.3397,-1.3397,-1.3397,-1.3417,-1.3451,-1.3566,-1.3641,-1.3641,-1.3526,-1.3553,-1.3614,-1.3695,-1.4222,-1.4541,-1.4625,-1.5074,-1.5477,-1.569,-1.6049,-1.6057,-1.6057,-1.6753,-1.763,-1.8846,-2.0057,-2.1221,-2.1351,-2.1335,-2.1579,-2.18,-2.1885,-2.1874,-2.2225,-2.2675,-2.3354,-2.3869,-2.4566,-2.5592,-2.6796,-2.7474,-2.7981,-2.815,-2.815,-2.815,-2.815,-2.815,-2.819,-2.823,-2.843,-2.8577,-2.8671,-2.8845,-2.9005,-2.9098,-2.9138,-2.9245,-2.9432,-2.9499,-2.9593,-2.982,-2.99,-2.99,-2.9887,-2.9873,-2.9873,-2.9873,-2.9873,-2.9873,-2.9873,-2.9873,-2.9887,-2.9887,-2.9887,-2.99,-2.9913,-2.9913,-2.9913,-2.9913,-2.9913,-2.9913,-2.9913,-2.9913,-2.9913,-2.9913,-2.9913,-2.9913,-2.9913,-2.9913,-2.9913,-3.0093,-3.0093,-2.9913,-3.0093,-3.0272,-3.0272,-3.0451,-3.1,-3.1634,-3.2233,-3.2793,-3.3118,-3.3503,-3.3919,-3.411,-3.4256,-3.4475,-3.4622,-3.4622,-3.4607,-3.4636,-3.471,-3.471,-1.3397,-1.3397,-1.3397,-1.3397,-1.3397,-1.3397,-1.3471,-1.358,-1.3614,-1.3688,-1.3777,-1.3783,-1.3783,-1.381,-1.3939,-1.4228,-1.427,-1.4359,-1.4766,-1.4992,-1.5175,-1.5352,-1.5528,-1.5528,-1.6057,-1.6753,-1.7622,-1.8497,-1.9525,-1.9522,-1.9571,-2.0036,-2.0055,-2.0104,-2.0113,-2.0451,-2.0935,-2.1628,-2.233,-2.302,-2.4395,-2.5763,-2.6965,-2.7643,-2.7981,-2.815,-2.815,-2.815,-2.815,-2.8217,-2.8404,-2.8657,-2.8845,-2.8978,-2.9125,-2.9312,-2.9392,-2.9486,-2.9606,-2.97,-2.9753,-2.9766,-2.9913,-2.9913,-2.99,-2.99,-2.99,-2.99,-2.99,-2.99,-2.99,-2.99,-2.99,-2.99,-2.99,-2.99,-2.9913,-2.9913,-2.9913,-2.9913,-2.9913,-2.9913,-2.9913,-2.9913,-2.9913,-2.9913,-2.9913,-2.9913,-2.9913,-2.9913,-2.9913,-2.9913,-2.9913,-2.9913,-2.9913,-2.9913,-3.0093,-2.9913,-3.0146,-3.0807,-3.1541,-3.2365,-3.2913,-3.324,-3.3809,-3.4227,-3.4402,-3.4505,-3.4578,-3.468,-3.468,-3.4695,-3.471,-3.471,-3.471]}]]